Date StartTime U_cm/s V_cm/s W_cm/s Ustd_cm/s Vstd_cm/s Wstd_cm/s Uvar_(cm/s)^2 Vvar_(cm/s)^2 Wvar_(cm/s)^2 KE_(m/s)^2 TurbulentKE_(m/s)^2 HorizWindSpeed_cm/s FrictionSpeec_cm/s DragCoef SpeedOfSound_m/s SonicTemperature_C Pressure_mb 
11/09/2013  00:00:00     -149.188      -52.483      -10.423       39.229       36.372       24.440     1538.890     1322.924      597.296        1.429        0.173      158.150       20.188        0.016      335.703        6.514      861.863
11/09/2013  00:01:00     -127.516      -27.038       -2.081       43.144       31.808       23.227     1861.419     1011.741      539.505        1.020        0.171      130.351       21.193        0.026      335.720        6.542      861.857
11/09/2013  00:02:00     -104.330      -28.189       -4.153       31.335       27.969       19.121      981.854      782.258      365.630        0.691        0.106      108.072       16.193        0.022      335.695        6.501      861.855
11/09/2013  00:03:00     -115.627      -10.763      -15.198       28.430       20.656       16.734      808.291      426.664      280.022        0.762        0.076      116.126       11.162        0.009      335.669        6.457      861.846
11/09/2013  00:04:00      -49.393      -13.412        1.902       44.402       34.416       21.401     1971.568     1184.490      457.996        0.312        0.181       51.181       22.260        0.189      335.554        6.266      861.828
11/09/2013  00:05:00      -67.472        2.102       -6.961       34.353       24.385       17.051     1180.098      594.648      290.740        0.334        0.103       67.505       17.199        0.065      335.581        6.311      861.814
11/09/2013  00:06:00     -111.416       10.714      -13.332       59.713       42.711       29.852     3565.596     1824.266      891.169        0.949        0.314      111.930       28.084        0.063      335.609        6.357      861.813
11/09/2013  00:07:00     -140.535      -12.100      -16.533       40.820       42.309       27.468     1666.268     1790.018      754.518        1.219        0.211      141.055       19.546        0.019      335.510        6.191      861.810
11/09/2013  00:08:00     -125.462      -47.687       -8.220       43.996       38.755       27.712     1935.625     1501.971      767.978        1.114        0.210      134.219       20.941        0.024      335.458        6.106      861.812
11/09/2013  00:09:00     -164.320      -62.142       -7.871       59.162       31.398       21.882     3500.085      985.803      478.807        1.794        0.248      175.678       23.948        0.019      335.444        6.079      861.806
11/09/2013  00:10:00     -101.620      -27.747       -2.358       55.321       44.513       30.508     3060.465     1981.375      930.757        0.854        0.299      105.340       26.441        0.063      335.433        6.062      861.800
11/09/2013  00:11:00      -63.622       -1.775       -1.419       37.196       31.597       20.397     1383.526      998.401      416.057        0.342        0.140       63.646       10.926        0.029      335.459        6.107      861.783
11/09/2013  00:12:00     -105.743        6.499      -11.364       41.280       37.877       20.619     1704.069     1434.668      425.128        0.746        0.178      105.943       14.777        0.019      335.595        6.334      861.772
11/09/2013  00:13:00      -97.617       15.598      -18.897       46.950       41.432       28.830     2204.335     1716.616      831.153        0.744        0.238       98.855       24.561        0.062      335.630        6.392      861.773
11/09/2013  00:14:00     -100.532       11.085      -10.498       50.503       44.547       25.718     2550.584     1984.431      661.433        0.777        0.260      101.141       24.622        0.059      335.629        6.390      861.781
11/09/2013  00:15:00      -59.371       10.182       -7.538       27.373       26.982       26.635      749.254      728.052      709.422        0.294        0.109       60.238       15.109        0.063      335.591        6.327      861.779
11/09/2013  00:16:00      -24.958      -23.129        2.056       31.493       24.499       17.623      991.827      600.191      310.553        0.153        0.095       34.027       14.943        0.193      335.598        6.339      861.779
11/09/2013  00:17:00      -53.683      -54.410      -13.333       45.835       25.651       18.872     2100.878      657.957      356.145        0.457        0.156       76.435       20.671        0.073      335.564        6.281      861.790
11/09/2013  00:18:00     -104.821      -62.450       -3.738       51.043       31.517       24.528     2605.341      993.342      601.638        0.955        0.210      122.014       15.999        0.017      335.540        6.241      861.799
11/09/2013  00:19:00     -195.708      -48.531      -11.940       53.985       36.081       27.270     2914.385     1301.857      743.643        2.288        0.248      201.636       29.777        0.022      335.580        6.308      861.803
11/09/2013  00:20:00     -184.889      -54.623      -25.452       35.207       32.722       20.746     1239.533     1070.721      430.389        2.028        0.137      192.789       17.679        0.008      335.683        6.478      861.805
11/09/2013  00:21:00     -140.885      -32.794      -16.687       53.520       41.004       21.234     2864.436     1681.360      450.880        1.310        0.250      144.652       24.053        0.028      335.678        6.471      861.812
11/09/2013  00:22:00     -126.029        0.523      -15.193       34.895       32.693       22.595     1217.654     1068.848      510.517        0.946        0.140      126.031       18.253        0.021      335.594        6.331      861.811
11/09/2013  00:23:00     -124.285       -2.600       -8.825       34.384       36.123       21.117     1182.229     1304.888      445.908        0.923        0.147      124.312       16.033        0.017      335.770        6.625      861.796
11/09/2013  00:24:00     -143.402        3.345       -8.463       27.100       33.662       21.432      734.431     1133.127      459.311        1.149        0.116      143.441        9.632        0.005      335.782        6.646      861.788
11/09/2013  00:25:00     -134.375      -29.916       -2.659       31.203       24.462       18.913      973.618      598.382      357.697        1.044        0.096      137.665       14.384        0.011      335.815        6.701      861.787
11/09/2013  00:26:00     -153.051      -41.752       -6.458       28.168       32.776       16.970      793.429     1074.275      287.986        1.368        0.108      158.644       13.060        0.007      335.767        6.620      861.775
11/09/2013  00:27:00     -139.446      -32.183       -2.578       48.590       32.956       21.509     2360.988     1086.080      462.618        1.220        0.195      143.112       24.197        0.029      335.663        6.447      861.765
11/09/2013  00:28:00     -183.096      -42.610      -10.186       28.344       33.321       18.026      803.402     1110.311      324.947        1.884        0.112      187.989       17.062        0.008      335.629        6.389      861.766
11/09/2013  00:29:00     -119.269      -45.255       -2.670       39.755       33.983       20.227     1580.453     1154.866      409.117        0.971        0.157      127.566       22.667        0.032      335.580        6.308      861.788
11/09/2013  00:30:00     -164.723      -40.229      -14.531       44.773       39.407       23.844     2004.617     1552.900      568.539        1.654        0.206      169.564       22.460        0.018      335.639        6.406      861.800
11/09/2013  00:31:00     -163.367        8.619      -19.280       36.148       27.048       21.446     1306.676      731.572      459.912        1.482        0.125      163.594       21.339        0.017      335.614        6.365      861.796
11/09/2013  00:32:00     -139.705       -7.427      -15.140       25.338       28.016       19.240      642.001      784.873      370.185        1.080        0.090      139.903       12.817        0.008      335.618        6.373      861.798
11/09/2013  00:33:00     -126.397      -19.489      -10.521       24.509       31.890       20.299      600.693     1016.974      412.039        0.925        0.101      127.891       15.278        0.014      335.552        6.263      861.816
11/09/2013  00:34:00     -112.154      -13.446      -12.000       34.824       33.941       24.917     1212.687     1151.986      620.868        0.794        0.149      112.958       19.150        0.029      335.521        6.209      861.815
11/09/2013  00:35:00     -113.580       10.835       -8.917       26.504       26.582       18.286      702.445      706.604      334.379        0.742        0.087      114.095        9.730        0.007      335.480        6.142      861.830
11/09/2013  00:36:00     -124.837      -25.717      -10.355       27.280       21.893       19.469      744.192      479.309      379.040        0.898        0.080      127.458       16.980        0.018      335.491        6.160      861.853
11/09/2013  00:37:00      -86.261      -41.137        2.205       49.842       20.236       19.811     2484.257      409.483      392.493        0.621        0.164       95.568       27.011        0.080      335.473        6.130      861.881
11/09/2013  00:38:00      -55.968      -60.850        3.852       43.662       39.397       21.877     1906.381     1552.143      478.587        0.539        0.197       82.675       14.733        0.032      335.502        6.179      861.891
11/09/2013  00:39:00     -105.379      -40.163       -9.460       35.819       28.884       14.726     1282.970      834.286      216.841        0.757        0.117      112.773       17.490        0.024      335.651        6.425      861.889
11/09/2013  00:40:00      -47.451      -27.432        3.573       48.035       23.251       16.602     2307.341      540.597      275.619        0.307        0.156       54.810       19.675        0.129      335.623        6.382      861.874
11/09/2013  00:41:00      -59.225      -31.590       -8.416       13.044       17.689        9.228      170.135      312.908       85.152        0.257        0.028       67.124        7.936        0.014      335.496        6.168      861.873
11/09/2013  00:42:00      -78.220      -52.564       -1.955       21.837       20.069       16.341      476.851      402.766      267.027        0.502        0.057       94.241        8.860        0.009      335.460        6.108      861.876
11/09/2013  00:43:00      -68.629      -54.755        4.504       44.889       30.328       27.118     2015.046      919.770      735.401        0.570        0.184       87.795       22.689        0.067      335.336        5.901      861.878
11/09/2013  00:44:00      -90.293      -75.086        0.373       45.849       40.140       28.618     2102.106     1611.198      819.014        0.916        0.227      117.434       27.163        0.053      335.339        5.906      861.885
11/09/2013  00:45:00      -93.388      -72.937       -1.200       42.543       37.397       24.729     1809.935     1398.533      611.530        0.893        0.191      118.495       18.120        0.023      335.379        5.974      861.896
11/09/2013  00:46:00     -107.130      -61.844        2.129       40.723       31.391       24.796     1658.345      985.411      614.841        0.928        0.163      123.700       22.874        0.034      335.379        5.974      861.906
11/09/2013  00:47:00      -82.709      -38.957        2.811       38.058       28.795       18.020     1448.423      829.129      324.736        0.548        0.130       91.424       13.451        0.022      335.338        5.905      861.906
11/09/2013  00:48:00      -98.547      -39.489      -10.835       18.004       18.386        9.989      324.152      338.027       99.778        0.608        0.038      106.165        5.892        0.003      335.362        5.945      861.887
11/09/2013  00:49:00      -98.215      -31.383       -8.959       20.938       17.570       13.010      438.385      308.702      169.272        0.581        0.046      103.107       12.048        0.014      335.372        5.959      861.860
11/09/2013  00:50:00      -90.755      -33.365      -12.100       15.204       11.555        8.259      231.167      133.518       68.214        0.496        0.022       96.694        2.797        0.001      335.361        5.943      861.837
11/09/2013  00:51:00      -57.560      -40.112       -5.113       13.677       16.075        8.322      187.064      258.413       69.256        0.273        0.026       70.158        6.768        0.009      335.364        5.949      861.836
11/09/2013  00:52:00      -16.410      -15.748        3.945       19.213       10.015       13.349      369.156      100.300      178.198        0.059        0.032       22.744       11.567        0.259      335.405        6.016      861.831
11/09/2013  00:53:00       -5.513       -9.024        0.260        7.001        9.259        7.539       49.020       85.723       56.840        0.015        0.010       10.575        4.955        0.220      335.508        6.188      861.828
11/09/2013  00:54:00       -7.755        1.788        2.155        5.795        4.986        6.302       33.584       24.862       39.721        0.008        0.005        7.959        3.448        0.188      335.548        6.254      861.829
11/09/2013  00:55:00      -51.129       -2.609       -1.351       29.625       12.320        9.051      877.663      151.773       81.922        0.187        0.056       51.196       12.494        0.060      335.555        6.267      861.850
11/09/2013  00:56:00     -125.583      -26.921      -19.524       21.567       12.170        9.694      465.124      148.103       93.967        0.879        0.035      128.436        9.098        0.005      335.309        5.856      861.861
11/09/2013  00:57:00     -136.441      -42.002      -13.411       14.495       20.152       10.747      210.097      406.091      115.503        1.065        0.037      142.760        9.736        0.005      335.213        5.697      861.881
11/09/2013  00:58:00      -84.796      -52.642       -3.104       44.581       21.011       13.826     1987.452      441.448      191.161        0.630        0.131       99.807       16.324        0.027      335.196        5.669      861.903
11/09/2013  00:59:00      -43.407      -35.807       -1.680       19.325       15.926       12.743      373.445      253.645      162.389        0.198        0.039       56.270       11.996        0.045      335.302        5.845      861.919
11/09/2013  01:00:00      -18.083      -17.840       -1.141       21.086        6.400        6.606      444.619       40.957       43.634        0.059        0.026       25.402        5.540        0.048      335.352        5.926      861.919
11/09/2013  01:01:00        5.283        5.606       -4.653       12.824       14.028       12.046      164.468      196.793      145.107        0.029        0.025        7.703       11.952        2.407      335.369        5.956      861.909
11/09/2013  01:02:00      -16.885       -0.394       -3.041       17.565        3.751        3.010      308.537       14.073        9.062        0.031        0.017       16.889        1.680        0.010      335.438        6.070      861.886
11/09/2013  01:03:00      -73.388      -12.712      -11.501       15.101       14.799        8.596      228.049      219.011       73.898        0.310        0.026       74.480        6.350        0.007      335.415        6.034      861.889
11/09/2013  01:04:00     -113.290      -43.347       -9.485       10.936       16.256        6.164      119.600      264.256       37.993        0.761        0.021      121.300        4.814        0.002      335.176        5.637      861.921
11/09/2013  01:05:00     -108.351      -27.492       -6.354       29.196       23.022       15.441      852.399      530.018      238.415        0.708        0.081      111.784       15.264        0.019      334.961        5.280      861.953
11/09/2013  01:06:00     -105.517       -5.257       -9.334       27.328       17.873       12.799      746.802      319.428      163.807        0.624        0.062      105.648       13.661        0.017      334.987        5.323      861.961
11/09/2013  01:07:00      -72.584      -11.685       -5.659       15.360       17.908        6.642      235.921      320.689       44.111        0.302        0.030       73.518        5.126        0.005      335.041        5.412      861.962
11/09/2013  01:08:00      -44.543      -38.058        4.506       16.672       12.667       12.469      277.954      160.441      155.476        0.202        0.030       58.588        9.912        0.029      335.128        5.557      861.961
11/09/2013  01:09:00      -20.990      -21.127        6.152       16.417       13.184       12.411      269.520      173.827      154.045        0.076        0.030       29.782       11.124        0.140      335.131        5.561      861.974
11/09/2013  01:10:00       -7.954      -10.207        6.455       15.324       12.919        7.413      234.810      166.889       54.955        0.033        0.023       12.940        8.915        0.475      335.115        5.534      861.986
11/09/2013  01:11:00       -7.025        2.907        2.701        7.757        5.726        4.757       60.173       32.787       22.628        0.009        0.006        7.603        5.126        0.455      335.194        5.666      861.996
11/09/2013  01:12:00       21.996       28.617        7.253        6.749       11.393        9.094       45.553      129.805       82.708        0.081        0.013       36.094        8.581        0.057      335.216        5.703      861.989
11/09/2013  01:13:00       22.578       54.724      -12.669        8.588       26.190        7.809       73.754      685.939       60.984        0.224        0.041       59.198        9.505        0.026      335.296        5.835      861.988
11/09/2013  01:14:00        7.671      126.093      -21.034       11.119       17.697        8.461      123.642      313.169       71.588        0.845        0.025      126.326        6.364        0.003      335.465        6.117      861.988
11/09/2013  01:15:00      -21.951       43.341       -5.444       26.858       41.067       17.470      721.328     1686.521      305.191        0.255        0.136       48.583       13.729        0.080      335.430        6.057      862.012
11/09/2013  01:16:00      -50.860      -39.776        0.367       21.918       17.177       10.853      480.388      295.057      117.780        0.253        0.045       64.567        6.766        0.011      335.141        5.578      862.046
11/09/2013  01:17:00      -50.264      -52.598        1.724       36.171       26.062       24.355     1308.335      679.220      593.184        0.394        0.129       72.753       17.371        0.057      335.024        5.384      862.086
11/09/2013  01:18:00      -62.156      -37.629        1.250       31.157       25.936       12.208      970.738      672.693      149.038        0.354        0.090       72.659        3.433        0.002      335.024        5.385      862.104
11/09/2013  01:19:00      -38.354       -5.481       -0.183       21.875       11.376        9.954      478.518      129.415       99.089        0.110        0.035       38.743        5.552        0.021      335.044        5.417      862.083
11/09/2013  01:20:00      -11.348       21.848        1.097       25.248       10.916       13.852      637.452      119.157      191.873        0.078        0.047       24.619       16.588        0.454      335.332        5.895      862.041
11/09/2013  01:21:00       17.523       71.190      -10.510       14.529       13.139        6.060      211.090      172.635       36.728        0.295        0.021       73.315        4.464        0.004      335.426        6.050      862.005
11/09/2013  01:22:00      -38.817       43.655      -12.794       26.609       41.182       10.044      708.042     1695.987      100.882        0.304        0.125       58.417        6.826        0.014      335.364        5.949      862.004
11/09/2013  01:23:00     -103.048      -37.657      -19.584       30.359       28.020       12.726      921.650      785.105      161.949        0.714        0.093      109.714       12.554        0.013      335.020        5.377      862.026
11/09/2013  01:24:00     -134.724      -84.327       -7.912       40.835       25.508       23.345     1667.507      650.677      544.990        1.409        0.143      158.939       20.473        0.017      334.922        5.214      862.059
11/09/2013  01:25:00      -73.901      -53.370       -2.940       55.339       35.954       24.161     3062.427     1292.693      583.755        0.663        0.247       91.157       21.613        0.056      334.914        5.201      862.087
11/09/2013  01:26:00      -67.155      -18.471        0.004       30.517       21.020       11.953      931.278      441.854      142.872        0.318        0.076       69.649       10.384        0.022      335.041        5.411      862.090
11/09/2013  01:27:00      -47.355       21.867       -8.183       10.958        7.614        6.477      120.077       57.979       41.957        0.150        0.011       52.160        3.763        0.005      335.302        5.846      862.067
11/09/2013  01:28:00       -6.635       35.795      -10.397       16.926       14.513        6.939      286.494      210.621       48.151        0.099        0.027       36.404        5.705        0.025      335.640        6.408      862.038
11/09/2013  01:29:00       11.115       67.532      -11.520       16.159       12.168        7.318      261.116      148.049       53.558        0.264        0.023       68.441        3.175        0.002      335.893        6.829      862.023
11/09/2013  01:30:00       -0.447       49.703       -7.422        7.223       14.507        5.876       52.176      210.442       34.529        0.141        0.015       49.705        5.266        0.011      335.926        6.884      862.019
11/09/2013  01:31:00       10.129       -6.760       -0.423        8.867       13.166        7.400       78.631      173.339       54.756        0.023        0.015       12.178        4.837        0.158      335.860        6.775      862.033
11/09/2013  01:32:00      -30.684      -22.460       -0.087       27.796        8.322        7.008      772.633       69.256       49.106        0.117        0.045       38.026       10.395        0.075      335.534        6.231      862.054
11/09/2013  01:33:00     -116.178      -21.452      -11.260       25.763       15.617       10.459      663.718      243.890      109.401        0.755        0.051      118.142       11.222        0.009      335.060        5.444      862.077
11/09/2013  01:34:00     -132.386      -17.959      -15.494       23.568       25.046       16.471      555.467      627.290      271.280        0.977        0.073      133.599       16.142        0.015      334.909        5.193      862.082
11/09/2013  01:35:00     -120.745      -25.293      -10.764       18.982       23.075       14.569      360.317      532.470      212.263        0.822        0.055      123.365       11.981        0.009      334.947        5.255      862.090
11/09/2013  01:36:00      -88.348       -8.895      -10.909       16.259       10.464        8.546      264.339      109.498       73.037        0.423        0.022       88.794        6.616        0.006      334.982        5.314      862.097
11/09/2013  01:37:00      -52.353       -7.766       -6.301       20.450       10.522        9.381      418.222      110.716       87.999        0.173        0.031       52.925        2.538        0.002      334.979        5.309      862.084
11/09/2013  01:38:00      -73.946       -5.688       -9.769       29.529       27.330       16.565      871.946      746.906      274.395        0.374        0.095       74.164       15.500        0.044      334.998        5.340      862.081
11/09/2013  01:39:00      -22.383      -25.707        5.313       40.424       18.148       16.451     1634.067      329.344      270.627        0.171        0.112       34.086       20.161        0.350      334.944        5.251      862.097
11/09/2013  01:40:00      -21.639       15.692      -14.335       14.623       21.866        8.797      213.823      478.116       77.394        0.084        0.038       26.730        5.667        0.045      335.058        5.441      862.125
11/09/2013  01:41:00      -19.984       -4.522       -7.339       10.083        7.989        7.731      101.663       63.822       59.770        0.035        0.011       20.489        4.246        0.043      335.248        5.755      862.143
11/09/2013  01:42:00      -46.515      -30.848       -8.621       17.485       12.424        9.179      305.733      154.355       84.262        0.187        0.027       55.814        6.047        0.012      335.174        5.634      862.157
11/09/2013  01:43:00      -85.721      -29.290      -11.478       17.446       19.422       11.175      304.360      377.203      124.880        0.457        0.040       90.587       12.273        0.018      335.041        5.413      862.165
11/09/2013  01:44:00      -96.815      -10.192      -16.292       15.707       10.807       11.200      246.706      116.801      125.439        0.512        0.024       97.350        9.589        0.010      334.981        5.311      862.172
11/09/2013  01:45:00      -84.375       -8.685      -12.607       10.835       11.495        8.633      117.392      132.138       74.537        0.384        0.016       84.821        7.138        0.007      335.019        5.375      862.178
11/09/2013  01:46:00      -81.934       -5.262      -13.251       17.112       10.287       11.409      292.823      105.821      130.157        0.372        0.026       82.103       11.524        0.020      335.003        5.349      862.199
11/09/2013  01:47:00     -101.701      -13.155      -19.609       14.371       12.460        9.200      206.514      155.256       84.648        0.567        0.022      102.549        7.626        0.006      334.929        5.225      862.216
11/09/2013  01:48:00     -104.825      -30.098      -13.885       23.395       21.186       18.956      547.319      448.847      359.341        0.672        0.068      109.060       15.532        0.020      334.820        5.043      862.230
11/09/2013  01:49:00     -103.654      -37.670       -6.741       27.847       32.842       19.044      775.454     1078.603      362.674        0.721        0.111      110.287       15.440        0.020      334.809        5.026      862.235
11/09/2013  01:50:00      -74.832      -36.741       -9.715       36.876       17.891       17.023     1359.873      320.088      289.774        0.451        0.098       83.365       15.346        0.034      334.833        5.066      862.239
11/09/2013  01:51:00      -90.036      -43.861       -9.015       15.503       11.804       11.391      240.351      139.342      129.759        0.531        0.025      100.151       10.362        0.011      334.991        5.330      862.245
11/09/2013  01:52:00      -48.316      -34.107       -2.761       22.730       13.589       13.179      516.662      184.654      173.695        0.219        0.044       59.142        4.088        0.005      335.021        5.379      862.256
11/09/2013  01:53:00      -12.486      -35.012       -2.022       16.707        8.651        8.466      279.111       74.835       71.679        0.091        0.021       37.171        5.954        0.026      335.158        5.607      862.268
11/09/2013  01:54:00       -2.758       -6.571       -4.379       21.199       10.142        5.936      449.383      102.857       35.235        0.033        0.029        7.126        5.795        0.661      335.306        5.850      862.278
11/09/2013  01:55:00      -65.337       -0.461      -11.246       13.459        9.704        6.221      181.153       94.172       38.700        0.235        0.016       65.339        5.745        0.008      335.335        5.900      862.289
11/09/2013  01:56:00     -101.816        0.772      -10.881       15.569        6.654        7.959      242.385       44.273       63.351        0.542        0.018      101.819        7.205        0.005      335.084        5.484      862.295
11/09/2013  01:57:00     -129.346      -10.582      -12.954       16.505       15.438       10.408      272.404      238.343      108.336        0.881        0.031      129.778        9.553        0.005      335.010        5.360      862.300
11/09/2013  01:58:00      -98.728      -68.943      -15.360       31.254       18.138       14.911      976.809      328.987      222.327        0.813        0.076      120.418       15.687        0.017      334.932        5.230      862.302
11/09/2013  01:59:00      -95.435      -59.221       -4.302       22.095       20.353       16.922      488.189      414.236      286.365        0.691        0.059      112.316       13.476        0.014      334.826        5.056      862.318
11/09/2013  02:00:00      -65.292      -47.660       -4.376       48.290       24.712       20.052     2331.877      610.669      402.101        0.495        0.167       80.837       16.501        0.042      334.817        5.041      862.326
11/09/2013  02:01:00      -74.881      -29.927        1.555       51.629       26.427       24.517     2665.596      698.379      601.082        0.523        0.198       80.640       24.398        0.092      334.770        4.961      862.318
11/09/2013  02:02:00      -65.651        2.844       -6.941       27.915       23.000       10.374      779.235      528.992      107.630        0.289        0.071       65.712        8.066        0.015      334.781        4.980      862.302
11/09/2013  02:03:00      -78.158       -7.081       -9.934       20.972       12.350       10.213      439.820      152.515      104.311        0.348        0.035       78.478        5.310        0.005      334.818        5.042      862.285
11/09/2013  02:04:00     -131.988      -42.932      -14.648       36.493       23.374       12.591     1331.741      546.360      158.542        1.076        0.102      138.795       13.482        0.009      334.726        4.889      862.286
11/09/2013  02:05:00     -210.069      -89.033      -20.859       27.688       33.289       25.390      766.617     1108.162      644.631        2.750        0.126      228.157       13.210        0.003      334.573        4.631      862.304
11/09/2013  02:06:00     -156.868      -41.149       -7.920       48.480       33.678       20.256     2350.307     1134.229      410.309        1.513        0.195      162.175       17.138        0.011      334.614        4.701      862.329
11/09/2013  02:07:00     -111.717      -36.821       -8.680       24.132       19.483       15.049      582.330      379.588      226.472        0.755        0.059      117.629       11.856        0.010      334.588        4.659      862.343
11/09/2013  02:08:00      -73.110      -15.068       -1.539       30.846       31.609       15.710      951.468      999.156      246.804        0.389        0.110       74.646       14.735        0.039      334.678        4.810      862.339
11/09/2013  02:09:00      -49.499      -25.860       -5.261       14.125       16.119        9.559      199.521      259.829       91.383        0.185        0.028       55.847        6.520        0.014      334.813        5.033      862.317
11/09/2013  02:10:00      -44.353      -13.370       -1.762       16.676       12.106        9.984      278.093      146.556       99.675        0.134        0.026       46.325        5.106        0.012      334.816        5.038      862.312
11/09/2013  02:11:00      -74.471      -31.553       -6.922       18.443       15.149       11.355      340.130      229.494      128.941        0.364        0.035       80.880       10.501        0.017      334.852        5.098      862.316
11/09/2013  02:12:00      -71.120      -44.264       -5.579       33.583       25.372       17.317     1127.807      643.744      299.869        0.456        0.104       83.770       19.745        0.056      334.893        5.167      862.327
11/09/2013  02:13:00      -96.721      -75.916        2.828       35.341       27.729       20.588     1249.002      768.887      423.863        0.878        0.122      122.956       21.000        0.029      334.811        5.030      862.346
11/09/2013  02:14:00      -79.959      -56.951        2.171       40.680       23.965       23.864     1654.840      574.309      569.509        0.622        0.140       98.167       20.445        0.043      334.759        4.943      862.372
11/09/2013  02:15:00     -105.684      -51.169       -7.734       24.212       26.864       12.548      586.243      721.693      157.443        0.766        0.073      117.419        7.562        0.004      334.785        4.987      862.376
11/09/2013  02:16:00      -99.001      -42.640       -6.779       28.350       16.232       13.228      803.721      263.482      174.974        0.645        0.062      107.793       13.106        0.015      334.808        5.025      862.373
11/09/2013  02:17:00      -82.665      -35.282       -3.711       16.300       12.792        9.712      265.683      163.645       94.314        0.431        0.026       89.879        9.344        0.011      334.847        5.090      862.373
11/09/2013  02:18:00      -82.271      -43.443       -0.743       22.787       13.669       14.431      519.243      186.833      208.258        0.479        0.046       93.037       13.162        0.020      334.905        5.186      862.395
11/09/2013  02:19:00      -94.873      -45.930        3.637       39.664       20.665       18.609     1573.228      427.059      346.290        0.673        0.117      105.406       18.281        0.030      334.763        4.950      862.414
11/09/2013  02:20:00      -98.519      -57.272        4.248       53.415       31.564       23.911     2853.161      996.308      571.735        0.871        0.221      113.957       23.193        0.041      334.702        4.848      862.440
11/09/2013  02:21:00     -132.704     -120.693       -4.745       46.913       52.734       31.860     2200.786     2780.828     1015.081        1.910        0.300      179.380       30.692        0.029      334.722        4.879      862.449
11/09/2013  02:22:00     -114.081      -84.172       -4.820       38.277       26.531       21.897     1465.162      703.872      479.474        1.139        0.132      141.772       20.759        0.021      334.812        5.031      862.469
11/09/2013  02:23:00     -110.830      -56.496       -1.447       23.099       20.276       13.659      533.544      411.122      186.577        0.830        0.057      124.399       12.913        0.011      334.775        4.969      862.462
11/09/2013  02:24:00      -70.390      -30.884        3.356       30.629       26.254       13.251      938.166      689.268      175.593        0.386        0.090       76.867       11.670        0.023      334.765        4.955      862.443
11/09/2013  02:25:00      -45.636      -15.058        1.936       30.456       27.724       15.193      927.551      768.625      230.812        0.212        0.096       48.056       15.505        0.104      335.046        5.421      862.432
11/09/2013  02:26:00      -33.857      -30.651       -0.668       22.949       16.753       13.532      526.652      280.668      183.103        0.154        0.050       45.670        8.933        0.038      335.002        5.349      862.439
11/09/2013  02:27:00      -16.944      -35.162       -2.232       13.751       13.675       12.933      189.096      186.999      167.267        0.104        0.027       39.032        8.298        0.045      335.071        5.463      862.452
11/09/2013  02:28:00      -42.919      -29.349       -4.618       15.107       10.084        9.235      228.208      101.680       85.293        0.157        0.021       51.994        4.327        0.007      334.906        5.190      862.458
11/09/2013  02:29:00      -87.289      -27.526       -8.017       11.019       16.518        8.436      121.424      272.860       71.161        0.445        0.023       91.526        4.717        0.003      334.725        4.887      862.459
11/09/2013  02:30:00     -111.663      -51.341       -6.934       12.305       10.990        7.561      151.422      120.786       57.176        0.774        0.016      122.901        4.458        0.001      334.798        5.008      862.470
11/09/2013  02:31:00     -116.642      -52.117       -3.384       38.069       19.650       13.259     1449.270      386.120      175.808        0.917        0.101      127.756       10.768        0.007      334.847        5.090      862.481
11/09/2013  02:32:00     -118.684      -29.141       -2.631       29.049       25.540       17.363      843.844      652.268      301.480        0.837        0.090      122.210       14.565        0.014      334.684        4.818      862.487
11/09/2013  02:33:00     -107.185      -25.638       -7.427       27.220       24.313       14.455      740.939      591.142      208.956        0.687        0.077      110.209       10.415        0.009      334.710        4.859      862.482
11/09/2013  02:34:00     -101.656      -12.486       -5.345       29.193       15.837       16.945      852.258      250.796      287.135        0.595        0.070      102.420       18.584        0.033      334.665        4.788      862.466
11/09/2013  02:35:00      -73.329       -9.156       -8.643       37.021       15.523       17.546     1370.520      240.962      307.864        0.373        0.096       73.898       15.663        0.045      334.699        4.845      862.454
11/09/2013  02:36:00      -51.086       -7.932       -4.945       30.114       25.434       18.166      906.877      646.908      330.006        0.229        0.094       51.698        5.878        0.013      334.869        5.126      862.454
11/09/2013  02:37:00     -122.968      -60.919       -4.146       40.924       32.611       20.712     1674.745     1063.468      428.992        1.101        0.158      137.231       18.615        0.018      334.843        5.083      862.463
11/09/2013  02:38:00     -187.473      -71.727       -7.278       26.253       25.969       17.613      689.211      674.369      310.215        2.101        0.084      200.726       14.955        0.006      334.720        4.877      862.484
11/09/2013  02:39:00     -138.810      -35.486       -4.688       53.553       43.245       20.353     2867.958     1870.151      414.241        1.285        0.258      143.274       21.267        0.022      334.713        4.866      862.518
11/09/2013  02:40:00      -63.200      -44.071       13.027       45.664       31.751       22.401     2085.192     1008.114      501.797        0.485        0.180       77.048       26.401        0.117      334.763        4.950      862.532
11/09/2013  02:41:00      -39.540      -16.964        1.618       16.017       18.940       13.799      256.549      358.738      190.417        0.133        0.040       43.025       10.273        0.057      334.834        5.069      862.524
11/09/2013  02:42:00      -46.024      -14.757       -3.176       18.289       17.802       13.823      334.498      316.921      191.087        0.159        0.042       48.332       12.552        0.067      335.097        5.505      862.513
11/09/2013  02:43:00      -30.500      -28.999        4.653       24.979       11.308        8.538      623.974      127.878       72.900        0.131        0.041       42.085       12.591        0.090      335.286        5.818      862.510
11/09/2013  02:44:00        1.197      -39.237       -4.828       15.810       15.665       10.904      249.957      245.405      118.905        0.109        0.031       39.255        6.319        0.026      335.307        5.852      862.520
11/09/2013  02:45:00        3.657      -36.912       -3.516       22.858       21.630       17.383      522.499      467.836      302.168        0.134        0.065       37.093       16.434        0.196      335.159        5.607      862.552
11/09/2013  02:46:00      -66.843      -47.714        7.595       62.431       48.991       32.546     3897.684     2400.087     1059.215        0.708        0.368       82.125       30.931        0.142      334.754        4.935      862.593
11/09/2013  02:47:00      -94.134      -91.277        3.136       59.608       39.289       30.897     3553.112     1543.611      954.650        1.163        0.303      131.121       25.288        0.037      334.738        4.909      862.618
11/09/2013  02:48:00      -74.214     -120.943      -10.013       39.866       56.245       27.463     1589.285     3163.548      754.198        1.287        0.275      141.898       24.516        0.030      334.749        4.928      862.614
11/09/2013  02:49:00      -44.403      -88.595        1.192       27.264       36.268       26.839      743.304     1315.336      720.334        0.630        0.139       99.100       19.797        0.040      334.786        4.989      862.595
11/09/2013  02:50:00      -26.906      -62.881       -1.905       24.167       25.554       15.198      584.045      652.996      230.980        0.307        0.073       68.396       11.867        0.030      334.926        5.222      862.580
11/09/2013  02:51:00      -41.219      -63.554        3.051       35.500       36.038       16.117     1260.266     1298.710      259.745        0.428        0.141       75.751       20.072        0.070      335.106        5.519      862.586
11/09/2013  02:52:00      -88.304      -99.123       -8.193       35.402       28.858       28.064     1253.274      832.774      787.615        1.028        0.144      132.751       25.979        0.038      334.979        5.309      862.599
11/09/2013  02:53:00      -68.424      -55.561       17.671       55.885       34.787       37.684     3123.087     1210.108     1420.118        0.692        0.288       88.141       36.906        0.175      334.804        5.020      862.608
11/09/2013  02:54:00      -98.082      -89.152       -4.173       44.487       32.066       25.225     1979.052     1028.230      636.283        1.061        0.182      132.545       22.922        0.030      334.736        4.906      862.603
11/09/2013  02:55:00      -89.335      -57.201        4.978       44.009       38.044       23.120     1936.835     1447.361      534.522        0.760        0.196      106.079       22.722        0.046      334.645        4.754      862.597
11/09/2013  02:56:00      -98.718      -49.752       -5.359       35.479       19.110       18.872     1258.772      365.204      356.151        0.711        0.099      110.547       19.556        0.031      334.575        4.639      862.594
11/09/2013  02:57:00      -82.451      -49.425        8.753       22.831       26.503       18.048      521.276      702.383      325.735        0.543        0.077       96.130       10.698        0.012      334.554        4.603      862.596
11/09/2013  02:58:00      -98.965      -38.031       -5.531       17.649       14.545       12.599      311.500      211.567      158.744        0.598        0.034      106.021       12.397        0.014      334.593        4.668      862.600
11/09/2013  02:59:00      -75.320      -46.464        0.360       27.188       12.567       12.471      739.211      157.936      155.525        0.444        0.053       88.499       12.435        0.020      334.627        4.724      862.607
11/09/2013  03:00:00      -53.094      -27.327       -3.659       11.966        8.344        7.121      143.195       69.614       50.709        0.192        0.013       59.714        5.231        0.008      334.616        4.705      862.614
11/09/2013  03:01:00      -57.785      -25.114        0.110        9.822       13.104        7.239       96.481      171.703       52.408        0.215        0.016       63.006        4.938        0.006      334.654        4.770      862.625
11/09/2013  03:02:00      -80.298      -24.361       -3.944       11.308       10.922       10.959      127.869      119.282      120.097        0.371        0.018       83.912        5.724        0.005      334.571        4.630      862.632
11/09/2013  03:03:00      -72.304      -35.484        4.173       19.568       15.216       13.498      382.897      231.536      182.185        0.365        0.040       80.542        9.285        0.013      334.563        4.618      862.638
11/09/2013  03:04:00      -44.117      -30.111        4.493       35.262       19.478       17.320     1243.390      379.403      299.979        0.240        0.096       53.413       17.905        0.112      334.496        4.507      862.639
11/09/2013  03:05:00      -96.787      -33.548       -5.926       11.660       12.142        9.002      135.958      147.419       81.031        0.545        0.018      102.437        3.803        0.001      334.594        4.670      862.641
11/09/2013  03:06:00      -77.298      -18.785       -4.016       12.805       13.930        8.737      163.969      194.047       76.342        0.339        0.022       79.548        4.868        0.004      334.621        4.714      862.637
11/09/2013  03:07:00      -54.786      -19.365       -3.600       14.235       13.721        8.463      202.630      188.253       71.630        0.193        0.023       58.108        5.641        0.009      334.637        4.741      862.638
11/09/2013  03:08:00       -7.196      -23.367       -1.624       22.387       11.267       10.709      501.178      126.937      114.682        0.067        0.037       24.450        7.311        0.089      334.729        4.893      862.654
11/09/2013  03:09:00      -30.777      -16.156       -3.888       21.687       11.631       10.068      470.326      135.281      101.367        0.097        0.035       34.759        9.199        0.070      334.680        4.813      862.665
11/09/2013  03:10:00      -64.127      -25.746       -2.611       28.173       15.501       15.997      793.699      240.289      255.893        0.304        0.064       69.102        7.401        0.011      334.487        4.491      862.679
11/09/2013  03:11:00      -47.292      -28.268       -4.303       33.672       17.949       15.926     1133.805      322.173      253.641        0.238        0.085       55.096       13.232        0.058      334.352        4.270      862.676
11/09/2013  03:12:00      -90.368      -19.595       -7.289       13.029       11.441        8.962      169.764      130.889       80.312        0.449        0.019       92.468        6.020        0.004      334.246        4.091      862.676
11/09/2013  03:13:00      -79.967      -12.144       -3.935       11.923       14.499       10.829      142.151      210.230      117.277        0.351        0.023       80.883        6.825        0.007      334.273        4.137      862.678
11/09/2013  03:14:00      -87.280      -34.675       -6.928       14.804       15.704       12.530      219.156      246.608      156.994        0.475        0.031       93.916        8.927        0.009      334.266        4.126      862.689
11/09/2013  03:15:00      -99.098      -28.935       -7.257       16.236       16.142       12.993      263.594      260.565      168.825        0.570        0.035      103.236        8.850        0.007      334.214        4.038      862.689
11/09/2013  03:16:00      -78.514      -20.416       -1.645       33.840       15.682       19.721     1145.142      245.927      388.930        0.418        0.089       81.125       21.717        0.072      334.105        3.858      862.694
11/09/2013  03:17:00      -20.789      -11.929       14.035       27.336       20.314       14.937      747.258      412.664      223.112        0.108        0.069       23.969       16.984        0.502      334.056        3.776      862.710
11/09/2013  03:18:00      -92.447      -30.843       -5.325       17.155       18.173       11.240      294.294      330.255      126.342        0.514        0.038       97.457        6.422        0.004      334.014        3.707      862.721
11/09/2013  03:19:00      -62.847      -27.873       -3.268       17.604       11.983       11.614      309.894      143.585      134.882        0.266        0.029       68.751        3.747        0.003      334.016        3.710      862.737
11/09/2013  03:20:00      -55.845      -23.775       -7.736       23.048       16.849        9.732      531.215      283.876       94.718        0.233        0.045       60.695        8.814        0.021      334.193        4.005      862.757
11/09/2013  03:21:00      -16.050        5.072        4.136       22.402       13.224        9.891      501.839      174.886       97.831        0.054        0.039       16.832       10.413        0.383      334.224        4.056      862.752
11/09/2013  03:22:00       16.663       10.542       -1.018       10.893        9.978        7.919      118.662       99.564       62.714        0.034        0.014       19.718        6.600        0.112      334.314        4.205      862.735
11/09/2013  03:23:00       11.583        6.922        2.875       10.533        8.574        5.932      110.938       73.516       35.185        0.020        0.011       13.494        5.365        0.158      334.328        4.230      862.725
11/09/2013  03:24:00      -15.554      -13.203       -5.180       13.458        5.530        4.714      181.106       30.582       22.218        0.034        0.012       20.402        1.812        0.008      334.477        4.476      862.738
11/09/2013  03:25:00      -79.749      -27.827       -9.062       33.554       10.516       10.725     1125.872      110.586      115.027        0.428        0.068       84.465       13.072        0.024      334.398        4.345      862.759
11/09/2013  03:26:00     -128.248      -37.868       -9.229       18.553       17.420        9.448      344.216      303.448       89.256        0.935        0.037      133.722        3.451        0.001      334.369        4.296      862.776
11/09/2013  03:27:00     -119.371      -24.931       -0.555       42.316       24.794       22.991     1790.606      614.748      528.579        0.890        0.147      121.946       26.026        0.046      334.099        3.849      862.789
11/09/2013  03:28:00      -77.401        1.393       -5.590       43.838       22.770       18.719     1921.772      518.467      350.412        0.441        0.140       77.413       21.917        0.080      333.939        3.584      862.804
11/09/2013  03:29:00      -92.756      -16.671       -5.390       12.044       12.563        9.843      145.047      157.838       96.887        0.466        0.020       94.242        6.745        0.005      334.001        3.684      862.812
11/09/2013  03:30:00      -85.107      -21.313        0.217       20.933       18.544       11.514      438.208      343.882      132.570        0.431        0.046       87.735        7.044        0.006      334.055        3.776      862.824
11/09/2013  03:31:00      -92.782      -31.263       -6.283       14.526       14.399       11.005      211.011      207.322      121.111        0.508        0.027       97.908        9.030        0.009      334.099        3.849      862.832
11/09/2013  03:32:00     -111.981      -30.689       -5.934       17.329       12.687       10.517      300.295      160.970      110.600        0.704        0.029      116.110        8.925        0.006      334.065        3.793      862.837
11/09/2013  03:33:00     -101.882      -48.754       -2.833       22.769       17.062       11.584      518.414      291.128      134.186        0.685        0.047      112.947        8.636        0.006      334.115        3.874      862.835
11/09/2013  03:34:00      -39.263      -41.438        6.398       33.164       29.796       15.838     1099.835      887.815      250.850        0.277        0.112       57.085       14.714        0.066      334.142        3.919      862.835
11/09/2013  03:35:00      -79.547      -57.338       -8.899       18.098       23.424       15.377      327.530      548.698      236.447        0.540        0.056       98.058       10.017        0.010      334.277        4.144      862.845
11/09/2013  03:36:00      -91.138      -24.390       -8.678        9.471       14.031        9.715       89.698      196.875       94.378        0.468        0.019       94.345        6.162        0.004      334.266        4.126      862.852
11/09/2013  03:37:00      -93.465      -30.894       -9.263       17.047       20.035        9.659      290.587      401.409       93.289        0.528        0.039       98.438        5.331        0.003      334.167        3.960      862.858
11/09/2013  03:38:00      -85.620      -62.932       -6.019       27.104       22.090       18.460      734.603      487.976      340.756        0.645        0.078      106.261       12.578        0.014      334.125        3.891      862.871
11/09/2013  03:39:00      -68.318      -52.660        8.762       62.729       30.217       25.449     3934.898      913.086      647.656        0.651        0.275       86.258       32.561        0.142      334.103        3.855      862.875
11/09/2013  03:40:00     -152.588      -47.273       -6.116       37.186       26.710       20.579     1382.810      713.413      423.483        1.404        0.126      159.743       18.776        0.014      334.068        3.796      862.875
11/09/2013  03:41:00     -130.395      -49.867        1.067       32.842       32.752       25.519     1078.602     1072.708      651.239        1.115        0.140      139.605       19.053        0.019      333.873        3.474      862.887
11/09/2013  03:42:00     -123.482      -50.268       -6.108       77.019       28.387       23.381     5931.990      805.807      546.669        1.255        0.364      133.321       31.796        0.057      333.882        3.489      862.900
11/09/2013  03:43:00      -71.048      -22.915       -1.174       22.882       26.013       16.324      523.566      676.668      266.486        0.352        0.073       74.652       14.247        0.036      333.904        3.525      862.894
11/09/2013  03:44:00      -56.723       -1.107       -6.413       17.704       19.718        9.687      313.438      388.800       93.835        0.203        0.040       56.734        9.053        0.025      333.904        3.525      862.880
11/09/2013  03:45:00      -85.500       67.791      -17.480       18.474       32.381       13.842      341.287     1048.511      191.591        0.690        0.079      109.114       11.825        0.012      334.166        3.960      862.849
11/09/2013  03:46:00      -30.549      109.230      -15.021       24.616       27.051       18.268      605.961      731.739      333.716        0.738        0.084      113.422       13.953        0.015      334.470        4.464      862.814
11/09/2013  03:47:00      -13.889       52.559       -1.749       26.260       37.033       17.216      689.584     1371.429      296.393        0.266        0.118       54.363       16.774        0.095      334.444        4.421      862.799
11/09/2013  03:48:00      -47.330       13.178        0.699       29.710       40.592       23.329      882.683     1647.707      544.236        0.274        0.154       49.131       18.721        0.145      334.241        4.085      862.814
11/09/2013  03:49:00       -7.864      -20.371        2.529       18.182       13.880       14.000      330.582      192.667      196.004        0.060        0.036       21.836       11.257        0.266      334.277        4.145      862.840
11/09/2013  03:50:00      -62.342      -48.227        3.710       47.143       20.972       18.036     2222.487      439.808      325.284        0.461        0.149       78.818       18.842        0.057      334.066        3.793      862.865
11/09/2013  03:51:00     -104.629      -36.901       -4.415       20.425       22.134       13.294      417.200      489.900      176.723        0.671        0.054      110.945       11.415        0.011      333.999        3.683      862.870
11/09/2013  03:52:00      -85.332      -30.732      -12.350       21.432       20.155       11.208      459.341      406.214      125.611        0.468        0.050       90.698        5.206        0.003      333.944        3.592      862.874
11/09/2013  03:53:00      -59.509      -24.958       -2.475       28.079       25.727       16.238      788.419      661.872      263.673        0.294        0.086       64.531       13.501        0.044      333.895        3.512      862.856
11/09/2013  03:54:00      -59.213      -18.343       -1.548       26.220       22.209       12.703      687.479      493.252      161.354        0.259        0.067       61.989       12.088        0.038      333.834        3.409      862.839
11/09/2013  03:55:00      -53.144      -27.531       -7.983       17.588       11.046        7.770      309.324      122.021       60.372        0.207        0.025       59.852        6.132        0.010      333.899        3.519      862.838
11/09/2013  03:56:00      -16.858      -19.742        1.804       14.348       14.406        8.733      205.865      207.524       76.274        0.058        0.024       25.961        6.896        0.071      333.970        3.635      862.848
11/09/2013  03:57:00       -5.831      -22.533       -1.223       10.053       17.869        9.915      101.056      319.304       98.306        0.053        0.026       23.275        5.616        0.058      334.168        3.964      862.851
11/09/2013  03:58:00       -8.609      -27.187        4.517       21.931       27.274       21.934      480.966      743.895      481.094        0.127        0.085       28.518       19.958        0.490      334.110        3.866      862.859
11/09/2013  03:59:00      -53.360      -42.509        3.891       34.131       26.605       21.978     1164.923      707.829      483.014        0.351        0.118       68.222       20.009        0.086      334.045        3.757      862.861
11/09/2013  04:00:00      -42.563      -26.789       -0.485       13.668       15.161        9.763      186.815      229.859       95.323        0.152        0.026       50.292        7.383        0.022      334.198        4.013      862.866
11/09/2013  04:01:00      -35.001       -5.818        3.034       11.451        7.555        8.232      131.132       57.072       67.772        0.076        0.013       35.481        7.947        0.050      334.485        4.490      862.882
11/09/2013  04:02:00      -15.779      -21.641        4.622        9.888        8.049        7.862       97.771       64.792       61.818        0.048        0.011       26.783        4.178        0.024      334.520        4.546      862.896
11/09/2013  04:03:00      -70.327      -26.318       -9.681       22.319        9.718        7.052      498.131       94.432       49.726        0.319        0.032       75.090        5.662        0.006      334.301        4.183      862.916
11/09/2013  04:04:00     -116.040      -23.234      -11.210       13.177       12.046        9.892      173.624      145.096       97.860        0.727        0.021      118.344        5.314        0.002      334.133        3.904      862.921
11/09/2013  04:05:00     -140.019       -4.838      -17.652       19.517       23.033       14.752      380.902      530.522      217.614        1.053        0.056      140.103        5.078        0.001      333.784        3.324      862.936
11/09/2013  04:06:00     -118.554      -48.268       -6.714       22.069       14.233       12.736      487.042      202.584      162.210        0.864        0.043      128.003       10.437        0.007      333.701        3.188      862.935
11/09/2013  04:07:00      -68.629      -52.595       -1.483       43.541       27.623       17.452     1895.800      763.023      304.581        0.522        0.148       86.465       21.521        0.062      333.888        3.498      862.937
11/09/2013  04:08:00      -66.727      -42.194        4.032       29.795       21.425       18.833      887.717      459.024      354.695        0.397        0.085       78.948       15.592        0.039      333.894        3.508      862.931
11/09/2013  04:09:00      -45.830      -33.792        9.627       50.790       27.793       19.120     2579.666      772.426      365.557        0.353        0.186       56.941       15.631        0.075      333.930        3.569      862.923
11/09/2013  04:10:00      -53.926      -47.750       -0.536       52.707       30.452       19.259     2777.993      927.328      370.913        0.463        0.204       72.028       22.379        0.097      334.032        3.738      862.903
11/09/2013  04:11:00      -77.652      -17.019       -1.661       23.917       28.671       17.521      572.035      822.003      306.990        0.401        0.085       79.495       11.036        0.019      333.952        3.604      862.894
11/09/2013  04:12:00     -101.673      -23.424       -2.483       22.793       24.875       15.834      519.520      618.762      250.704        0.614        0.069      104.336       12.975        0.015      333.865        3.461      862.899
11/09/2013  04:13:00      -95.644      -31.207        0.247       22.936       16.677       14.534      526.059      278.123      211.240        0.557        0.051      100.607        7.169        0.005      333.927        3.562      862.915
11/09/2013  04:14:00     -109.579      -17.407       -6.465       21.023       14.522       11.519      441.946      210.878      132.693        0.657        0.039      110.953       12.444        0.013      333.962        3.622      862.928
11/09/2013  04:15:00      -86.636      -20.508        0.614       19.506       18.488       12.429      380.466      341.808      154.492        0.440        0.044       89.030       11.935        0.018      333.861        3.453      862.939
11/09/2013  04:16:00     -100.584      -22.944       -5.484       31.517       20.857       14.578      993.352      435.031      212.532        0.616        0.082      103.167       15.149        0.022      333.933        3.572      862.947
11/09/2013  04:17:00     -119.003      -13.305       -9.754       28.932       15.847       15.801      837.086      251.133      249.662        0.789        0.067      119.745       12.996        0.012      333.867        3.461      862.953
11/09/2013  04:18:00     -103.346      -40.557        2.539       30.856       18.048       16.403      952.083      325.735      269.062        0.694        0.077      111.019       16.291        0.022      333.784        3.327      862.965
11/09/2013  04:19:00     -122.440      -44.936       -0.773       30.981       22.058       18.230      959.842      486.538      332.324        0.939        0.089      130.425       18.950        0.021      333.760        3.287      862.967
11/09/2013  04:20:00     -117.675       -9.448      -12.069       33.153       35.145       21.942     1099.140     1235.172      481.456        0.845        0.141      118.054       15.245        0.017      333.680        3.153      862.940
11/09/2013  04:21:00      -94.204       14.488      -17.417       41.228       34.778       22.199     1699.784     1209.490      492.798        0.639        0.170       95.311       17.311        0.033      333.880        3.486      862.919
11/09/2013  04:22:00      -65.806        5.316        0.237       31.000       28.212       20.594      960.972      795.891      424.095        0.327        0.109       66.021       17.336        0.069      333.855        3.444      862.912
11/09/2013  04:23:00      -74.944       -1.060      -10.077       36.336       32.379       18.380     1320.314     1048.395      337.837        0.421        0.135       74.952        7.654        0.010      333.878        3.482      862.933
11/09/2013  04:24:00       -1.699      -34.380        5.329       17.448       19.568       15.886      304.422      382.921      252.381        0.108        0.047       34.422       10.492        0.093      333.943        3.591      862.941
11/09/2013  04:25:00       13.328      -10.089      -14.911       12.175       24.421       17.610      148.223      596.384      310.114        0.078        0.053       16.715       15.616        0.873      334.004        3.691      862.933
11/09/2013  04:26:00       25.909       21.014       10.369       14.589       10.291       11.898      212.833      105.915      141.573        0.084        0.023       33.360       10.854        0.106      333.941        3.587      862.910
11/09/2013  04:27:00       15.985       15.672       -2.765       15.561        7.042        5.679      242.155       49.591       32.251        0.042        0.016       22.386        6.117        0.075      333.879        3.486      862.904
11/09/2013  04:28:00      -18.016      -20.425       -1.682       22.488       13.412        8.820      505.721      179.888       77.801        0.075        0.038       27.235        7.884        0.084      333.998        3.682      862.909
11/09/2013  04:29:00      -80.686      -20.985       -8.457       10.170       14.949       10.660      103.422      223.465      113.627        0.373        0.022       83.370        6.071        0.005      333.842        3.424      862.917
11/09/2013  04:30:00      -57.724      -34.282       -6.787       14.549       12.157       10.740      211.681      147.798      115.351        0.251        0.024       67.137        3.126        0.002      333.786        3.329      862.932
11/09/2013  04:31:00      -49.809      -16.702        1.027       19.943       11.545       11.805      397.721      133.294      139.357        0.172        0.034       52.534       12.602        0.058      333.762        3.289      862.936
11/09/2013  04:32:00      -43.206       -8.380       -5.935       10.475       10.100        8.886      109.731      102.009       78.958        0.113        0.015       44.011        7.679        0.030      333.817        3.381      862.932
11/09/2013  04:33:00      -49.552       -3.780       -8.308        8.261       12.006        7.124       68.242      144.150       50.756        0.140        0.013       49.696        5.122        0.011      333.880        3.485      862.933
11/09/2013  04:34:00      -75.653      -26.482      -12.572       16.787       16.326        6.297      281.793      266.527       39.658        0.359        0.029       80.154        5.472        0.005      333.797        3.347      862.933
11/09/2013  04:35:00     -104.628      -39.012      -10.593       10.122       12.944        8.441      102.452      167.546       71.243        0.646        0.017      111.664        4.696        0.002      333.732        3.240      862.945
11/09/2013  04:36:00     -112.038      -28.497      -13.680       17.024       14.743       12.200      289.816      217.343      148.844        0.710        0.033      115.605        5.372        0.002      333.563        2.960      862.967
11/09/2013  04:37:00      -82.303      -36.051       -7.052       15.808       12.506        9.964      249.884      156.400       99.280        0.431        0.025       89.853        9.007        0.010      333.612        3.041      862.974
11/09/2013  04:38:00      -71.237      -39.253       -3.243       11.496       10.559        7.057      132.155      111.485       49.802        0.346        0.015       81.336        5.028        0.004      333.743        3.257      862.973
11/09/2013  04:39:00      -64.154      -26.310        1.343       28.301       15.183       13.000      800.934      230.532      168.999        0.300        0.060       69.339       15.090        0.047      333.817        3.381      862.968
11/09/2013  04:40:00      -96.410      -44.786       -1.539       28.653       19.829       15.261      821.007      393.180      232.886        0.637        0.072      106.304       14.918        0.020      333.719        3.219      862.963
11/09/2013  04:41:00     -103.135      -62.660       -3.103       29.470       22.287       16.598      868.494      496.714      275.499        0.811        0.082      120.678       15.117        0.016      333.740        3.253      862.972
11/09/2013  04:42:00      -90.755      -19.446      -11.116       14.554       19.231       11.083      211.810      369.824      122.832        0.472        0.035       92.815        7.078        0.006      333.692        3.174      862.989
11/09/2013  04:43:00      -95.658       -8.391       -9.648       12.934        7.745        8.367      167.278       59.990       70.003        0.481        0.015       96.025        3.895        0.002      333.660        3.120      863.001
11/09/2013  04:44:00      -77.804       -1.801      -11.562       14.812        7.856        4.402      219.381       61.719       19.381        0.325        0.015       77.824        2.740        0.001      333.721        3.223      862.995
11/09/2013  04:45:00      -48.650      -16.440       -7.380       10.016        8.707        6.293      100.330       75.817       39.598        0.145        0.011       51.353        5.573        0.012      333.769        3.301      862.981
11/09/2013  04:46:00      -35.467       -8.806       -4.135       12.942       15.123        7.759      167.504      228.716       60.208        0.090        0.023       36.544        4.599        0.016      333.883        3.491      862.962
11/09/2013  04:47:00      -57.379      -25.150      -13.639       10.102       14.947        8.234      102.056      223.401       67.800        0.225        0.020       62.649        6.332        0.010      333.799        3.350      862.955
11/09/2013  04:48:00      -79.415      -45.992       -9.335       14.158       15.530       11.213      200.440      241.179      125.725        0.454        0.028       91.772        1.642        0.000      333.692        3.173      862.965
11/09/2013  04:49:00      -97.247      -42.414      -13.304       17.574       14.291       19.941      308.854      204.235      397.647        0.617        0.046      106.094       10.607        0.010      333.588        3.001      862.983
11/09/2013  04:50:00      -76.127      -36.145       -6.454       18.825       17.463       10.745      354.393      304.955      115.455        0.396        0.039       84.272        5.699        0.005      333.553        2.943      862.993
11/09/2013  04:51:00      -74.489      -23.520       -7.303       13.933       14.316       11.511      194.133      204.944      132.508        0.334        0.027       78.114        8.927        0.013      333.535        2.913      863.003
11/09/2013  04:52:00      -50.586      -14.838      -10.141       16.691       15.505        9.301      278.606      240.410       86.517        0.174        0.030       52.717        8.130        0.024      333.540        2.922      863.015
11/09/2013  04:53:00      -27.394      -11.577       -2.494        7.882       20.496        7.036       62.131      420.068       49.509        0.071        0.027       29.740        3.882        0.017      333.805        3.362      863.026
11/09/2013  04:54:00      -47.771      -39.055       -8.727       36.019       14.534        8.528     1297.334      211.239       72.734        0.273        0.079       61.704        7.521        0.015      333.840        3.419      863.043
11/09/2013  04:55:00      -87.799      -40.680      -15.655       15.016       13.805       14.601      225.473      190.584      213.192        0.512        0.031       96.765        7.569        0.006      333.658        3.118      863.079
11/09/2013  04:56:00      -99.271      -46.526      -22.117       17.537       10.492        9.661      307.555      110.082       93.330        0.651        0.026      109.633        6.140        0.003      333.564        2.960      863.100
11/09/2013  04:57:00     -112.329      -22.263      -15.172       31.649       17.914       15.115     1001.666      320.918      228.453        0.745        0.078      114.514       16.094        0.020      333.556        2.949      863.106
11/09/2013  04:58:00     -107.860      -18.843       -5.081       33.383       25.086       22.448     1114.445      629.312      503.903        0.713        0.112      109.493       20.024        0.033      333.534        2.911      863.120
11/09/2013  04:59:00      -76.866       -2.433        2.303       49.905       27.889       20.513     2490.469      777.821      420.780        0.480        0.184       76.904       23.285        0.092      333.552        2.940      863.133
11/09/2013  05:00:00     -109.636       12.255      -12.477       28.439       19.945       17.710      808.770      397.786      313.661        0.692        0.076      110.318       16.521        0.022      333.540        2.922      863.143
11/09/2013  05:01:00     -125.703        5.608      -21.395       12.272       13.916       10.202      150.599      193.641      104.079        0.837        0.022      125.828        4.544        0.001      333.592        3.008      863.137
11/09/2013  05:02:00     -111.818      -25.629      -15.103       20.727       16.311       12.194      429.623      266.065      148.689        0.712        0.042      114.718        8.027        0.005      333.739        3.252      863.126
11/09/2013  05:03:00      -28.437      -21.751        1.096       23.823       24.014       12.850      567.517      576.668      165.124        0.130        0.065       35.801       12.402        0.120      333.696        3.179      863.129
11/09/2013  05:04:00      -31.335      -24.638        1.245       22.620       15.419       13.701      511.674      237.748      187.713        0.126        0.047       39.861       11.425        0.082      333.701        3.189      863.133
11/09/2013  05:05:00      -49.998      -19.848       -1.841       20.046       20.815       14.016      401.830      433.244      196.444        0.196        0.052       53.794        9.430        0.031      333.755        3.279      863.139
11/09/2013  05:06:00      -68.223      -43.640       -4.837       21.397       23.076       13.772      457.822      532.514      189.681        0.388        0.059       80.987        9.858        0.015      333.725        3.227      863.131
11/09/2013  05:07:00     -100.446      -40.033       -6.966       23.755       22.218       11.922      564.303      493.637      142.126        0.647        0.060      108.130       12.133        0.013      333.696        3.178      863.133
11/09/2013  05:08:00      -63.468      -42.802        0.881       32.155       18.070       20.393     1033.972      326.543      415.854        0.382        0.089       76.552       22.368        0.085      333.585        2.995      863.141
11/09/2013  05:09:00      -96.415      -28.174      -12.559       16.361       14.600       11.871      267.682      213.170      140.923        0.543        0.031      100.448       11.202        0.012      333.565        2.961      863.132
11/09/2013  05:10:00     -115.224      -24.377       -4.495       32.404       20.574       13.629     1050.049      423.275      185.741        0.777        0.083      117.774       14.397        0.015      333.547        2.934      863.120
11/09/2013  05:11:00      -70.455      -30.555        0.348       23.311       17.521       13.609      543.401      306.975      185.192        0.347        0.052       76.795        4.969        0.004      333.533        2.909      863.116
11/09/2013  05:12:00      -40.803      -35.664        1.927       34.623       20.883       13.880     1198.736      436.088      192.668        0.238        0.091       54.192       12.122        0.050      333.551        2.939      863.134
11/09/2013  05:13:00      -30.668      -58.280       -5.909       40.904       26.561       21.029     1673.120      705.504      442.208        0.360        0.141       65.857       14.682        0.050      333.569        2.969      863.154
11/09/2013  05:14:00      -97.095      -54.042        0.299       39.733       21.509       20.123     1578.743      462.634      404.928        0.740        0.122      111.121       25.092        0.051      333.552        2.942      863.171
11/09/2013  05:15:00     -107.978      -25.896      -10.838       17.534       14.531        9.115      307.429      211.143       83.087        0.652        0.030      111.040        5.017        0.002      333.608        3.034      863.168
11/09/2013  05:16:00      -88.754       -3.884       -5.574       15.400       12.079       12.794      237.170      145.893      163.681        0.423        0.027       88.839        8.579        0.009      333.576        2.981      863.157
11/09/2013  05:17:00      -81.360      -39.705       -6.842       13.256       17.415       10.170      175.714      303.288      103.433        0.441        0.029       90.532        7.920        0.008      333.685        3.160      863.152
11/09/2013  05:18:00      -95.245      -18.748      -14.590       14.785       13.326        8.447      218.595      177.591       71.359        0.505        0.023       97.072        3.652        0.001      333.574        2.976      863.148
11/09/2013  05:19:00      -82.532      -13.404      -16.684       11.106       10.147        8.795      123.342      102.965       77.349        0.379        0.015       83.613        2.231        0.001      333.534        2.911      863.144
11/09/2013  05:20:00      -77.298      -48.809      -15.236       24.051       18.739       13.278      578.447      351.155      176.312        0.485        0.055       91.418        8.335        0.008      333.508        2.868      863.142
11/09/2013  05:21:00     -109.243      -55.312      -10.485       17.852       20.737       14.309      318.699      430.010      204.754        0.803        0.048      122.447       11.596        0.009      333.455        2.779      863.155
11/09/2013  05:22:00      -79.636      -49.638        9.942       43.490       28.639       22.374     1891.352      820.209      500.578        0.606        0.161       93.839       26.136        0.078      333.407        2.700      863.167
11/09/2013  05:23:00     -125.666      -69.476        0.463       49.104       31.942       23.993     2411.243     1020.278      575.648        1.231        0.200      143.593       17.749        0.015      333.633        3.075      863.169
11/09/2013  05:24:00     -106.410      -30.972       -3.043       27.018       26.902       15.747      729.955      723.725      247.967        0.700        0.085      110.826       15.627        0.020      333.717        3.215      863.146
11/09/2013  05:25:00      -93.311      -36.042       -5.655       13.881       12.315        9.228      192.682      151.668       85.148        0.523        0.021      100.030        5.084        0.003      333.671        3.139      863.133
11/09/2013  05:26:00      -79.379      -28.023       -9.620       16.699       17.225       13.075      278.856      296.714      170.961        0.396        0.037       84.180        7.362        0.008      333.672        3.139      863.118
11/09/2013  05:27:00      -78.447      -22.292       -9.787       15.464       14.594        9.133      239.141      212.980       83.411        0.364        0.027       81.552        6.785        0.007      333.599        3.018      863.100
11/09/2013  05:28:00      -79.695      -41.128       -9.127       16.453       11.377        8.693      270.699      129.429       75.574        0.430        0.024       89.682        5.999        0.004      333.663        3.126      863.093
11/09/2013  05:29:00     -110.310      -47.706      -10.878       10.714       15.430        7.962      114.783      238.080       63.401        0.749        0.021      120.184        5.248        0.002      333.617        3.049      863.105
11/09/2013  05:30:00     -120.509      -52.707       -2.233       19.551       15.690       10.399      382.249      246.163      108.143        0.902        0.037      131.531        9.602        0.005      333.563        2.959      863.122
11/09/2013  05:31:00     -117.462      -44.141       -5.480       19.860       21.195       15.058      394.417      449.227      226.731        0.842        0.054      125.482        8.620        0.005      333.550        2.938      863.139
11/09/2013  05:32:00     -109.379      -44.252      -10.412       19.566       23.974       15.826      382.811      574.750      250.448        0.762        0.060      117.992        9.983        0.007      333.572        2.975      863.130
11/09/2013  05:33:00      -75.524      -39.526       -7.356       23.379       15.442       12.709      546.576      238.449      161.507        0.413        0.047       85.242       11.747        0.019      333.629        3.068      863.119
11/09/2013  05:34:00      -91.234      -22.174       -6.266       20.738       19.430       13.521      430.055      377.512      182.817        0.492        0.050       93.890       13.273        0.020      333.550        2.936      863.106
11/09/2013  05:35:00     -108.646      -19.816      -10.078       14.263       19.072       14.019      203.423      363.752      196.541        0.653        0.038      110.439       10.573        0.009      333.634        3.077      863.106
11/09/2013  05:36:00      -93.640      -28.076       -5.242       17.249       10.379       10.118      297.543      107.715      102.376        0.505        0.025       97.759        8.227        0.007      333.582        2.991      863.115
11/09/2013  05:37:00     -119.719      -43.776       -8.893       14.576       10.533        5.967      212.473      110.936       35.609        0.834        0.018      127.472        3.104        0.001      333.592        3.007      863.127
11/09/2013  05:38:00     -119.706      -29.772       -5.890       16.261       11.457       12.194      264.434      131.266      148.689        0.790        0.027      123.352       10.080        0.007      333.513        2.875      863.145
11/09/2013  05:39:00     -119.796      -46.515        2.260       21.973       19.239       15.208      482.805      370.140      231.295        0.880        0.054      128.509       10.981        0.007      333.425        2.729      863.158
11/09/2013  05:40:00      -83.377      -57.523        3.661       49.813       30.484       22.628     2481.352      929.261      512.020        0.710        0.196      101.295       18.875        0.035      333.486        2.832      863.181
11/09/2013  05:41:00      -66.974      -38.053        7.548       43.284       33.635       21.329     1873.489     1131.336      454.941        0.472        0.173       77.030       21.478        0.078      333.438        2.752      863.191
11/09/2013  05:42:00      -91.732      -31.352        3.857       32.078       26.306       19.677     1028.996      691.982      387.176        0.576        0.105       96.942       17.470        0.032      333.532        2.907      863.181
11/09/2013  05:43:00      -87.938      -13.329      -10.937       26.268       24.100       15.998      690.012      580.790      255.947        0.478        0.076       88.942       16.829        0.036      333.505        2.863      863.164
11/09/2013  05:44:00      -91.305      -28.809      -17.097       12.425       20.975        8.031      154.376      439.943       64.498        0.506        0.033       95.742        2.554        0.001      333.579        2.987      863.162
11/09/2013  05:45:00     -107.332      -45.234       -8.747       26.434       15.332        9.946      698.752      235.084       98.924        0.734        0.052      116.475       12.100        0.011      333.540        2.921      863.169
11/09/2013  05:46:00     -138.779      -66.338       -5.431       21.507       25.069       13.320      462.555      628.463      177.424        1.248        0.063      153.819       11.739        0.006      333.488        2.834      863.188
11/09/2013  05:47:00     -151.986      -59.191      -11.160       18.037       18.977       13.647      325.327      360.126      186.239        1.380        0.044      163.105       10.571        0.004      333.400        2.688      863.191
11/09/2013  05:48:00     -139.207      -60.390       -0.082       23.180       30.407       20.898      537.296      924.602      436.718        1.246        0.095      151.741       13.895        0.008      333.312        2.545      863.170
11/09/2013  05:49:00     -144.570      -28.627      -11.292       31.731       27.345       18.372     1006.880      747.729      337.532        1.197        0.105      147.377       15.272        0.011      333.248        2.439      863.144
11/09/2013  05:50:00     -103.327      -13.622       -1.906       46.579       33.933       22.408     2169.597     1151.468      502.108        0.734        0.191      104.221       21.551        0.043      333.291        2.508      863.138
11/09/2013  05:51:00      -95.907      -14.768       -3.550       43.848       25.627       18.099     1922.656      656.765      327.574        0.617        0.145       97.038       19.537        0.041      333.197        2.353      863.146
11/09/2013  05:52:00      -85.339      -22.258       -1.508       28.521       34.904       21.943      813.463     1218.271      481.490        0.515        0.126       88.194       17.052        0.037      333.194        2.348      863.170
11/09/2013  05:53:00      -58.332      -51.770        4.967       33.002       24.387       19.331     1089.106      594.702      373.694        0.408        0.103       77.992       17.027        0.048      333.238        2.421      863.194
11/09/2013  05:54:00      -54.275      -21.470        0.620       26.906       35.081       18.847      723.956     1230.702      355.192        0.286        0.115       58.368       20.523        0.124      333.238        2.422      863.208
11/09/2013  05:55:00      -58.723      -14.757       -3.815       25.534       27.473       11.791      651.982      754.774      139.020        0.261        0.077       60.549        9.768        0.026      333.274        2.480      863.199
11/09/2013  05:56:00      -83.043       -8.555       -5.564       25.532       23.882       12.349      651.876      570.327      152.509        0.419        0.069       83.483       10.604        0.016      333.304        2.530      863.201
11/09/2013  05:57:00     -107.067      -43.569       -8.431       12.996        9.228        8.787      168.886       85.158       77.219        0.688        0.017      115.592        6.947        0.004      333.300        2.524      863.219
11/09/2013  05:58:00      -91.061      -24.424      -10.810       12.744       20.099       12.709      162.403      403.987      161.520        0.487        0.036       94.280        7.483        0.006      333.289        2.506      863.227
11/09/2013  05:59:00      -52.439       -7.853       -9.672       15.441       14.424       12.228      238.434      208.056      149.516        0.175        0.030       53.023        8.293        0.024      333.290        2.508      863.219
11/09/2013  06:00:00      -88.236      -26.858       -6.854       22.112       28.900       17.110      488.928      835.203      292.753        0.509        0.081       92.233       14.599        0.025      333.307        2.537      863.224
11/09/2013  06:01:00      -58.444      -49.682       -3.518       37.993       25.339       16.918     1443.486      642.053      286.213        0.413        0.119       76.707       15.514        0.041      333.267        2.468      863.246
11/09/2013  06:02:00      -85.571      -37.842       -0.146       38.586       29.201       24.766     1488.884      852.687      613.342        0.585        0.148       93.565       12.074        0.017      333.231        2.410      863.275
11/09/2013  06:03:00      -84.417       -4.286       -7.599       34.028       16.595       15.355     1157.912      275.378      235.773        0.444        0.083       84.526        9.652        0.013      333.143        2.264      863.284
11/09/2013  06:04:00      -14.079      -33.472        6.761       15.442       18.151       15.399      238.452      329.443      237.120        0.108        0.040       36.312       10.892        0.090      333.264        2.465      863.283
11/09/2013  06:05:00      -32.975      -32.836        5.615       20.166       15.777       16.419      406.658      248.929      269.587        0.156        0.046       46.535       11.801        0.064      333.359        2.621      863.284
11/09/2013  06:06:00      -71.216      -14.903       -9.572       11.138       12.705       10.698      124.049      161.410      114.442        0.289        0.020       72.758        6.951        0.009      333.318        2.555      863.276
11/09/2013  06:07:00      -97.018      -14.490      -10.794       20.436       16.773       11.414      417.649      281.343      130.291        0.528        0.041       98.094        8.041        0.007      333.294        2.514      863.285
11/09/2013  06:08:00      -91.126      -39.327      -13.675       16.036        9.470       11.193      257.156       89.675      125.274        0.525        0.024       99.250        6.788        0.005      333.250        2.443      863.288
11/09/2013  06:09:00      -64.949      -26.364       -9.733       19.186       13.861       10.770      368.119      192.124      115.994        0.284        0.034       70.095       11.423        0.027      333.264        2.463      863.284
11/09/2013  06:10:00      -72.892      -26.126       -4.998       17.002       17.149        7.169      289.071      294.095       51.394        0.333        0.032       77.433        7.166        0.009      333.289        2.506      863.282
11/09/2013  06:11:00      -79.190      -10.572       -3.970       17.162       12.332        8.147      294.524      152.084       66.379        0.346        0.026       79.893        4.416        0.003      333.343        2.596      863.297
11/09/2013  06:12:00      -89.787       -1.013       -8.666        7.495        8.158        9.151       56.174       66.552       83.741        0.417        0.010       89.792        4.913        0.003      333.413        2.711      863.303
11/09/2013  06:13:00      -62.713       12.576       -7.704       17.184       10.322        7.871      295.298      106.540       61.946        0.231        0.023       63.961        7.330        0.013      333.470        2.806      863.305
11/09/2013  06:14:00      -41.673       -6.420       -6.378       11.229       10.160        6.857      126.092      103.228       47.013        0.105        0.014       42.165        3.660        0.008      333.487        2.834      863.321
11/09/2013  06:15:00      -47.860      -18.371       -6.527        9.296       13.149        7.745       86.410      172.886       59.984        0.149        0.016       51.265        5.896        0.013      333.502        2.858      863.338
11/09/2013  06:16:00      -77.061        3.204       -6.323       22.976       13.108       10.389      527.916      171.831      107.925        0.340        0.040       77.127       10.839        0.020      333.401        2.691      863.348
11/09/2013  06:17:00      -59.539        0.645      -11.188       17.337       13.039        8.986      300.561      170.025       80.753        0.211        0.028       59.542        5.517        0.009      333.356        2.617      863.364
11/09/2013  06:18:00      -37.693       -3.375       -7.019        7.692        8.582        6.854       59.163       73.647       46.980        0.083        0.009       37.844        4.387        0.013      333.345        2.599      863.374
11/09/2013  06:19:00      -31.034       -9.805       -4.765        6.000        7.456        4.243       36.003       55.595       18.001        0.060        0.005       32.546        2.965        0.008      333.317        2.551      863.380
11/09/2013  06:20:00      -28.864       -6.593       -8.582        9.337        8.030        6.725       87.176       64.483       45.226        0.057        0.010       29.608        6.994        0.056      333.398        2.687      863.386
11/09/2013  06:21:00        0.977        6.542        1.626        9.146       11.818        6.805       83.645      139.663       46.303        0.016        0.013        6.615        6.282        0.902      333.633        3.078      863.386
11/09/2013  06:22:00       15.649        9.205        3.486        8.854       13.816        9.782       78.394      190.891       95.684        0.035        0.018       18.155        8.588        0.224      333.621        3.055      863.379
11/09/2013  06:23:00       13.726       74.484      -14.195       16.719       23.321       11.174      279.515      543.877      124.857        0.344        0.047       75.738       12.251        0.026      333.612        3.040      863.378
11/09/2013  06:24:00        3.533       88.218      -14.585       13.611       11.210        9.208      185.253      125.673       84.795        0.420        0.020       88.289        6.647        0.006      333.705        3.194      863.379
11/09/2013  06:25:00       -9.092       14.510       -2.743       20.989       31.798       10.883      440.535     1011.097      118.436        0.094        0.079       17.123        9.646        0.317      333.603        3.026      863.381
11/09/2013  06:26:00      -39.236      -12.590       -6.703        9.878       11.266       12.251       97.577      126.932      150.085        0.106        0.019       41.206        4.341        0.011      333.399        2.689      863.386
11/09/2013  06:27:00      -52.001      -16.791       -8.254       13.387       10.102       10.451      179.212      102.053      109.234        0.172        0.020       54.645        7.886        0.021      333.293        2.513      863.388
11/09/2013  06:28:00      -56.668       -5.161      -10.160        8.526        8.615        9.135       72.692       74.221       83.454        0.179        0.012       56.902        6.003        0.011      333.208        2.370      863.382
11/09/2013  06:29:00      -55.363        3.002      -11.920        7.540        8.598        7.590       56.848       73.922       57.610        0.170        0.009       55.445        4.317        0.006      333.129        2.242      863.383
11/09/2013  06:30:00      -60.296       -1.536       -6.714        8.403        7.919        6.831       70.610       62.718       46.663        0.193        0.009       60.315        4.235        0.005      333.198        2.354      863.379
11/09/2013  06:31:00      -76.217      -16.465       -8.927        7.709        9.578        7.345       59.430       91.747       53.952        0.318        0.010       77.975        2.840        0.001      333.147        2.269      863.379
11/09/2013  06:32:00      -83.415      -36.926      -10.335        8.609        7.514        5.840       74.117       56.463       34.106        0.430        0.008       91.223        4.278        0.002      333.179        2.321      863.381
11/09/2013  06:33:00      -80.627      -50.645       -8.028       13.083       12.801        8.629      171.164      163.861       74.457        0.477        0.020       95.214        7.370        0.006      333.172        2.312      863.389
11/09/2013  06:34:00      -78.437      -24.327       -8.844       12.342       11.578        8.391      152.314      134.059       70.414        0.359        0.018       82.123        6.034        0.005      333.162        2.295      863.389
11/09/2013  06:35:00      -76.412      -11.177      -11.520       10.091       10.950        7.694      101.829      119.893       59.201        0.319        0.014       77.225        2.944        0.001      333.230        2.408      863.380
11/09/2013  06:36:00      -81.277       -4.084       -9.415        9.953       11.525        7.147       99.069      132.829       51.086        0.350        0.014       81.380        4.010        0.002      333.187        2.336      863.373
11/09/2013  06:37:00      -86.464       -9.978      -10.923       11.271        7.593        7.449      127.031       57.655       55.493        0.397        0.012       87.038        3.673        0.002      333.190        2.341      863.373
11/09/2013  06:38:00      -86.750      -16.135       -6.108       23.324       15.669       13.693      543.987      245.521      187.495        0.440        0.049       88.237       11.185        0.016      333.168        2.306      863.378
11/09/2013  06:39:00     -133.344       -4.762      -15.664       14.512        9.964        8.544      210.595       99.288       72.997        0.922        0.019      133.429        7.581        0.003      333.157        2.287      863.387
11/09/2013  06:40:00     -125.593       -8.155      -17.483       16.522       10.313       11.734      272.982      106.359      137.679        0.833        0.026      125.858        8.999        0.005      333.034        2.084      863.403
11/09/2013  06:41:00     -155.132      -22.456      -15.275       14.878       11.700       12.899      221.341      136.897      166.384        1.266        0.026      156.748        2.519        0.000      333.008        2.042      863.428
11/09/2013  06:42:00     -134.834      -38.760      -14.521       17.084       17.834       11.016      291.871      318.034      121.357        1.031        0.037      140.294        9.437        0.005      332.935        1.921      863.463
11/09/2013  06:43:00     -100.246      -23.112       -9.030       30.897       22.079       15.978      954.635      487.504      255.307        0.618        0.085      102.876       16.832        0.027      332.930        1.913      863.456
11/09/2013  06:44:00      -98.785       -4.787      -13.752       12.212       11.315        9.118      149.138      128.025       83.139        0.517        0.018       98.901        5.211        0.003      332.984        2.001      863.438
11/09/2013  06:45:00      -82.314      -15.122      -10.538       13.740       14.035       10.748      188.790      196.981      115.513        0.381        0.025       83.692        8.647        0.011      333.107        2.206      863.431
11/09/2013  06:46:00      -85.645      -24.656       -8.773       14.483       10.940        7.851      209.756      119.685       61.637        0.421        0.020       89.124        6.309        0.005      333.279        2.489      863.440
11/09/2013  06:47:00      -95.370      -54.590      -10.275       11.646       10.526       10.221      135.628      110.790      104.460        0.627        0.018      109.889        2.991        0.001      333.200        2.358      863.455
11/09/2013  06:48:00     -101.160      -40.994      -13.743        9.469        8.715        6.288       89.654       75.953       39.534        0.615        0.010      109.151        4.791        0.002      333.109        2.211      863.462
11/09/2013  06:49:00      -83.121       -5.916      -10.801       13.257       14.399        9.397      175.749      207.324       88.305        0.377        0.024       83.332        6.460        0.006      333.169        2.307      863.466
11/09/2013  06:50:00      -56.259       -1.376      -10.261       16.079       13.201        8.710      258.538      174.269       75.865        0.189        0.025       56.276        8.474        0.023      333.187        2.337      863.465
11/09/2013  06:51:00      -43.546        9.633       -0.903       17.561       13.164        9.172      308.403      173.303       84.131        0.128        0.028       44.598        4.829        0.012      333.324        2.563      863.458
11/09/2013  06:52:00      -56.017      -16.161      -11.187       12.893       21.601        9.151      166.236      466.622       83.748        0.212        0.036       58.302        8.913        0.023      333.289        2.504      863.466
11/09/2013  06:53:00      -66.162      -23.996      -10.524       14.583       17.048       10.559      212.657      290.650      111.485        0.284        0.031       70.379        6.727        0.009      333.167        2.302      863.476
11/09/2013  06:54:00      -92.124      -21.955      -13.381       25.781       27.026       15.088      664.636      730.413      227.651        0.539        0.081       94.704        8.239        0.008      333.176        2.319      863.495
11/09/2013  06:55:00     -101.797      -43.793      -11.600       21.299       26.054       14.615      453.656      678.793      213.591        0.688        0.067      110.817       12.053        0.012      333.066        2.138      863.506
11/09/2013  06:56:00      -87.209      -27.387      -21.010       30.073       18.599       12.782      904.403      345.921      163.381        0.511        0.071       91.408        8.062        0.008      333.075        2.153      863.511
11/09/2013  06:57:00     -102.029      -17.576      -10.420       29.631       17.963       13.358      878.023      322.677      178.434        0.610        0.069      103.531       10.409        0.010      333.028        2.073      863.514
11/09/2013  06:58:00      -73.307      -11.806       -7.293       24.267       18.808       15.519      588.894      353.722      240.848        0.337        0.059       74.252       12.785        0.030      333.040        2.095      863.517
11/09/2013  06:59:00      -64.579      -16.567      -10.842       17.768       17.117       10.008      315.687      293.004      100.154        0.264        0.035       66.670        6.926        0.011      333.120        2.226      863.529
11/09/2013  07:00:00      -62.789      -22.102      -14.283       18.202       15.479       10.044      331.315      239.603      100.888        0.265        0.034       66.566       10.058        0.023      333.189        2.341      863.543
11/09/2013  07:01:00      -53.024      -26.277      -12.843       16.544       18.057        8.858      273.717      326.055       78.465        0.217        0.034       59.178        7.874        0.018      333.237        2.420      863.566
11/09/2013  07:02:00      -79.548       -8.225      -10.864        7.751       12.002        6.700       60.079      144.045       44.885        0.338        0.012       79.972        6.494        0.007      333.333        2.579      863.577
11/09/2013  07:03:00      -56.925      -10.928       -8.836        9.675       10.921        6.538       93.596      119.269       42.745        0.185        0.013       57.964        1.247        0.000      333.387        2.669      863.570
11/09/2013  07:04:00      -45.709      -20.345       -3.288        9.455        8.304        6.434       89.402       68.964       41.393        0.136        0.010       50.032        2.902        0.003      333.437        2.750      863.559
11/09/2013  07:05:00      -42.966      -21.910       -3.540        8.917        9.824        6.428       79.507       96.518       41.315        0.128        0.011       48.230        3.548        0.005      333.476        2.813      863.567
11/09/2013  07:06:00      -30.039      -20.735       -2.885       12.761        9.892        7.954      162.847       97.848       63.262        0.083        0.016       36.500        4.066        0.012      333.512        2.875      863.587
11/09/2013  07:07:00      -51.947      -14.575       -3.032       12.540        9.978        8.550      157.249       99.557       73.103        0.162        0.016       53.952        8.039        0.022      333.551        2.941      863.598
11/09/2013  07:08:00      -43.887      -20.406       -7.757        7.427       12.650        6.519       55.167      160.020       42.502        0.133        0.013       48.399        4.809        0.010      333.703        3.190      863.580
11/09/2013  07:09:00      -45.488       -5.230       -5.491        5.872        6.940        6.299       34.482       48.170       39.680        0.112        0.006       45.788        2.379        0.003      333.644        3.095      863.573
11/09/2013  07:10:00      -51.330      -35.595       -4.083        8.564       12.735        7.488       73.347      162.169       56.070        0.210        0.015       62.464        5.060        0.007      333.688        3.167      863.572
11/09/2013  07:11:00      -37.983      -27.907       -1.275       16.144       13.970       10.842      260.636      195.156      117.552        0.140        0.029       47.133       10.402        0.049      333.782        3.322      863.572
11/09/2013  07:12:00      -20.309       -6.652        1.221       14.700       12.574        8.486      216.083      158.111       72.016        0.045        0.022       21.371        8.751        0.168      333.803        3.357      863.585
11/09/2013  07:13:00      -25.597        2.857       -4.890        8.369        5.555        5.403       70.048       30.857       29.192        0.041        0.007       25.756        4.344        0.028      333.709        3.202      863.602
11/09/2013  07:14:00      -33.399       -5.373       -6.675        5.651       10.646        5.679       31.937      113.343       32.256        0.068        0.009       33.828        5.515        0.027      333.699        3.184      863.608
11/09/2013  07:15:00      -25.933       -3.890        0.012       17.319        5.062        5.009      299.938       25.625       25.092        0.052        0.018       26.223        4.648        0.031      333.867        3.465      863.634
11/09/2013  07:16:00      -28.492      -20.597        5.758       27.614       15.631       12.489      762.536      244.328      155.970        0.122        0.058       35.158       14.014        0.159      333.686        3.163      863.647
11/09/2013  07:17:00      -22.859        4.640       16.516       15.784       16.395       16.746      249.121      268.803      280.426        0.081        0.040       23.325       12.581        0.291      333.794        3.342      863.662
11/09/2013  07:18:00       -7.583      -21.347        7.117       13.626       21.998       15.083      185.663      483.910      227.498        0.073        0.045       22.654       12.309        0.295      333.987        3.663      863.672
11/09/2013  07:19:00      -15.175        9.213        5.469       15.041       14.640       13.482      226.225      214.330      181.773        0.048        0.031       17.752       11.780        0.440      334.020        3.717      863.682
11/09/2013  07:20:00      -13.751       10.767        9.670       14.574       14.547       13.560      212.408      211.626      183.887        0.050        0.030       17.465        9.162        0.275      334.015        3.711      863.676
11/09/2013  07:21:00      -27.602       -4.979        3.179       29.516       16.297       11.888      871.188      265.592      141.316        0.104        0.064       28.047        7.110        0.064      333.844        3.425      863.684
11/09/2013  07:22:00      -15.404       10.875        5.160       18.000       14.476       13.504      323.990      209.555      182.355        0.055        0.036       18.856       10.632        0.318      334.031        3.735      863.684
11/09/2013  07:23:00       -1.864       -4.659        5.090       13.184        9.027       12.849      173.829       81.494      165.084        0.024        0.021        5.018        6.759        1.814      334.161        3.952      863.674
11/09/2013  07:24:00      -29.695      -20.720        1.800       34.516       28.952       16.526     1191.371      838.221      273.124        0.181        0.115       36.209        8.237        0.052      334.003        3.690      863.680
11/09/2013  07:25:00       -4.009      -12.773       14.495       24.920       24.677       17.340      621.021      608.939      300.672        0.096        0.077       13.387       14.505        1.174      334.159        3.947      863.693
11/09/2013  07:26:00      -41.682      -31.558        8.525       47.993       35.975       19.391     2303.338     1294.185      376.022        0.339        0.199       52.281       18.748        0.129      333.951        3.604      863.704
11/09/2013  07:27:00      -46.096      -22.356        2.757       28.749       20.654       14.624      826.495      426.601      213.855        0.205        0.073       51.231       10.157        0.039      333.880        3.486      863.702
11/09/2013  07:28:00        3.428       -0.144       10.357       14.346       15.536       14.666      205.808      241.365      215.096        0.039        0.033        3.431       12.144       12.526      334.253        4.104      863.720
11/09/2013  07:29:00      -49.946      -39.472       -2.906       36.171       25.768       17.993     1308.345      664.013      323.743        0.318        0.115       63.661       10.180        0.026      333.942        3.589      863.751
11/09/2013  07:30:00     -103.507      -85.807       -1.026       35.136       33.872       23.232     1234.529     1147.299      539.705        1.050        0.146      134.449       18.036        0.018      333.824        3.391      863.781
11/09/2013  07:31:00      -72.402      -79.048        6.063       43.927       29.076       23.290     1929.588      845.390      542.418        0.742        0.166      107.194       23.769        0.049      333.862        3.455      863.794
11/09/2013  07:32:00      -82.056      -82.774        0.088       32.016       26.711       22.130     1025.044      713.478      489.755        0.791        0.111      116.554       19.566        0.028      333.831        3.404      863.801
11/09/2013  07:33:00      -80.233      -78.565       -1.607       35.056       26.601       20.992     1228.902      707.598      440.684        0.749        0.119      112.293       19.987        0.032      333.839        3.417      863.814
11/09/2013  07:34:00      -79.080      -60.504        4.578       39.205       38.639       16.907     1537.012     1492.945      285.846        0.663        0.166       99.571       17.979        0.033      333.866        3.461      863.814
11/09/2013  07:35:00      -86.314      -25.298       -3.918       18.680       18.262       12.612      348.956      333.504      159.067        0.447        0.042       89.944       10.344        0.013      333.892        3.506      863.811
11/09/2013  07:36:00      -73.872      -24.483       -8.717       15.535       14.732       12.310      241.343      217.019      151.539        0.337        0.030       77.824        7.129        0.008      333.898        3.516      863.816
11/09/2013  07:37:00      -64.696      -27.755       -3.128       11.525       12.013        7.814      132.832      144.318       61.053        0.265        0.017       70.398        6.011        0.007      333.911        3.538      863.838
11/09/2013  07:38:00      -64.065      -19.396       -4.201       23.626       13.340       11.089      558.167      177.956      122.968        0.268        0.043       66.937       12.419        0.034      333.975        3.644      863.853
11/09/2013  07:39:00      -48.759      -60.555       -1.630       22.512       20.533       14.332      506.776      421.584      205.399        0.359        0.057       77.745       12.950        0.028      333.950        3.601      863.853
11/09/2013  07:40:00      -32.173      -42.423        4.147       27.010       30.763       16.645      729.517      946.362      277.041        0.240        0.098       53.243       15.850        0.089      334.051        3.769      863.858
11/09/2013  07:41:00      -64.586      -49.008       -2.540       20.851       19.591       11.148      434.762      383.827      124.282        0.376        0.047       81.075       10.353        0.016      334.029        3.732      863.847
11/09/2013  07:42:00      -76.879      -20.649       -6.535       18.616       18.039       11.434      346.540      325.388      130.728        0.359        0.040       79.604        9.559        0.014      334.054        3.774      863.841
11/09/2013  07:43:00      -37.511      -27.372       -2.468       13.495       23.526       11.738      182.105      553.453      137.784        0.152        0.044       46.436        9.963        0.046      334.072        3.804      863.842
11/09/2013  07:44:00      -13.325      -16.529        1.865        9.765       11.489        9.209       95.356      131.990       84.800        0.038        0.016       21.232        7.902        0.139      334.170        3.967      863.852
11/09/2013  07:45:00      -20.149      -14.733        0.445       11.208       10.890        4.758      125.618      118.600       22.634        0.044        0.013       24.960        5.396        0.047      334.223        4.054      863.863
11/09/2013  07:46:00      -36.394      -16.315       -6.076        8.108        6.431        7.564       65.739       41.353       57.220        0.090        0.008       39.884        3.860        0.009      334.231        4.068      863.866
11/09/2013  07:47:00      -36.742      -33.196       -9.841       12.561       14.995        9.288      157.778      224.845       86.267        0.151        0.023       49.517        4.491        0.008      334.219        4.049      863.877
11/09/2013  07:48:00      -19.336      -16.557      -10.060        6.944        9.727        9.368       48.217       94.612       87.764        0.049        0.012       25.457        7.256        0.081      334.321        4.218      863.892
11/09/2013  07:49:00      -22.546       -0.720       -0.493       11.919        5.239        6.429      142.055       27.452       41.326        0.036        0.011       22.557        4.142        0.034      334.337        4.245      863.885
11/09/2013  07:50:00       -2.612       15.085        8.077       12.597       18.505       11.624      158.676      342.453      135.126        0.047        0.032       15.310       11.296        0.544      334.699        4.843      863.869
11/09/2013  07:51:00       -1.597       18.671       44.833       17.323       21.853       15.834      300.080      477.549      250.730        0.169        0.051       18.740       15.079        0.647      335.000        5.343      863.855
11/09/2013  07:52:00       21.760        9.434       18.388       20.364       19.248       15.882      414.709      370.482      252.252        0.097        0.052       23.717       13.784        0.338      334.717        4.874      863.855
11/09/2013  07:53:00       -1.647       16.254        9.670        7.254       12.163        9.156       52.622      147.927       83.832        0.032        0.014       16.337        4.978        0.093      334.859        5.110      863.853
11/09/2013  07:54:00      -10.454       41.147      -11.524       12.141       12.347       12.165      147.406      152.455      147.990        0.119        0.022       42.454        4.514        0.011      334.536        4.573      863.864
11/09/2013  07:55:00      -11.875       35.150        8.378        9.963       29.637       14.099       99.253      878.358      198.791        0.131        0.059       37.102        8.176        0.049      334.777        4.973      863.870
11/09/2013  07:56:00      -34.353        2.217        1.441       19.748       12.543       11.366      389.981      157.320      129.194        0.093        0.034       34.425       11.093        0.104      334.655        4.770      863.880
11/09/2013  07:57:00      -42.620      -12.705       -6.308       16.572       15.582        7.509      274.643      242.812       56.380        0.130        0.029       44.474        5.390        0.015      334.503        4.519      863.890
11/09/2013  07:58:00      -52.983      -27.112       -7.524       16.047       11.263        8.886      257.509      126.858       78.964        0.203        0.023       59.517        8.442        0.020      334.517        4.542      863.895
11/09/2013  07:59:00      -22.204      -34.899        4.585       16.117       17.564       13.160      259.770      308.484      173.178        0.124        0.037       41.364        5.905        0.020      334.563        4.619      863.898
11/09/2013  08:00:00      -15.797      -11.204       -2.658        5.252        9.178        4.874       27.586       84.243       23.752        0.026        0.007       19.367        5.712        0.087      334.638        4.743      863.890
11/09/2013  08:01:00      -23.416       -3.716       -2.746       10.902        6.492        4.009      118.853       42.146       16.073        0.037        0.009       23.709        2.706        0.013      334.626        4.722      863.876
11/09/2013  08:02:00      -43.960       -3.924       -5.787        9.271        9.331        6.562       85.959       87.059       43.065        0.110        0.011       44.134        3.389        0.006      334.611        4.697      863.869
11/09/2013  08:03:00      -40.720        2.793       -6.016        7.243       13.247        8.236       52.455      175.489       67.831        0.100        0.015       40.816        3.031        0.006      334.677        4.807      863.867
11/09/2013  08:04:00      -31.228       -5.047       -6.360       11.677       14.380        6.968      136.359      206.792       48.546        0.072        0.020       31.634        5.282        0.028      334.738        4.910      863.876
11/09/2013  08:05:00      -67.144      -25.636       -6.495       17.065        9.626       10.557      291.200       92.658      111.454        0.285        0.025       71.872        6.338        0.008      334.692        4.833      863.893
11/09/2013  08:06:00      -11.712      -11.823        8.877       17.294       12.578       12.405      299.081      158.206      153.877        0.048        0.031       16.642        9.692        0.339      335.019        5.377      863.914
11/09/2013  08:07:00      -16.192      -34.809        6.712       18.016       35.881       14.139      324.582     1287.423      199.904        0.167        0.091       38.391       20.395        0.282      335.103        5.516      863.918
11/09/2013  08:08:00      -32.124      -69.970       -5.830       14.800       14.646       14.896      219.028      214.507      221.881        0.331        0.033       76.992        9.805        0.016      334.745        4.919      863.911
11/09/2013  08:09:00      -21.747      -48.184       -2.565       12.998       12.747       10.661      168.955      162.489      113.649        0.162        0.022       52.865        7.560        0.020      334.814        5.036      863.908
11/09/2013  08:10:00      -26.927      -28.725       -3.054        8.479        9.054        9.728       71.898       81.967       94.636        0.090        0.012       39.372        4.515        0.013      334.887        5.156      863.902
11/09/2013  08:11:00      -31.464      -12.641       -6.186        5.975       13.116        7.956       35.695      172.029       63.301        0.073        0.014       33.909        1.198        0.001      334.899        5.178      863.896
11/09/2013  08:12:00      -11.903        2.140       -1.074        6.962        8.071        4.897       48.464       65.148       23.981        0.014        0.007       12.093        4.512        0.139      335.224        5.716      863.893
11/09/2013  08:13:00       -8.063       -2.344        7.259        7.983        6.526        9.797       63.736       42.583       95.986        0.016        0.010        8.397        6.299        0.563      335.516        6.203      863.912
11/09/2013  08:14:00      -11.000       -1.541        2.013       10.765       14.471        8.379      115.892      209.403       70.207        0.026        0.020       11.107        7.090        0.407      335.272        5.795      863.929
11/09/2013  08:15:00      -12.432       -8.512        5.424       11.404       11.010       12.467      130.046      121.223      155.427        0.033        0.020       15.067        8.794        0.341      335.565        6.283      863.946
11/09/2013  08:16:00      -14.209      -24.693        5.934       16.298       17.690       13.097      265.637      312.919      171.527        0.080        0.038       28.489        7.697        0.073      335.276        5.802      863.944
11/09/2013  08:17:00      -27.670      -18.245        3.350       12.254       15.184        8.291      150.154      230.543       68.733        0.078        0.022       33.144        6.297        0.036      335.202        5.679      863.936
11/09/2013  08:18:00       -7.214        8.189       21.819       11.641       18.090       15.020      135.523      327.260      225.608        0.064        0.034       10.913        9.642        0.781      335.761        6.610      863.937
11/09/2013  08:19:00       -9.650       12.762       47.279       12.170       22.663       15.467      148.098      513.633      239.227        0.170        0.045       16.000       16.167        1.021      335.863        6.780      863.948
11/09/2013  08:20:00       -5.151       13.691       38.711       11.169       22.023       19.151      124.737      485.001      366.770        0.134        0.049       14.628       16.858        1.328      336.014        7.033      863.958
11/09/2013  08:21:00       47.019       52.018       40.779       38.545       25.442       26.184     1485.752      647.279      685.581        0.470        0.141       70.119       25.453        0.132      335.507        6.187      863.953
11/09/2013  08:22:00       51.025        9.204       10.730       40.171       23.830       20.311     1613.722      567.863      412.540        0.270        0.130       51.849       21.938        0.179      335.576        6.302      863.938
11/09/2013  08:23:00       41.280       35.547       10.936       29.799       20.029       25.796      887.973      401.171      665.432        0.252        0.098       54.476       15.485        0.081      335.607        6.354      863.940
11/09/2013  08:24:00       -0.565        9.630        2.500       20.394       20.553       15.982      415.935      422.420      255.429        0.060        0.055        9.646        9.075        0.885      335.877        6.804      863.942
11/09/2013  08:25:00       15.657       22.464        8.317       18.475       20.493       17.264      341.338      419.951      298.045        0.094        0.053       27.382       12.865        0.221      335.954        6.933      863.939
11/09/2013  08:26:00       16.551       32.709       34.133       34.782       23.221       23.976     1209.765      539.224      574.831        0.242        0.116       36.658       20.590        0.315      335.925        6.883      863.925
11/09/2013  08:27:00       13.630       38.366       22.314       29.131       35.415       27.707      848.618     1254.256      767.678        0.251        0.144       40.716       20.258        0.248      335.918        6.873      863.906
11/09/2013  08:28:00       74.517       34.788       24.881       50.100       34.624       37.877     2510.031     1198.793     1434.641        0.626        0.257       82.238       31.846        0.150      335.791        6.660      863.903
11/09/2013  08:29:00       69.384       49.549       14.071       45.366       38.751       25.537     2058.031     1501.613      652.129        0.584        0.211       85.259        8.714        0.010      335.745        6.583      863.906
11/09/2013  08:30:00       78.055       52.845        1.623       21.574       20.169       22.934      465.431      406.778      525.950        0.514        0.070       94.261        9.105        0.009      335.589        6.322      863.904
11/09/2013  08:31:00       36.654       44.612       -2.803       29.627       29.881       23.715      877.743      892.867      562.411        0.284        0.117       57.738        8.655        0.022      335.937        6.903      863.904
11/09/2013  08:32:00       33.574       32.972        1.136       29.849       26.508       26.345      890.955      702.699      694.067        0.225        0.114       47.057       18.616        0.157      335.908        6.856      863.909
11/09/2013  08:33:00       69.621       59.502        0.011       28.721       21.620       20.998      824.898      467.415      440.928        0.506        0.087       91.584       13.749        0.023      335.578        6.304      863.924
11/09/2013  08:34:00       53.406       53.078       -8.095       21.906       22.077       23.158      479.868      487.396      536.292        0.362        0.075       75.296       10.845        0.021      335.545        6.249      863.929
11/09/2013  08:35:00       30.688       45.202       17.802       25.772       34.591       29.852      664.174     1196.529      891.121        0.303        0.138       54.635       25.930        0.225      335.871        6.794      863.931
11/09/2013  08:36:00       24.905       26.090       12.592       25.479       31.378       23.052      649.170      984.584      531.377        0.181        0.108       36.069       20.962        0.338      336.188        7.322      863.935
11/09/2013  08:37:00        4.797       64.962        7.236       34.713       48.923       25.644     1204.993     2393.507      657.620        0.428        0.213       65.139       26.376        0.164      336.172        7.295      863.931
11/09/2013  08:38:00      -11.338       80.274       -0.019       23.179       28.800       20.672      537.249      829.437      427.324        0.418        0.090       81.071       16.869        0.043      335.964        6.948      863.930
11/09/2013  08:39:00       -1.383       37.284       12.358       24.974       27.169       26.732      623.722      738.177      714.592        0.181        0.104       37.309       21.699        0.338      336.211        7.361      863.936
11/09/2013  08:40:00       60.615       37.686       10.096       20.249       16.266       24.649      410.024      264.588      607.553        0.324        0.064       71.375       11.465        0.026      335.965        6.951      863.946
11/09/2013  08:41:00       46.757       42.839       11.731       23.354       18.390       21.595      545.431      338.179      466.348        0.275        0.067       63.415       12.566        0.039      335.991        6.994      863.948
11/09/2013  08:42:00       35.699       68.710       -3.312       41.441       26.521       25.653     1717.360      703.355      658.069        0.454        0.154       77.431       18.264        0.056      335.958        6.938      863.947
11/09/2013  08:43:00       79.404       56.946        9.326       27.767       24.968       25.427      771.014      623.418      646.554        0.584        0.102       97.714       10.226        0.011      335.997        7.003      863.949
11/09/2013  08:44:00       75.213       63.463        5.753       26.099       25.207       23.505      681.144      635.374      552.491        0.579        0.093       98.410       11.216        0.013      336.048        7.088      863.952
11/09/2013  08:45:00       68.324       67.374        2.691       29.730       24.920       33.655      883.898      620.986     1132.663        0.593        0.132       95.955       13.345        0.019      336.068        7.123      863.946
11/09/2013  08:46:00       62.992       50.643       -2.744       28.066       25.988       27.688      787.719      675.386      766.632        0.438        0.111       80.825       13.192        0.027      336.245        7.417      863.942
11/09/2013  08:47:00       83.418       45.625        1.660       25.897       27.627       22.885      670.664      763.256      523.739        0.550        0.098       95.080       10.699        0.013      335.960        6.942      863.943
11/09/2013  08:48:00       20.716       18.283       28.593       32.354       22.435       17.866     1046.790      503.351      319.184        0.172        0.093       27.631       15.809        0.327      336.536        7.904      863.940
11/09/2013  08:49:00       39.081       36.436       29.468       36.349       29.217       22.545     1321.238      853.643      508.291        0.320        0.134       53.431        8.670        0.026      336.584        7.983      863.934
11/09/2013  08:50:00       45.826       51.966        6.160       35.257       33.619       24.689     1243.031     1130.212      609.566        0.391        0.149       69.285       20.836        0.090      336.127        7.219      863.925
11/09/2013  08:51:00        5.077       31.348        3.411       22.461       32.609       24.313      504.485     1063.318      591.133        0.159        0.108       31.756       19.140        0.363      336.581        7.979      863.924
11/09/2013  08:52:00        8.977       26.512        4.271       20.107       27.653       28.530      404.299      764.671      813.981        0.139        0.099       27.990       21.685        0.600      336.543        7.915      863.928
11/09/2013  08:53:00        9.201       14.661       19.158       17.913       18.989       20.292      320.862      360.576      411.755        0.088        0.055       17.309        8.934        0.266      336.899        8.512      863.938
11/09/2013  08:54:00       14.663       14.337       -3.474       18.376       23.693       22.288      337.694      561.368      496.743        0.091        0.070       20.508       12.763        0.387      336.596        8.003      863.943
11/09/2013  08:55:00       32.478       42.608        4.035       26.083       35.659       24.194      680.321     1271.560      585.367        0.271        0.127       53.575       20.263        0.143      336.462        7.780      863.955
11/09/2013  08:56:00       24.589      -24.172      -10.841       28.517       33.523       17.935      813.213     1123.818      321.669        0.178        0.113       34.481       16.986        0.243      336.244        7.416      863.966
11/09/2013  08:57:00       -0.290        7.474       17.820       19.455       18.389       11.352      378.502      338.157      128.869        0.061        0.042        7.480       10.145        1.839      336.990        8.663      863.970
11/09/2013  08:58:00      -12.925        0.860       16.330       14.255       13.379       16.163      203.198      179.007      261.243        0.054        0.032       12.953       13.155        1.031      337.001        8.681      863.972
11/09/2013  08:59:00        2.462       34.323       59.130       29.690       29.938       25.061      881.495      896.276      628.054        0.354        0.120       34.411       24.392        0.502      337.050        8.764      863.967
11/09/2013  09:00:00       19.971       34.926       43.666       22.596       25.911       26.830      510.562      671.394      719.847        0.271        0.095       40.233       22.753        0.320      336.645        8.086      863.973
11/09/2013  09:01:00       -1.380       37.585       46.244       15.397       27.783       22.988      237.080      771.888      528.432        0.254        0.077       37.610       11.440        0.093      336.725        8.220      863.982
11/09/2013  09:02:00      -10.489       -2.161       15.673       16.481       19.992       16.686      271.632      399.686      278.412        0.065        0.047       10.710       10.272        0.920      336.874        8.470      863.980
11/09/2013  09:03:00      -15.695       -7.437       -2.728       11.863       12.968       10.018      140.733      168.166      100.368        0.036        0.020       17.368        5.699        0.108      336.784        8.318      863.971
11/09/2013  09:04:00      -21.350      -20.167       -9.386       10.637       11.188        7.324      113.152      125.178       53.642        0.062        0.015       29.369        6.156        0.044      336.564        7.951      863.962
11/09/2013  09:05:00      -10.486       -0.803       17.797       10.984        8.070       14.119      120.648       65.121      199.341        0.041        0.019       10.517        9.327        0.787      337.322        9.218      863.958
11/09/2013  09:06:00      -25.154       -2.084        4.920        8.994       10.753        7.761       80.893      115.634       60.234        0.046        0.013       25.240        4.107        0.026      336.776        8.305      863.957
11/09/2013  09:07:00      -43.760      -14.259       -2.917        9.587        8.610        6.098       91.902       74.140       37.181        0.116        0.010       46.025        4.632        0.010      336.605        8.019      863.961
11/09/2013  09:08:00      -16.286      -17.687        1.061       11.460       12.392       10.935      131.335      153.574      119.567        0.049        0.020       24.043        7.759        0.104      336.808        8.361      863.962
11/09/2013  09:09:00       -6.681        2.080       28.503       10.434       20.846       22.460      108.873      434.574      504.465        0.095        0.052        6.997       17.835        6.497      337.378        9.313      863.955
11/09/2013  09:10:00       -9.424        9.277       29.623       13.929       10.392       14.221      194.015      108.000      202.238        0.078        0.025       13.224       10.027        0.575      337.649        9.765      863.955
11/09/2013  09:11:00      -18.265        5.933       18.458       11.299       10.144       12.384      127.677      102.891      153.362        0.055        0.019       19.205        6.673        0.121      337.300        9.181      863.955
11/09/2013  09:12:00      -12.851        4.563       23.128        9.469       12.289       16.481       89.658      151.024      271.629        0.062        0.026       13.637        9.452        0.480      337.506        9.526      863.956
11/09/2013  09:13:00        0.766       15.757       32.157       16.370       21.404       18.930      267.963      458.151      358.351        0.118        0.054       15.776       10.934        0.480      337.776        9.978      863.951
11/09/2013  09:14:00       -4.615       28.778       70.642       19.853       30.833       22.954      394.129      950.693      526.888        0.386        0.094       29.146       18.361        0.397      337.563        9.622      863.949
11/09/2013  09:15:00        4.616       39.193       69.185       23.750       30.412       16.936      564.061      924.907      286.839        0.406        0.089       39.464       19.218        0.237      337.288        9.161      863.949
11/09/2013  09:16:00       -1.883       50.848       65.449       13.086       23.495       11.919      171.251      551.999      142.055        0.387        0.043       50.883       10.967        0.046      337.167        8.958      863.950
11/09/2013  09:17:00       26.972       54.450       52.793       31.471       26.574       15.167      990.434      706.160      230.039        0.420        0.096       60.764       11.148        0.034      337.245        9.090      863.944
11/09/2013  09:18:00        0.340       43.702       54.057       15.206       22.226       17.475      231.235      493.979      305.377        0.293        0.052       43.703        8.856        0.041      337.353        9.269      863.946
11/09/2013  09:19:00       -2.028       33.281       44.318       16.896       21.370       22.751      285.485      456.698      517.628        0.217        0.063       33.342       15.854        0.226      337.519        9.550      863.942
11/09/2013  09:20:00       -7.290       59.056       -3.267       19.799       35.852       19.764      391.996     1285.349      390.632        0.281        0.103       59.504       22.164        0.139      337.312        9.201      863.939
11/09/2013  09:21:00       17.828       32.248       11.817       28.348       33.053       19.641      803.615     1092.525      385.756        0.189        0.114       36.848       19.899        0.292      337.592        9.670      863.923
11/09/2013  09:22:00       87.347       55.171       17.336       39.447       28.538       27.987     1556.031      814.415      783.300        0.706        0.158      103.312       13.414        0.017      337.232        9.068      863.911
11/09/2013  09:23:00       59.171       57.211        7.629       50.748       32.989       35.505     2575.408     1088.249     1260.594        0.588        0.246       82.306       30.718        0.139      337.255        9.105      863.903
11/09/2013  09:24:00       56.440       44.327       15.268       30.642       28.471       24.556      938.908      810.616      602.975        0.387        0.118       71.766        4.259        0.004      337.262        9.117      863.895
11/09/2013  09:25:00       14.702       25.424       49.379       36.554       41.618       19.434     1336.180     1732.033      377.663        0.337        0.172       29.369       15.789        0.289      337.857       10.114      863.886
11/09/2013  09:26:00       17.181       43.923       25.660       33.601       32.296       31.254     1129.026     1043.055      976.838        0.302        0.157       47.164       18.845        0.160      337.944       10.259      863.882
11/09/2013  09:27:00       30.520       71.599       -0.667       32.065       30.718       27.808     1028.141      943.597      773.313        0.440        0.137       77.833       21.384        0.075      337.503        9.520      863.881
11/09/2013  09:28:00       27.089       39.159       13.326       38.258       38.946       30.803     1463.639     1516.793      948.829        0.319        0.196       47.616       25.022        0.276      337.675        9.809      863.877
11/09/2013  09:29:00       55.249       65.542        4.317       49.414       32.964       30.206     2441.780     1086.601      912.399        0.590        0.222       85.722       11.875        0.019      337.423        9.387      863.874
11/09/2013  09:30:00       52.541       62.652        4.096       39.689       30.023       28.229     1575.255      901.366      796.865        0.499        0.164       81.767       21.191        0.067      337.343        9.254      863.870
11/09/2013  09:31:00       27.228       55.897        5.860       27.301       34.154       33.616      745.351     1166.525     1130.011        0.347        0.152       62.176       28.388        0.208      337.563        9.622      863.868
11/09/2013  09:32:00       24.822       -6.405       22.140       26.622       26.747       22.807      708.725      715.382      520.171        0.155        0.097       25.635       11.486        0.201      337.796       10.012      863.866
11/09/2013  09:33:00       -7.402       14.765       49.388       16.003       34.444       19.288      256.091     1186.423      372.029        0.226        0.091       16.516       10.195        0.381      338.217       10.718      863.863
11/09/2013  09:34:00       35.339       63.208       52.276       30.182       25.973       31.434      910.978      674.620      988.122        0.527        0.129       72.416       21.060        0.085      337.442        9.419      863.860
11/09/2013  09:35:00       82.999       77.300       72.676       34.080       31.143       23.153     1161.431      969.886      536.057        1.041        0.133      113.420       14.079        0.015      337.481        9.485      863.855
11/09/2013  09:36:00       16.418       44.754       62.906       42.494       47.032       31.995     1805.708     2212.018     1023.666        0.563        0.252       47.671       27.995        0.345      337.736        9.911      863.860
11/09/2013  09:37:00       60.026       11.587       45.367       55.107       46.210       35.810     3036.763     2135.356     1282.339        0.612        0.323       61.135       12.900        0.045      337.748        9.931      863.847
11/09/2013  09:38:00       47.350       41.125       65.449       61.771       51.508       56.277     3815.638     2653.043     3167.109        0.892        0.482       62.716       52.062        0.689      337.807       10.031      863.842
11/09/2013  09:39:00       94.209       81.787       53.150       79.749       56.861       42.524     6359.837     3233.230     1808.252        1.489        0.570      124.757       30.043        0.058      337.797       10.013      863.847
11/09/2013  09:40:00       85.516       88.946       70.559       47.712       41.229       41.006     2276.399     1699.855     1681.451        1.293        0.283      123.387       30.691        0.062      337.480        9.484      863.863
11/09/2013  09:41:00       44.621      126.928      103.927       56.463       37.242       41.417     3188.109     1386.992     1715.355        1.760        0.315      134.543       38.392        0.081      337.531        9.568      863.868
11/09/2013  09:42:00       55.165       65.245       82.211       45.526       33.715       26.951     2072.653     1136.720      726.372        0.900        0.197       85.440       21.250        0.062      337.537        9.577      863.883
11/09/2013  09:43:00       38.739       62.659       37.784       27.627       31.374       24.497      763.244      984.352      600.092        0.460        0.117       73.667       22.785        0.096      337.360        9.282      863.878
11/09/2013  09:44:00       11.026      -14.552       35.631       27.051       50.979       31.887      731.752     2598.891     1016.774        0.297        0.217       18.257       24.290        1.770      338.000       10.355      863.876
11/09/2013  09:45:00       40.062      -33.647       29.465       35.333       67.678       36.814     1248.432     4580.340     1355.254        0.539        0.359       52.317       38.376        0.538      337.776        9.978      863.874
11/09/2013  09:46:00       22.734      -93.938        9.396       36.370       66.803       44.507     1322.782     4462.696     1980.915        0.860        0.388       96.650       47.498        0.242      337.851       10.106      863.868
11/09/2013  09:47:00       60.594       28.624       40.364       51.903       41.260       34.776     2693.876     1702.369     1209.362        0.586        0.280       67.014       26.079        0.151      337.607        9.696      863.878
11/09/2013  09:48:00       37.847      -51.664       30.990       39.930       70.878       44.688     1594.381     5023.657     1997.019        0.684        0.431       64.043       48.625        0.576      337.861       10.122      863.878
11/09/2013  09:49:00       16.764       16.494       53.971       27.364       54.930       38.088      748.802     3017.258     1450.693        0.434        0.261       23.518       34.050        2.096      337.993       10.342      863.883
11/09/2013  09:50:00       14.685       38.679       67.669       53.369       48.321       37.377     2848.265     2334.932     1397.036        0.643        0.329       41.373       35.285        0.727      338.224       10.731      863.878
11/09/2013  09:51:00       39.100      -15.077       49.728       39.114       55.039       50.800     1529.886     3029.304     2580.599        0.568        0.357       41.906       41.422        0.977      338.108       10.535      863.877
11/09/2013  09:52:00        3.689        3.437       48.506       24.616       52.784       34.902      605.946     2786.173     1218.172        0.349        0.231        5.042       40.318       63.937      338.130       10.573      863.877
11/09/2013  09:53:00       69.414       82.891       74.240       48.706       40.938       41.934     2372.270     1675.881     1758.470        1.150        0.290      108.117       30.553        0.080      337.705        9.860      863.872
11/09/2013  09:54:00      124.991       91.228       65.900       56.050       42.519       42.487     3141.652     1807.859     1805.149        1.752        0.338      154.743       26.649        0.030      337.558        9.612      863.870
11/09/2013  09:55:00      107.720       35.736       25.482       42.318       44.154       36.849     1790.795     1949.582     1357.880        0.931        0.255      113.493       23.788        0.044      337.570        9.634      863.874
11/09/2013  09:56:00       51.022       52.483       58.882       43.434       42.487       31.790     1886.532     1805.156     1010.634        0.676        0.235       73.196       33.981        0.216      337.776        9.979      863.873
11/09/2013  09:57:00       41.941       29.596       40.096       35.298       43.720       33.323     1245.962     1911.452     1110.423        0.425        0.213       51.332       31.252        0.371      337.914       10.208      863.866
11/09/2013  09:58:00       30.957       16.713       52.469       47.327       98.158       48.191     2239.829     9635.081     2322.395        0.909        0.710       35.180       56.430        2.573      338.165       10.630      863.867
11/09/2013  09:59:00       29.186       64.342       74.810       37.561       50.510       32.115     1410.812     2551.242     1031.351        0.779        0.250       70.652       30.903        0.191      338.125       10.564      863.872
11/09/2013  10:00:00       15.368      -23.950       13.309       23.714       56.502       32.357      562.332     3192.458     1046.966        0.289        0.240       28.456       35.201        1.530      338.300       10.858      863.879
11/09/2013  10:01:00        2.354      -16.489       11.317       17.059       23.887       15.632      291.011      570.566      244.371        0.076        0.055       16.656        9.720        0.341      338.782       11.668      863.873
11/09/2013  10:02:00       20.824       -7.144       25.423       26.601       39.734       18.079      707.594     1578.770      326.866        0.187        0.131       22.016       18.853        0.733      338.577       11.322      863.876
11/09/2013  10:03:00       -2.980      -24.827       37.463       24.520       45.525       32.765      601.238     2072.547     1073.577        0.289        0.187       25.005       29.695        1.410      338.791       11.682      863.861
11/09/2013  10:04:00       22.655      -36.539       38.880       40.319       69.706       43.847     1625.623     4858.906     1922.593        0.588        0.420       42.992       43.510        1.024      338.559       11.293      863.867
11/09/2013  10:05:00       33.209        7.719       60.616       36.087       48.724       34.682     1302.238     2374.016     1202.851        0.486        0.244       34.095       29.456        0.746      338.458       11.125      863.856
11/09/2013  10:06:00       26.637       -8.177       22.019       23.150       25.792       27.301      535.923      665.249      745.328        0.160        0.097       27.864       17.693        0.403      338.204       10.697      863.860
11/09/2013  10:07:00      -19.550       29.422      -23.692       14.014       21.030       10.998      196.398      442.277      120.958        0.128        0.038       35.325        5.334        0.023      337.814       10.041      863.844
11/09/2013  10:08:00      -10.875       24.582       -0.435       15.068       20.078       17.880      227.052      403.131      319.708        0.084        0.047       26.880       12.604        0.220      338.339       10.923      863.831
11/09/2013  10:09:00       23.769       18.498       20.118       41.086       21.573       17.599     1688.095      465.416      309.742        0.189        0.123       30.119       10.463        0.121      338.888       11.846      863.815
11/09/2013  10:10:00       55.214       49.739       -7.879       30.006       30.572       25.165      900.363      934.658      633.279        0.403        0.123       74.314       15.785        0.045      338.228       10.738      863.814
11/09/2013  10:11:00       50.383       24.789       15.625       43.689       45.856       40.538     1908.708     2102.764     1643.324        0.452        0.283       56.151       32.852        0.342      338.588       11.341      863.804
11/09/2013  10:12:00       89.732      -61.004       14.692       51.391       79.683       49.689     2641.016     6349.452     2468.983        1.172        0.573      108.505       62.049        0.327      338.082       10.491      863.809
11/09/2013  10:13:00       33.275      -83.855      -17.927       35.160       35.511       23.210     1236.235     1261.038      538.725        0.575        0.152       90.216       17.707        0.039      338.154       10.613      863.814
11/09/2013  10:14:00       23.313      -82.475      -18.895       35.610       38.689       31.271     1268.083     1496.833      977.855        0.572        0.187       85.707       22.695        0.070      338.332       10.911      863.823
11/09/2013  10:15:00       34.209      -48.627       -5.304       26.461       31.325       25.864      700.160      981.263      668.941        0.296        0.118       59.455       16.023        0.073      338.241       10.760      863.822
11/09/2013  10:16:00      -74.802       -3.434       -7.041       25.512       27.993       13.930      650.842      783.596      194.052        0.364        0.081       74.881       13.404        0.032      338.067       10.467      863.817
11/09/2013  10:17:00      -39.121      -27.553       -4.430       29.384       33.196       11.871      863.437     1101.997      140.932        0.221        0.105       47.850        5.414        0.013      338.166       10.633      863.815
11/09/2013  10:18:00       16.369       32.220       44.295       51.481       47.081       30.619     2650.335     2216.650      937.550        0.454        0.290       36.140       36.054        0.995      338.510       11.210      863.820
11/09/2013  10:19:00       18.669        4.936       -2.658       41.983       48.316       28.840     1762.582     2334.398      831.761        0.265        0.246       19.311       20.602        1.138      338.655       11.453      863.814
11/09/2013  10:20:00       -7.535        7.188       58.790       26.887       58.032       44.516      722.912     3367.758     1981.630        0.482        0.304       10.413       44.211       18.025      338.966       11.977      863.809
11/09/2013  10:21:00       50.552      -39.539       35.401       39.253       57.497       52.707     1540.764     3305.934     2778.068        0.650        0.381       64.179       36.540        0.324      338.652       11.450      863.808
11/09/2013  10:22:00       29.524        0.434       18.772       36.755       59.162       37.770     1350.906     3500.119     1426.566        0.375        0.314       29.527       37.626        1.624      338.729       11.578      863.811
11/09/2013  10:23:00       20.397      -21.984       -9.718       55.343       34.552       16.540     3062.849     1193.828      273.555        0.276        0.227       29.989        5.948        0.039      338.180       10.656      863.811
11/09/2013  10:24:00       -9.429       22.464       32.604       20.126       28.608       18.382      405.046      818.429      337.916        0.161        0.078       24.363       14.852        0.372      339.034       12.090      863.807
11/09/2013  10:25:00       -8.078       13.896       47.259       18.249       26.324       19.194      333.031      692.972      368.405        0.194        0.070       16.073       14.274        0.789      339.233       12.428      863.792
11/09/2013  10:26:00       22.964       60.120       81.180       38.048       46.858       21.739     1447.653     2195.684      472.586        0.742        0.206       64.356       27.163        0.178      338.755       11.623      863.785
11/09/2013  10:27:00       53.068       56.076       41.151       32.932       23.037       29.056     1084.516      530.718      844.261        0.506        0.123       77.206       25.935        0.113      338.275       10.816      863.781
11/09/2013  10:28:00       76.843       80.142        1.050       20.291       22.687       25.007      411.736      514.718      625.343        0.694        0.078      111.029        4.102        0.001      338.330       10.909      863.771
11/09/2013  10:29:00       38.908       33.364       17.843       34.674       28.567       30.867     1202.283      816.097      952.778        0.296        0.149       51.254       19.468        0.144      338.901       11.866      863.759
11/09/2013  10:30:00       27.302       51.095       16.759       43.167       45.746       30.650     1863.406     2092.733      939.427        0.427        0.245       57.931       28.746        0.246      338.916       11.893      863.743
11/09/2013  10:31:00        9.751       47.224       19.501       35.068       42.784       29.168     1229.767     1830.503      850.793        0.331        0.196       48.220       24.231        0.253      339.016       12.062      863.734
11/09/2013  10:32:00       -6.189       28.914       26.228       22.671       30.828       23.010      513.988      950.373      529.459        0.178        0.100       29.569       17.009        0.331      339.209       12.385      863.716
11/09/2013  10:33:00       31.022       25.733       13.965       26.859       32.144       29.464      721.402     1033.234      868.122        0.222        0.131       40.306       25.564        0.402      339.088       12.183      863.709
11/09/2013  10:34:00       23.458       30.496        9.652       24.299       24.959       24.088      590.460      622.955      580.245        0.168        0.090       38.475       10.073        0.069      339.077       12.164      863.686
11/09/2013  10:35:00        2.660       28.093       -8.815       30.270       27.858       19.689      916.288      776.058      387.647        0.148        0.104       28.219       15.869        0.316      339.159       12.301      863.686
11/09/2013  10:36:00       29.507      -18.052       22.193       30.651       56.344       30.707      939.501     3174.654      942.935        0.337        0.253       34.592       26.427        0.584      339.277       12.501      863.667
11/09/2013  10:37:00       66.501      -68.802       17.882       39.293       89.505       37.848     1543.923     8011.227     1432.453        1.023        0.549       95.687       40.381        0.178      339.007       12.045      863.662
11/09/2013  10:38:00       23.082      -19.260       42.520       44.401       72.742       43.253     1971.490     5291.447     1870.793        0.592        0.457       30.063       49.700        2.733      339.286       12.515      863.644
11/09/2013  10:39:00       79.570      -43.504       21.254       47.605       53.954       41.051     2266.265     2911.083     1685.175        0.777        0.343       90.686       38.419        0.179      339.024       12.074      863.645
11/09/2013  10:40:00       65.987      -12.498       23.935       44.844       39.735       43.194     2011.024     1578.897     1865.733        0.527        0.273       67.160       32.915        0.240      338.830       11.748      863.639
11/09/2013  10:41:00        0.623       18.847       36.030       19.675       18.972       21.147      387.091      359.946      447.210        0.142        0.060       18.857       16.743        0.788      339.416       12.734      863.626
11/09/2013  10:42:00       -7.277       18.439       53.518       16.903       27.104       20.126      285.727      734.624      405.064        0.234        0.071       19.823       20.334        1.052      339.999       13.718      863.612
11/09/2013  10:43:00       -7.236        3.728       34.186       24.867       27.858       23.483      618.349      776.075      551.466        0.159        0.097        8.140       23.098        8.052      339.916       13.577      863.584
11/09/2013  10:44:00        2.208       11.158       41.237       19.056       35.326       25.344      363.119     1247.942      642.336        0.204        0.113       11.374       22.453        3.896      339.623       13.084      863.558
11/09/2013  10:45:00       -8.207       -8.356       29.507       21.120       27.435       24.402      446.058      752.690      595.479        0.140        0.090       11.713       18.370        2.460      339.585       13.021      863.530
11/09/2013  10:46:00      -37.068      -27.926        7.477       23.974       21.103       23.919      574.736      445.327      572.103        0.190        0.080       46.411       11.049        0.057      339.185       12.347      863.516
11/09/2013  10:47:00        7.653       -1.923       37.692       32.732       64.684       32.922     1071.353     4184.052     1083.857        0.391        0.317        7.891       32.261       16.713      339.493       12.865      863.500
11/09/2013  10:48:00       45.003       50.974       33.126       45.022       42.266       32.155     2026.985     1786.394     1033.935        0.528        0.242       67.997       14.800        0.047      339.483       12.847      863.488
11/09/2013  10:49:00       30.011       50.184       52.342       52.165       32.044       34.073     2721.145     1026.820     1160.964        0.553        0.245       58.473       29.238        0.250      339.535       12.935      863.476
11/09/2013  10:50:00       33.662       49.794       28.571       59.683       47.454       40.370     3562.057     2251.928     1629.769        0.594        0.372       60.105       30.155        0.252      339.429       12.757      863.478
11/09/2013  10:51:00       56.452       52.316       11.487       36.472       28.728       28.654     1330.178      825.321      821.073        0.452        0.149       76.966       17.795        0.053      339.307       12.550      863.471
11/09/2013  10:52:00       92.751       50.978       10.889       42.157       24.939       34.043     1777.249      621.953     1158.941        0.744        0.178      105.837       20.531        0.038      339.106       12.212      863.477
11/09/2013  10:53:00       44.573       14.432       17.744       42.545       44.780       28.400     1810.057     2005.279      806.546        0.357        0.231       46.851       29.483        0.396      339.596       13.037      863.469
11/09/2013  10:54:00       22.809       26.631       54.062       40.961       42.571       35.424     1677.811     1812.301     1254.825        0.445        0.237       35.064       35.738        1.039      339.750       13.298      863.462
11/09/2013  10:55:00       15.099       15.984       66.798       44.928       65.289       39.742     2018.551     4262.615     1579.431        0.640        0.393       21.988       42.127        3.671      339.712       13.233      863.448
11/09/2013  10:56:00       70.566      -66.152       -1.942       47.707       69.030       35.696     2275.911     4765.168     1274.206        0.884        0.416       96.724       38.142        0.155      339.542       12.947      863.439
11/09/2013  10:57:00       19.841      -85.102        9.458       43.269       67.456       39.474     1872.249     4550.255     1558.218        0.785        0.399       87.384       33.910        0.151      339.664       13.152      863.431
11/09/2013  10:58:00       44.592      -77.092       -9.635       39.135       55.771       28.001     1531.555     3110.355      784.031        0.672        0.271       89.059       27.791        0.097      339.245       12.447      863.426
11/09/2013  10:59:00       33.418      -64.984        2.465       37.185       40.976       29.108     1382.724     1679.043      847.248        0.463        0.195       73.073       22.000        0.091      339.383       12.678      863.416
11/09/2013  11:00:00      -13.799      -14.817       10.536       37.851       40.851       36.274     1432.672     1668.803     1315.835        0.247        0.221       20.248       30.982        2.341      339.718       13.244      863.393
11/09/2013  11:01:00      -15.414       19.244       35.423       24.199       28.503       25.783      585.576      812.442      664.744        0.196        0.103       24.656       18.158        0.542      339.751       13.300      863.390
11/09/2013  11:02:00      -26.118      -17.096       15.055       18.094       57.183       30.109      327.393     3269.859      906.526        0.285        0.225       31.216       27.785        0.792      339.627       13.089      863.367
11/09/2013  11:03:00       40.145      -48.215       -4.190       39.372       57.212       23.006     1550.162     3273.243      529.267        0.465        0.268       62.740       22.019        0.123      339.619       13.076      863.359
11/09/2013  11:04:00       22.105      -33.916       26.302       33.593       54.284       30.209     1128.472     2946.722      912.606        0.366        0.249       40.484       32.534        0.646      339.932       13.604      863.330
11/09/2013  11:05:00       33.846       67.973       49.902       37.024       31.676       39.147     1370.750     1003.395     1532.515        0.608        0.195       75.933       30.088        0.157      339.833       13.436      863.315
11/09/2013  11:06:00       66.859       44.902       17.669       61.796       37.440       48.201     3818.709     1401.757     2323.367        0.717        0.377       80.538       28.876        0.129      339.516       12.902      863.292
11/09/2013  11:07:00       41.795       65.771       66.114       50.698       53.863       44.638     2570.295     2901.172     1992.527        0.895        0.373       77.927       30.826        0.156      339.879       13.515      863.268
11/09/2013  11:08:00      148.733       88.746        7.686       39.655       38.086       42.347     1572.558     1450.540     1793.284        1.744        0.241      173.197       26.530        0.023      339.456       12.801      863.254
11/09/2013  11:09:00      100.459       77.828       14.566       40.694       35.256       40.789     1656.021     1242.961     1663.761        1.046        0.228      127.079       22.206        0.031      339.509       12.890      863.248
11/09/2013  11:10:00       34.377       61.926       11.306       46.039       43.376       33.494     2119.569     1881.504     1121.874        0.513        0.256       70.828       28.715        0.164      339.849       13.464      863.234
11/09/2013  11:11:00       90.306       56.270       22.555       43.883       42.191       31.329     1925.739     1780.097      981.525        0.826        0.234      106.402       25.727        0.058      339.697       13.208      863.220
11/09/2013  11:12:00       45.088       58.775       13.760       49.097       37.631       40.784     2410.522     1416.104     1663.353        0.558        0.274       74.077       22.459        0.092      339.697       13.209      863.211
11/09/2013  11:13:00       54.704       60.598       12.412       50.532       42.846       40.780     2553.485     1835.769     1663.026        0.643        0.303       81.637       31.137        0.145      339.660       13.145      863.198
11/09/2013  11:14:00       60.799       35.155       14.568       47.530       28.124       33.468     2259.075      790.940     1120.082        0.466        0.209       70.231       21.192        0.091      339.663       13.151      863.187
11/09/2013  11:15:00       58.626       48.898       42.421       70.802       45.076       38.078     5012.944     2031.814     1449.906        0.806        0.425       76.341       29.418        0.148      340.020       13.751      863.165
11/09/2013  11:16:00       54.586       45.470       42.471       47.564       66.296       36.186     2262.341     4395.189     1309.431        0.741        0.398       71.043       23.896        0.113      339.761       13.317      863.153
11/09/2013  11:17:00       59.042      -34.681       25.771       67.672      112.784       61.696     4579.550    12720.257     3806.372        1.323        1.055       68.474       83.556        1.489      339.853       13.471      863.131
11/09/2013  11:18:00       87.782      -79.518        9.112       45.395       68.244       32.268     2060.677     4657.191     1041.227        1.093        0.388      118.443       36.216        0.093      339.618       13.076      863.120
11/09/2013  11:19:00       23.872       35.212       45.752       31.521       54.768       31.472      993.598     2999.565      990.480        0.444        0.249       42.542       29.344        0.476      339.919       13.583      863.098
11/09/2013  11:20:00       16.672      -74.224       -6.764       34.221       48.794       23.313     1171.075     2380.840      543.496        0.496        0.205       76.073       19.749        0.067      339.687       13.192      863.088
11/09/2013  11:21:00       -5.028      -36.504       11.143       46.384       45.538       28.479     2151.501     2073.702      811.059        0.326        0.252       36.848       16.337        0.197      339.876       13.509      863.063
11/09/2013  11:22:00       36.484      -48.411       22.068       39.739       63.945       40.723     1579.177     4088.949     1658.350        0.574        0.366       60.620       42.960        0.502      339.922       13.589      863.055
11/09/2013  11:23:00       51.297     -101.344      -19.738       37.060       37.350       23.646     1373.419     1395.030      559.113        0.831        0.166      113.587       15.315        0.018      339.590       13.028      863.048
11/09/2013  11:24:00        2.357      -30.097       23.910       30.443       31.366       22.060      926.753      983.817      486.654        0.194        0.120       30.189       24.719        0.670      340.173       14.012      863.038
11/09/2013  11:25:00       32.741       27.561       30.012       36.937       24.284       25.722     1364.331      589.706      661.623        0.267        0.131       42.797       13.292        0.096      340.604       14.740      863.043
11/09/2013  11:26:00       82.357       65.746        9.846       59.053       40.532       45.040     3487.245     1642.850     2028.580        0.918        0.358      105.382       27.743        0.069      339.980       13.684      863.036
11/09/2013  11:27:00      104.339       76.923        8.316       32.265       31.222       31.784     1041.009      974.823     1010.230        0.995        0.151      129.629       16.280        0.016      339.896       13.544      863.037
11/09/2013  11:28:00       64.518       58.738       27.483       47.352       31.732       40.171     2242.257     1006.941     1613.704        0.661        0.243       87.251       17.206        0.039      340.527       14.608      863.007
11/09/2013  11:29:00        9.332       72.132        3.268       38.941       41.966       25.480     1516.366     1761.177      649.245        0.461        0.196       72.733       20.253        0.078      340.449       14.478      863.000
11/09/2013  11:30:00       29.706       36.038        1.571       35.481       30.920       24.207     1258.904      956.021      585.994        0.249        0.140       46.703       18.764        0.161      340.365       14.335      862.985
11/09/2013  11:31:00      -26.941       31.563        9.343       27.464       43.041       33.773      754.282     1852.489     1140.634        0.278        0.187       41.498       16.274        0.154      340.546       14.640      862.975
11/09/2013  11:32:00       63.242       59.082       26.774       44.029       32.772       35.432     1938.514     1073.972     1255.458        0.624        0.213       86.546       16.946        0.038      340.390       14.378      862.965
11/09/2013  11:33:00       24.105       22.384       57.349       54.041       52.170       33.388     2920.414     2721.742     1114.773        0.556        0.338       32.896       23.674        0.518      340.729       14.951      862.941
11/09/2013  11:34:00       65.954       69.217       58.917       58.808       42.503       51.781     3458.375     1806.467     2681.301        1.028        0.397       95.608       51.106        0.286      340.037       13.783      862.942
11/09/2013  11:35:00       33.005       47.544       64.397       43.386       67.090       50.835     1882.316     4501.073     2584.213        0.823        0.448       57.877       51.097        0.779      340.297       14.220      862.910
11/09/2013  11:36:00       98.906      107.672       92.555       71.053       67.433       49.984     5048.590     4547.249     2498.440        2.102        0.605      146.204       53.874        0.136      339.943       13.622      862.902
11/09/2013  11:37:00      128.374       83.120       10.999       44.971       36.757       42.502     2022.389     1351.111     1806.437        1.434        0.259      152.934       24.247        0.025      339.891       13.535      862.903
11/09/2013  11:38:00      101.712       53.284        6.655       34.138       34.147       30.645     1165.430     1166.002      939.127        0.825        0.164      114.824       17.610        0.024      340.015       13.743      862.884
11/09/2013  11:39:00       34.148       56.777       11.414       51.610       54.560       39.669     2663.569     2976.836     1573.633        0.587        0.361       66.255       42.311        0.408      340.388       14.374      862.875
11/09/2013  11:40:00       15.529      117.407        0.437       44.949       62.878       31.206     2020.419     3953.629      973.809        1.049        0.347      118.429       25.489        0.046      340.117       13.917      862.861
11/09/2013  11:41:00       36.285       39.770       12.691       38.727       33.171       30.791     1499.811     1100.328      948.080        0.330        0.177       53.836       28.308        0.276      340.228       14.103      862.849
11/09/2013  11:42:00       -2.261       46.000       17.739       22.926       54.284       22.413      525.600     2946.806      502.360        0.320        0.199       46.056       26.391        0.328      340.489       14.546      862.831
11/09/2013  11:43:00       11.006       16.649       12.973       22.426       20.467       21.171      502.937      418.881      448.205        0.097        0.069       19.958       13.253        0.441      340.642       14.803      862.812
11/09/2013  11:44:00       47.613       37.722       14.781       39.565       33.893       25.619     1565.399     1148.751      656.308        0.364        0.169       60.745       23.168        0.145      340.438       14.458      862.796
11/09/2013  11:45:00       26.528       36.515       45.755       54.525       35.732       30.892     2973.020     1276.775      954.317        0.467        0.260       45.134       13.484        0.089      340.729       14.953      862.777
11/09/2013  11:46:00       94.637       50.457       10.259       53.777       46.919       29.743     2891.977     2201.369      884.640        0.879        0.299      107.248       32.921        0.094      340.387       14.373      862.767
11/09/2013  11:47:00       78.430       65.649      -10.519       29.086       29.394       37.274      845.998      863.989     1389.324        0.683        0.155      102.279       18.253        0.032      340.189       14.039      862.761
11/09/2013  11:48:00       78.235       54.290       10.769       46.960       39.717       31.705     2205.203     1577.477     1005.195        0.699        0.239       95.226       11.612        0.015      340.586       14.709      862.737
11/09/2013  11:49:00       30.942      102.899       -2.508       38.422       50.796       39.276     1476.258     2580.184     1542.599        0.857        0.280      107.451       36.218        0.114      340.334       14.284      862.738
11/09/2013  11:50:00        5.735       35.040       14.810       21.941       33.201       24.436      481.401     1102.276      597.123        0.183        0.109       35.507       19.989        0.317      340.638       14.797      862.716
11/09/2013  11:51:00       30.078       38.822        0.054       28.034       25.106       25.678      785.883      630.302      659.380        0.224        0.104       49.110       21.460        0.191      340.531       14.617      862.706
11/09/2013  11:52:00      -10.062       23.024       13.598       21.423       23.948       18.285      458.931      573.501      334.333        0.109        0.068       25.127       18.036        0.515      340.952       15.328      862.691
11/09/2013  11:53:00       -0.168       20.862       -4.538       20.344       26.860       15.693      413.869      721.458      246.286        0.092        0.069       20.863        8.172        0.153      340.615       14.758      862.690
11/09/2013  11:54:00       25.076       29.837       21.886       36.587       24.641       17.839     1338.592      607.199      318.218        0.213        0.113       38.975       15.635        0.161      340.758       15.000      862.679
11/09/2013  11:55:00       74.171       35.571       11.871       28.146       27.992       24.082      792.173      783.524      579.921        0.453        0.108       82.259       14.017        0.029      340.530       14.615      862.667
11/09/2013  11:56:00       21.842       55.773       69.158       46.685       51.795       53.434     2179.512     2682.723     2855.214        0.804        0.386       59.897       39.453        0.434      340.933       15.295      862.662
11/09/2013  11:57:00       51.635       82.512       92.982       53.816       49.279       30.929     2896.146     2428.392      956.608        1.220        0.314       97.336       23.404        0.058      340.589       14.713      862.647
11/09/2013  11:58:00       45.598       72.418       69.065       54.025       47.700       46.252     2918.737     2275.283     2139.232        0.971        0.367       85.578       44.311        0.268      340.631       14.784      862.649
11/09/2013  11:59:00       56.747       15.311       55.385       58.942       85.774       57.335     3474.215     7357.205     3287.355        1.032        0.706       58.777       62.615        1.135      340.588       14.712      862.636
11/09/2013  12:00:00       38.086       35.060       75.476       50.210       52.805       45.824     2521.020     2788.387     2099.809        0.789        0.370       51.766       44.265        0.731      340.834       15.127      862.637
11/09/2013  12:01:00        7.955      -24.207       27.973       31.588       62.926       41.995      997.829     3959.672     1763.617        0.408        0.336       25.480       42.836        2.826      340.759       15.000      862.626
11/09/2013  12:02:00       48.861      -18.013       29.658       39.605       72.651       39.598     1568.541     5278.203     1568.001        0.600        0.421       52.075       44.895        0.743      340.722       14.938      862.620
11/09/2013  12:03:00       59.107     -100.643      -12.677       43.207       55.168       31.916     1866.865     3043.516     1018.607        0.986        0.296      116.716       32.968        0.080      340.587       14.710      862.605
11/09/2013  12:04:00       60.361      -53.497        0.144       38.408       40.320       24.488     1475.170     1625.682      599.659        0.510        0.185       80.656       24.725        0.094      340.569       14.681      862.592
11/09/2013  12:05:00       53.588       68.646       62.328       34.949       34.955       24.485     1221.461     1221.875      599.496        0.726        0.152       87.086       16.398        0.035      340.667       14.845      862.575
11/09/2013  12:06:00       17.672      -23.093       -0.733       50.663       38.447       21.178     2566.776     1478.137      448.507        0.267        0.225       29.079       13.642        0.220      340.550       14.648      862.550
11/09/2013  12:07:00      -33.667       21.308      -18.800       23.682       34.503       15.369      560.851     1190.459      236.218        0.196        0.099       39.844       12.461        0.098      340.552       14.650      862.533
11/09/2013  12:08:00       -7.722       27.142       19.442       15.111       27.566       19.491      228.352      759.886      379.916        0.127        0.068       28.219       16.684        0.350      341.393       16.076      862.517
11/09/2013  12:09:00      -20.255      -11.681       11.041       24.020       38.285       27.433      576.976     1465.718      752.584        0.173        0.140       23.382       26.100        1.246      341.228       15.796      862.511
11/09/2013  12:10:00       56.465      -91.554      -10.863       59.594       60.719       39.709     3551.455     3686.776     1576.828        1.025        0.441      107.566       44.561        0.172      340.930       15.290      862.495
11/09/2013  12:11:00       94.470      -95.873       -2.914       54.603       63.804       40.150     2981.538     4070.930     1612.004        1.339        0.433      134.596       32.204        0.057      340.822       15.107      862.481
11/09/2013  12:12:00      111.450     -138.491       -5.896       56.753       57.852       33.802     3220.928     3346.840     1142.559        1.967        0.386      177.767       16.458        0.009      340.692       14.887      862.469
11/09/2013  12:13:00       38.855        3.265       54.324       60.929       76.323       42.406     3712.283     5825.199     1798.249        0.790        0.567       38.992       38.076        0.954      341.078       15.541      862.449
11/09/2013  12:14:00       60.572       -7.002       44.468       63.072       62.668       38.021     3978.104     3927.326     1445.573        0.752        0.468       60.975       41.349        0.460      340.989       15.390      862.442
11/09/2013  12:15:00        7.316      -52.167       27.679       26.215       54.361       35.343      687.242     2955.071     1249.098        0.422        0.245       52.678       33.418        0.402      341.113       15.600      862.414
11/09/2013  12:16:00       43.721      -83.049        5.789       40.450       38.955       30.775     1636.232     1517.503      947.123        0.647        0.205       93.854       19.983        0.045      340.782       15.040      862.408
11/09/2013  12:17:00      -18.770      -27.419       -7.625       28.334       34.273       16.532      802.801     1174.654      273.317        0.171        0.113       33.228       14.967        0.203      340.823       15.109      862.397
11/09/2013  12:18:00       -6.863      -68.339        8.048       48.613       51.784       32.148     2363.269     2681.555     1033.462        0.543        0.304       68.683       20.448        0.089      341.271       15.868      862.373
11/09/2013  12:19:00       44.794     -101.598       -8.025       39.807       34.910       32.902     1584.582     1218.738     1082.542        0.814        0.194      111.034       19.064        0.029      341.044       15.484      862.363
11/09/2013  12:20:00       15.997       -9.516       -0.303       22.748       18.970       12.797      517.449      359.877      163.772        0.069        0.052       18.613        9.576        0.265      340.966       15.352      862.359
11/09/2013  12:21:00       43.116       54.611        5.819       23.537       31.848       24.326      553.984     1014.301      591.764        0.352        0.108       69.580        8.827        0.016      341.029       15.459      862.337
11/09/2013  12:22:00        2.160       26.911       42.728       19.523       29.185       22.028      381.132      851.764      485.255        0.214        0.086       26.998       16.952        0.394      341.549       16.340      862.331
11/09/2013  12:23:00       22.260       49.087        5.905       29.366       36.225       25.188      862.341     1312.241      634.432        0.287        0.140       53.898       21.207        0.155      341.140       15.646      862.313
11/09/2013  12:24:00       -6.362      100.313      -16.826       20.949       34.805       17.334      438.856     1211.412      300.451        0.617        0.098      100.514       16.861        0.028      340.888       15.219      862.296
11/09/2013  12:25:00      -14.206       31.210        7.525       20.257       29.436       24.371      410.361      866.479      593.946        0.155        0.094       34.291       21.409        0.390      341.650       16.512      862.284
11/09/2013  12:26:00       26.514        0.513       11.781       37.968       19.176       21.099     1441.580      367.707      445.149        0.155        0.113       26.519       17.210        0.421      341.584       16.397      862.270
11/09/2013  12:27:00        2.151      -14.298       -7.105       30.646       73.501       27.270      939.150     5402.328      743.669        0.367        0.354       14.459       29.303        4.107      341.332       15.971      862.257
11/09/2013  12:28:00       43.856      -81.620      -17.783       34.803       48.249       30.697     1211.282     2327.928      942.276        0.669        0.224       92.656       23.544        0.065      341.131       15.632      862.247
11/09/2013  12:29:00       29.916      -44.763       -4.377       20.404       26.546       18.703      416.325      704.683      349.814        0.219        0.074       53.839       14.012        0.068      340.996       15.404      862.227
11/09/2013  12:30:00       59.930      -19.224       15.193       35.691       57.028       38.526     1273.881     3252.208     1484.268        0.510        0.301       62.938       35.803        0.324      341.389       16.067      862.212
11/09/2013  12:31:00      -16.006       12.194       52.888       21.903       37.742       28.042      479.749     1424.485      786.373        0.295        0.135       20.122       26.149        1.689      341.772       16.717      862.188
11/09/2013  12:32:00       -3.213       34.628       64.251       22.436       25.691       18.549      503.358      660.024      344.050        0.342        0.075       34.777       16.874        0.235      341.691       16.580      862.186
11/09/2013  12:33:00      -12.460       -1.390       20.041       13.805       20.304       17.811      190.574      412.242      317.248        0.074        0.046       12.537       12.541        1.001      341.758       16.693      862.163
11/09/2013  12:34:00       15.618      -29.801        5.989       34.006       36.218       23.317     1156.409     1311.756      543.674        0.209        0.151       33.645       19.800        0.346      341.815       16.791      862.155
11/09/2013  12:35:00        4.303       13.285       60.896       26.970       69.406       38.801      727.406     4817.261     1505.513        0.548        0.353       13.965       35.751        6.554      341.709       16.609      862.135
11/09/2013  12:36:00       55.457       75.017       52.440       71.693       38.145       50.615     5139.850     1455.030     2561.919        1.030        0.458       93.290       53.063        0.324      341.513       16.278      862.128
11/09/2013  12:37:00       75.918       47.893       12.100       32.641       41.509       27.125     1065.460     1722.993      735.772        0.586        0.176       89.762       18.368        0.042      341.383       16.057      862.127
11/09/2013  12:38:00      116.686       52.545       38.672       50.397       34.086       32.398     2539.851     1161.860     1049.614        1.131        0.238      127.971       22.975        0.032      341.162       15.683      862.111
11/09/2013  12:39:00       81.675       39.013       35.975       32.794       51.998       33.426     1075.441     2703.753     1117.279        0.719        0.245       90.514       25.798        0.081      341.163       15.683      862.107
11/09/2013  12:40:00       90.179       47.705       12.564       25.659       28.627       24.503      658.382      819.513      600.412        0.632        0.104      102.020       11.159        0.012      341.037       15.473      862.098
11/09/2013  12:41:00       34.040        0.773      -20.600       25.156       33.969       15.538      632.807     1153.890      241.433        0.181        0.101       34.049       10.253        0.091      341.188       15.726      862.097
11/09/2013  12:42:00      -36.331       26.686      -21.515       44.570       16.571       11.390     1986.484      274.613      129.725        0.244        0.120       45.078        9.938        0.049      341.159       15.678      862.082
11/09/2013  12:43:00        6.794       43.209       12.827       59.988       29.215       36.534     3598.580      853.535     1334.759        0.393        0.289       43.740       41.328        0.893      341.363       16.026      862.066
11/09/2013  12:44:00      114.206       72.254       16.803       47.592       35.914       32.550     2264.963     1289.816     1059.523        1.158        0.231      135.144       21.523        0.025      341.408       16.102      862.057
11/09/2013  12:45:00       58.498       62.293       -3.609       39.423       27.273       24.089     1554.137      743.807      580.299        0.510        0.144       85.454       18.405        0.046      341.195       15.737      862.047
11/09/2013  12:46:00       71.425       63.194       12.023       54.426       36.508       33.796     2962.196     1332.850     1142.182        0.734        0.272       95.368       24.330        0.065      341.404       16.093      862.038
11/09/2013  12:47:00       40.574       57.446        2.669       44.084       29.969       27.279     1943.437      898.124      744.133        0.427        0.179       70.330       18.421        0.069      341.477       16.217      862.027
11/09/2013  12:48:00       91.724       61.301       23.068       64.395       46.637       30.670     4146.746     2175.031      940.674        0.998        0.363      110.323       20.872        0.036      341.421       16.121      862.015
11/09/2013  12:49:00       67.261       84.182       -6.132       32.531       29.384       28.233     1058.297      863.443      797.094        0.718        0.136      107.753       19.045        0.031      341.252       15.836      862.010
11/09/2013  12:50:00       18.084       27.310       -5.195       41.643       27.549       16.986     1734.146      758.932      288.509        0.194        0.139       32.755       16.670        0.259      341.304       15.922      862.003
11/09/2013  12:51:00       -6.109       23.203        8.818       27.733       22.351       22.419      769.133      499.559      502.624        0.121        0.089       23.994       15.536        0.419      341.766       16.705      861.998
11/09/2013  12:52:00       71.993       52.658       14.531       53.684       37.834       32.284     2882.018     1431.441     1042.277        0.676        0.268       89.196       23.330        0.068      341.638       16.489      861.987
11/09/2013  12:53:00       89.706       63.342        2.879       44.338       34.253       28.575     1965.855     1173.240      816.528        0.801        0.198      109.815       21.569        0.039      341.494       16.246      861.987
11/09/2013  12:54:00       62.823       41.845       15.301       35.702       24.187       24.204     1274.608      585.008      585.817        0.419        0.122       75.484       11.073        0.022      341.445       16.163      861.975
11/09/2013  12:55:00      118.220       83.605        0.244       38.460       36.201       29.628     1479.154     1310.483      877.846        1.232        0.183      144.796       22.352        0.024      341.417       16.115      861.958
11/09/2013  12:56:00       30.797       71.327       -1.290       41.556       50.334       30.766     1726.939     2533.501      946.516        0.562        0.260       77.692       26.888        0.120      341.594       16.415      861.945
11/09/2013  12:57:00       59.195       65.211       -2.879       32.123       33.046       33.102     1031.904     1092.029     1095.755        0.549        0.161       88.071       17.612        0.040      341.493       16.244      861.930
11/09/2013  12:58:00       27.343       31.457       15.411       56.125       24.331       22.410     3150.071      592.001      502.209        0.311        0.212       41.680       24.882        0.356      341.808       16.777      861.928
11/09/2013  12:59:00       54.718       57.879       28.728       76.932       48.556       40.508     5918.551     2357.669     1640.912        0.854        0.496       79.650       35.842        0.202      342.003       17.108      861.913
11/09/2013  13:00:00       75.588       45.353       -9.204       37.640       34.135       23.597     1416.778     1165.173      556.816        0.550        0.157       88.150       12.182        0.019      341.627       16.472      861.915
11/09/2013  13:01:00       41.714       58.930        9.937       57.207       53.713       44.710     3272.631     2885.050     1998.960        0.673        0.408       72.200       37.146        0.265      341.673       16.549      861.915
11/09/2013  13:02:00      124.788       74.240       -1.334       45.703       55.573       33.834     2088.788     3088.344     1144.709        1.370        0.316      145.202       23.272        0.026      341.531       16.307      861.905
11/09/2013  13:03:00       58.451        5.811       13.812       36.799       34.763       28.705     1354.180     1208.488      823.987        0.351        0.169       58.739       21.014        0.128      341.589       16.407      861.915
11/09/2013  13:04:00       40.719       17.074       23.075       46.911       31.208       25.065     2200.648      973.912      628.246        0.314        0.190       44.154       17.787        0.162      341.939       17.000      861.907
11/09/2013  13:05:00       34.817       63.615       -3.462       22.224       26.961       19.170      493.910      726.893      367.470        0.343        0.079       72.519        8.281        0.013      341.872       16.886      861.900
11/09/2013  13:06:00       30.646       65.664       18.157       36.986       53.771       39.894     1367.943     2891.366     1591.517        0.571        0.293       72.463       34.547        0.227      341.899       16.932      861.893
11/09/2013  13:07:00       43.430       14.708       31.258       52.944       44.331       33.088     2803.064     1965.263     1094.830        0.447        0.293       45.853       25.876        0.318      341.963       17.041      861.880
11/09/2013  13:08:00      109.923       88.069       56.484       78.532       55.703       58.581     6167.230     3102.857     3431.768        1.786        0.635      140.852       53.172        0.143      341.745       16.670      861.873
11/09/2013  13:09:00      100.936       67.066       25.094       48.484       44.114       31.682     2350.663     1946.007     1003.751        1.031        0.265      121.186       18.093        0.022      341.743       16.667      861.876
11/09/2013  13:10:00       65.103       97.236       -2.950       33.528       47.367       33.076     1124.097     2243.632     1094.003        0.908        0.223      117.018       29.418        0.063      341.672       16.546      861.872
11/09/2013  13:11:00       25.384       38.761        2.313       38.213       52.030       31.042     1460.270     2707.091      963.587        0.364        0.257       46.333       29.183        0.397      341.885       16.910      861.868
11/09/2013  13:12:00       29.682       92.321       -2.020       32.852       56.373       27.650     1079.275     3177.864      764.509        0.721        0.251       96.975       33.438        0.119      341.814       16.789      861.852
11/09/2013  13:13:00       -5.949        0.395       11.684       47.404       28.955       21.173     2247.100      838.409      448.295        0.185        0.177        5.962       23.446       15.466      342.117       17.303      861.838
11/09/2013  13:14:00       -6.769      -17.480       11.328       26.369       22.378       14.063      695.299      500.758      197.763        0.094        0.070       18.745       12.746        0.462      342.372       17.736      861.831
11/09/2013  13:15:00       47.289       20.942        9.828       39.903       38.560       25.579     1592.253     1486.879      654.296        0.325        0.187       51.719       13.081        0.064      342.167       17.388      861.815
11/09/2013  13:16:00       37.912       41.398       55.575       47.336       62.864       46.746     2240.739     3951.829     2185.187        0.731        0.419       56.135       44.496        0.628      342.232       17.496      861.804
11/09/2013  13:17:00      112.877       97.800       85.865       56.639       56.687       41.195     3207.964     3213.407     1697.021        1.890        0.406      149.352       35.386        0.056      341.804       16.770      861.807
11/09/2013  13:18:00       67.223       75.655       93.827       56.815       51.918       35.789     3227.936     2695.441     1280.872        1.312        0.360      101.205       39.616        0.153      342.170       17.392      861.789
11/09/2013  13:19:00       34.447       36.568       39.964       51.709       46.203       48.254     2673.853     2134.744     2328.480        0.563        0.357       50.237       44.901        0.799      342.246       17.521      861.796
11/09/2013  13:20:00       34.976        6.158       56.169       31.788       84.827       41.170     1010.492     7195.683     1694.958        0.716        0.495       35.514       50.424        2.016      342.114       17.296      861.795
11/09/2013  13:21:00       67.975      -46.025       -3.066       39.706       35.600       25.652     1576.541     1267.347      658.040        0.512        0.175       82.090       23.791        0.084      341.901       16.934      861.790
11/09/2013  13:22:00        1.524       48.449       51.320       37.652       21.922       21.171     1417.705      480.590      448.222        0.366        0.117       48.473       18.000        0.138      342.133       17.330      861.784
11/09/2013  13:23:00      -32.943      -11.074       22.883       33.743       32.762       20.103     1138.564     1073.332      404.117        0.217        0.131       34.755       17.109        0.242      342.487       17.931      861.789
11/09/2013  13:24:00      -10.840      -19.463       15.514       30.350       24.239       17.576      921.133      587.514      308.928        0.128        0.091       22.278       14.322        0.413      342.531       18.005      861.779
11/09/2013  13:25:00       19.428      -17.144       20.388       26.398       41.733       22.443      696.870     1741.664      503.670        0.201        0.147       25.911       17.167        0.439      342.304       17.621      861.770
11/09/2013  13:26:00       65.599      -74.715        7.516       41.056       61.563       39.017     1685.618     3789.990     1522.313        0.847        0.350       99.426       35.996        0.131      342.223       17.482      861.766
11/09/2013  13:27:00       33.650       -2.944       51.858       50.638       85.052       54.798     2564.176     7233.792     3002.848        0.831        0.640       33.778       62.495        3.423      342.365       17.723      861.749
11/09/2013  13:28:00      146.402       95.705       52.853       60.292       56.831       43.741     3635.114     3229.797     1913.246        2.108        0.439      174.908       35.610        0.041      342.110       17.288      861.742
11/09/2013  13:29:00       72.968       69.688       30.563       36.576       30.877       52.704     1337.811      953.403     2777.733        0.809        0.253      100.900       18.197        0.033      342.028       17.150      861.750
11/09/2013  13:30:00       54.412       24.182       41.189       46.777       62.246       32.606     2188.067     3874.559     1063.143        0.618        0.356       59.544       39.688        0.444      342.099       17.272      861.734
11/09/2013  13:31:00       53.518       12.891       40.739       55.541       42.470       35.757     3084.834     1803.691     1278.557        0.543        0.308       55.048       35.526        0.416      342.214       17.466      861.714
11/09/2013  13:32:00       92.678       85.832       14.615       64.585       44.227       38.422     4171.176     1956.057     1476.234        1.189        0.380      126.318       29.013        0.053      342.214       17.467      861.714
11/09/2013  13:33:00       39.248       52.850        6.960       64.477       49.322       42.186     4157.287     2432.632     1779.678        0.637        0.418       65.829       37.191        0.319      342.207       17.457      861.705
11/09/2013  13:34:00       68.794       42.263       36.549       34.204       30.835       27.751     1169.899      950.798      770.135        0.537        0.145       80.739       11.953        0.022      342.137       17.337      861.697
11/09/2013  13:35:00       28.858       77.655       95.055       50.550       70.618       47.485     2555.345     4986.906     2254.831        1.285        0.490       82.844       40.959        0.244      342.398       17.780      861.690
11/09/2013  13:36:00       18.705      -33.014       31.512       49.834       81.236       42.274     2483.432     6599.268     1787.087        0.665        0.543       37.945       41.726        1.209      342.543       18.026      861.689
11/09/2013  13:37:00      105.241     -159.003      -23.599       84.563       54.537       34.056     7150.979     2974.255     1159.801        2.410        0.564      190.677       34.676        0.033      342.220       17.474      861.680
11/09/2013  13:38:00       12.237     -111.613      -10.543       44.172       64.679       34.103     1951.183     4183.437     1162.994        1.001        0.365      112.281       29.094        0.067      342.536       18.013      861.666
11/09/2013  13:39:00       51.931     -103.766       21.088       66.243       70.939       51.610     4388.201     5032.356     2663.560        1.299        0.604      116.036       40.587        0.122      342.521       17.988      861.663
11/09/2013  13:40:00       70.136      -21.534       33.729       63.089       83.167       43.800     3980.195     6916.777     1918.427        0.967        0.641       73.368       51.568        0.494      342.331       17.666      861.673
11/09/2013  13:41:00       35.159      -68.614        1.362       28.290       32.423       20.820      800.305     1051.266      433.483        0.412        0.114       77.097       18.698        0.059      342.337       17.677      861.671
11/09/2013  13:42:00       17.443      -15.225       24.610       23.502       29.917       20.374      552.321      895.003      415.096        0.150        0.093       23.153       18.083        0.610      342.785       18.439      861.659
11/09/2013  13:43:00       92.446      -49.393       15.848       57.646       96.093       55.565     3323.061     9233.882     3087.431        1.344        0.782      104.814       63.323        0.365      342.350       17.698      861.653
11/09/2013  13:44:00       75.390      -88.370       21.385       49.661       80.240       54.167     2466.249     6438.448     2934.045        1.289        0.592      116.159       57.415        0.244      342.394       17.772      861.641
11/09/2013  13:45:00      113.527     -157.289      -22.668       52.482       78.079       41.277     2754.390     6096.374     1703.794        2.435        0.528      193.980       23.466        0.015      342.442       17.851      861.624
11/09/2013  13:46:00      115.072      -60.306       18.773       79.873       99.086       50.212     6379.761     9818.054     2521.229        1.797        0.936      129.917       70.925        0.298      342.352       17.699      861.615
11/09/2013  13:47:00       85.527     -101.494       -4.395       48.920       58.055       31.976     2393.136     3370.330     1022.474        1.221        0.339      132.725       28.337        0.046      342.504       17.960      861.588
11/09/2013  13:48:00       27.060      -63.656       25.529       47.116      105.806       47.270     2219.950    11194.976     2234.425        1.054        0.782       69.169       65.620        0.900      342.605       18.133      861.562
11/09/2013  13:49:00       11.156      -21.405       24.035       30.622       57.178       39.285      937.699     3269.363     1543.279        0.345        0.288       24.138       26.512        1.206      342.655       18.217      861.565
11/09/2013  13:50:00       20.618      -44.679       19.623       39.533       66.979       35.993     1562.831     4486.191     1295.527        0.507        0.367       49.207       26.803        0.297      342.735       18.352      861.564
11/09/2013  13:51:00       40.547       35.935        4.520       82.629       51.331       37.624     6827.617     2634.849     1415.596        0.692        0.544       54.179       35.345        0.426      342.582       18.092      861.566
11/09/2013  13:52:00       70.448       45.084        4.659       31.611       24.717       15.900      999.248      610.949      252.799        0.444        0.093       83.639        9.991        0.014      342.251       17.529      861.566
11/09/2013  13:53:00       39.821       26.708       21.671       23.905       22.318       18.055      571.467      498.113      325.981        0.208        0.070       47.948        2.845        0.004      342.535       18.012      861.561
11/09/2013  13:54:00      -33.170       -6.462        0.135       27.435       26.849       19.075      752.675      720.882      363.850        0.149        0.092       33.793       11.933        0.125      342.819       18.495      861.567
11/09/2013  13:55:00       26.371      -42.409        1.109       43.751       55.331       30.772     1914.151     3061.526      946.923        0.421        0.296       49.940       32.561        0.425      342.784       18.435      861.575
11/09/2013  13:56:00       42.040      -42.864       14.991       43.661       70.371       34.680     1906.242     4952.095     1202.728        0.594        0.403       60.039       43.597        0.527      342.653       18.213      861.576
11/09/2013  13:57:00       32.757      -23.485       14.809       41.088       44.119       29.921     1688.187     1946.507      895.262        0.319        0.226       40.306       22.531        0.312      342.711       18.310      861.581
11/09/2013  13:58:00      -49.956      -28.388        3.328       48.800       45.903       21.277     2381.432     2107.105      452.717        0.413        0.247       57.458       11.312        0.039      342.736       18.354      861.581
11/09/2013  13:59:00      -87.491      -36.057        5.423       50.096       50.210       20.948     2509.634     2521.014      438.837        0.723        0.273       94.629       24.751        0.068      342.707       18.304      861.590
11/09/2013  14:00:00     -100.926      -23.699        1.401       48.587       40.715       20.233     2360.698     1657.715      409.384        0.759        0.221      103.671       19.693        0.036      342.619       18.155      861.588
11/09/2013  14:01:00      -39.388      -29.478        7.750       41.852       26.787       23.726     1751.560      717.566      562.905        0.276        0.152       49.197       11.308        0.053      342.732       18.348      861.603
11/09/2013  14:02:00      -46.128      -21.515       -5.969       28.047       13.300       13.956      786.612      176.891      194.758        0.189        0.058       50.898       10.127        0.040      342.610       18.140      861.614
11/09/2013  14:03:00      -69.127       -6.559       -0.630       24.612       35.225       17.658      605.741     1240.824      311.817        0.349        0.108       69.437       15.218        0.048      342.606       18.134      861.622
11/09/2013  14:04:00      -93.115      -17.774       -4.609       53.223       28.367       29.409     2832.703      804.659      864.860        0.675        0.225       94.796       24.479        0.067      342.752       18.381      861.617
11/09/2013  14:05:00       31.344       39.399       24.978       17.697       15.501       20.694      313.185      240.287      428.226        0.207        0.049       50.346        7.670        0.023      342.768       18.408      861.600
11/09/2013  14:06:00       37.644       33.242       41.955       36.325       25.173       27.384     1319.541      633.673      749.894        0.349        0.135       50.221       16.466        0.108      342.891       18.617      861.601
11/09/2013  14:07:00       24.885      -11.129       20.214       41.091       65.528       41.164     1688.480     4293.934     1694.468        0.441        0.384       27.261       35.052        1.653      342.932       18.687      861.605
11/09/2013  14:08:00        8.049      -41.920       31.325       34.777       58.473       40.918     1209.466     3419.055     1674.245        0.455        0.315       42.686       42.833        1.007      343.086       18.950      861.611
11/09/2013  14:09:00       -4.220       30.568       56.130       23.590       21.510       16.527      556.507      462.666      273.143        0.270        0.065       30.858       14.215        0.212      343.018       18.836      861.611
11/09/2013  14:10:00       11.727      -18.948        8.436       20.220       48.485       28.002      408.856     2350.825      784.109        0.206        0.177       22.283       33.522        2.263      342.999       18.801      861.604
11/09/2013  14:11:00       -2.215      -28.814        4.694       19.205       18.475       18.345      368.823      341.318      336.524        0.095        0.052       28.899        7.008        0.059      343.028       18.850      861.601
11/09/2013  14:12:00       -8.972      -23.352        5.301       15.950       20.016       16.680      254.400      400.657      278.225        0.079        0.047       25.016       12.166        0.237      343.469       19.603      861.605
11/09/2013  14:13:00       42.061       16.919       25.271       43.239       17.669       22.591     1869.634      312.179      510.346        0.269        0.135       45.336       15.475        0.117      342.929       18.682      861.610
11/09/2013  14:14:00       45.594       87.532       -9.463       26.999       53.609       25.520      728.961     2873.896      651.271        0.704        0.213       98.694       28.143        0.081      342.721       18.328      861.612
11/09/2013  14:15:00       64.600       45.043       11.858       32.886       23.665       28.654     1081.480      560.030      821.076        0.440        0.123       78.753       17.594        0.050      342.761       18.395      861.618
11/09/2013  14:16:00       33.379       22.685        0.129       22.688       18.418       16.998      514.762      339.213      288.944        0.139        0.057       40.358        1.818        0.002      342.863       18.571      861.629
11/09/2013  14:17:00       17.347        1.366        4.135       21.037       18.116       14.078      442.556      328.184      198.198        0.064        0.048       17.400        7.389        0.180      343.094       18.964      861.621
11/09/2013  14:18:00       46.407       16.693       44.320       35.725       31.305       26.703     1276.268      980.018      713.076        0.368        0.148       49.318       17.669        0.128      342.944       18.708      861.626
11/09/2013  14:19:00       46.826      -25.671       21.663       31.457       70.228       33.028      989.564     4931.984     1090.837        0.517        0.351       53.401       41.998        0.619      342.836       18.524      861.628
11/09/2013  14:20:00      120.722     -168.644        0.743       67.931       97.030       35.747     4614.673     9414.760     1277.839        2.916        0.765      207.400       48.755        0.055      342.764       18.398      861.613
11/09/2013  14:21:00       98.390      -97.597       -5.614       55.038       95.078       59.393     3029.183     9039.782     3527.490        1.741        0.780      138.585       63.460        0.210      342.888       18.610      861.600
11/09/2013  14:22:00       34.178       39.205       64.838       47.729       49.961       40.388     2278.051     2496.080     1631.197        0.666        0.320       52.011       31.641        0.370      343.006       18.814      861.604
11/09/2013  14:23:00       61.731     -137.947      -15.392       52.595       41.490       25.102     2766.259     1721.425      630.086        1.410        0.256      151.129       19.442        0.017      342.841       18.533      861.611
11/09/2013  14:24:00       79.485      -89.844       -8.031       24.926       44.597       20.294      621.288     1988.926      411.839        0.874        0.151      119.958       16.259        0.018      342.793       18.452      861.609
11/09/2013  14:25:00       19.573      -42.845        2.688       23.740       36.297       26.087      563.608     1317.485      680.551        0.239        0.128       47.104       25.041        0.283      343.057       18.901      861.595
11/09/2013  14:26:00      -45.300       -1.975        9.034       43.253       42.778       29.497     1870.813     1829.990      870.087        0.335        0.229       45.343       26.312        0.337      343.047       18.885      861.588
11/09/2013  14:27:00      -41.739      -20.366       14.549       55.299       26.981       22.542     3057.978      727.993      508.141        0.333        0.215       46.442       21.048        0.205      343.261       19.249      861.580
11/09/2013  14:28:00        1.338      -33.760        5.909       21.012       26.313       19.620      441.495      692.386      384.959        0.135        0.076       33.787       11.503        0.116      343.180       19.111      861.574
11/09/2013  14:29:00        3.328      -56.733        5.241       38.576       37.655       26.386     1488.137     1417.905      696.243        0.343        0.180       56.831       22.206        0.153      343.118       19.005      861.574
11/09/2013  14:30:00       30.341     -130.754        1.184       44.439       47.316       35.837     1974.804     2238.838     1284.267        1.176        0.275      134.228       10.378        0.006      343.016       18.831      861.573
11/09/2013  14:31:00       71.142      -88.727        7.394       57.825       60.925       40.696     3343.721     3711.825     1656.127        1.085        0.436      113.726       13.847        0.015      342.975       18.762      861.580
11/09/2013  14:32:00       45.782      -37.539       20.197       21.613       31.909       23.661      467.142     1018.199      559.864        0.298        0.102       59.205       20.050        0.115      342.793       18.450      861.588
11/09/2013  14:33:00       43.970       -2.223        2.916       24.821       37.307       19.472      616.095     1391.786      379.156        0.217        0.119       44.026       14.184        0.104      342.850       18.549      861.574
11/09/2013  14:34:00       12.099      -25.826        3.397       14.184       22.262       16.525      201.186      495.599      273.085        0.090        0.048       28.519       10.758        0.142      343.113       18.996      861.567
11/09/2013  14:35:00       -5.013      -10.020        6.738       18.988       18.371       14.280      360.552      337.498      203.926        0.054        0.045       11.204       15.880        2.009      343.253       19.236      861.570
11/09/2013  14:36:00      -65.100      -13.626        9.355       54.081       42.562       24.053     2924.706     1811.557      578.557        0.491        0.266       66.511       24.669        0.138      343.138       19.038      861.558
11/09/2013  14:37:00     -146.392      -58.809      -14.687       51.033       36.932       29.578     2604.346     1363.939      874.882        1.497        0.242      157.763       24.181        0.023      343.036       18.865      861.540
11/09/2013  14:38:00      -77.331      -20.882      -11.060       34.432       49.126       22.115     1185.539     2413.384      489.094        0.531        0.204       80.101       13.184        0.027      342.932       18.688      861.532
11/09/2013  14:39:00      -73.816       72.008      -30.443       24.174       35.938       19.345      584.387     1291.509      374.242        0.691        0.113      103.121       11.247        0.012      342.936       18.694      861.522
11/09/2013  14:40:00      -79.975       72.585      -21.495       38.135       31.178       22.034     1454.300      972.079      485.478        0.752        0.146      108.003       12.287        0.013      342.987       18.781      861.517
11/09/2013  14:41:00      -18.328       59.774      -12.413       22.093       22.907       14.344      488.114      524.711      205.737        0.264        0.061       62.521       10.220        0.027      342.870       18.581      861.515
11/09/2013  14:42:00      -16.175       56.914       -7.219       17.751       18.104       15.574      315.097      327.748      242.535        0.222        0.044       59.168       15.992        0.073      342.899       18.631      861.506
11/09/2013  14:43:00       27.139      -15.810        3.114       20.000       23.210       11.773      399.983      538.722      138.596        0.104        0.054       31.408        7.803        0.062      343.045       18.880      861.512
11/09/2013  14:44:00      -10.606       21.237       36.911       23.453       24.284       25.416      550.031      589.707      645.948        0.186        0.089       23.738       17.028        0.515      343.216       19.173      861.516
11/09/2013  14:45:00       30.608      -59.838        0.110       29.070       34.907       26.913      845.074     1218.478      724.317        0.365        0.139       67.211       22.757        0.115      342.985       18.778      861.524
11/09/2013  14:46:00       31.309      -12.592       29.324       43.610       34.305       27.078     1901.858     1176.856      733.234        0.290        0.191       33.746       17.409        0.266      343.018       18.834      861.529
11/09/2013  14:47:00       24.655      -22.934        7.233       24.760       26.867       19.158      613.076      721.834      367.034        0.144        0.085       33.673       19.541        0.337      343.070       18.924      861.528
11/09/2013  14:48:00       20.662      -10.061       22.610       28.151       16.748       13.852      792.497      280.507      191.870        0.115        0.063       22.981        3.763        0.027      343.321       19.351      861.522
11/09/2013  14:49:00        7.241       -5.667       16.646       16.293       26.888       19.113      265.468      722.950      365.301        0.086        0.068        9.195       18.241        3.936      343.392       19.472      861.532
11/09/2013  14:50:00       31.997      -42.196        9.831       32.869       44.128       32.513     1080.399     1947.315     1057.126        0.349        0.204       52.956       32.400        0.374      343.123       19.012      861.532
11/09/2013  14:51:00       43.807      -46.867        7.845       39.014       48.119       28.155     1522.105     2315.452      792.713        0.440        0.232       64.153       28.317        0.195      343.099       18.973      861.536
11/09/2013  14:52:00       27.141       23.186       48.119       38.112       31.809       26.354     1452.556     1011.811      694.557        0.337        0.158       35.696       20.743        0.338      343.102       18.978      861.534
11/09/2013  14:53:00       20.393      -69.559        7.237       29.471       42.325       26.976      868.546     1791.395      727.678        0.435        0.169       72.487       25.747        0.126      343.222       19.181      861.526
11/09/2013  14:54:00       22.817       13.589       17.122       32.226       45.633       24.347     1038.537     2082.334      592.775        0.236        0.186       26.557       27.942        1.107      343.228       19.192      861.528
11/09/2013  14:55:00       42.214       44.129        2.588       22.893       32.887       24.162      524.067     1081.557      583.796        0.296        0.109       61.068       22.769        0.139      343.128       19.022      861.532
11/09/2013  14:56:00      -11.465       90.445      -18.471       23.021       21.444       15.590      529.970      459.827      243.056        0.494        0.062       91.169       11.991        0.017      343.040       18.871      861.531
11/09/2013  14:57:00        1.075      139.159      -17.181       29.634       26.283       20.285      878.201      690.811      411.477        1.082        0.099      139.164       12.083        0.008      342.940       18.700      861.528
11/09/2013  14:58:00       10.490       97.267       -9.032       33.376       51.533       24.282     1113.951     2655.672      589.636        0.701        0.218       97.831       21.539        0.048      343.030       18.854      861.516
11/09/2013  14:59:00       25.903       43.304        2.364       26.895       29.999       25.360      723.363      899.936      643.116        0.241        0.113       50.460       19.091        0.143      343.068       18.920      861.522
11/09/2013  15:00:00       10.659       33.012       -1.342       21.116       32.183       21.004      445.870     1035.716      441.177        0.156        0.096       34.690       16.748        0.233      343.087       18.954      861.521
11/09/2013  15:01:00       15.046       80.110       -9.972       19.634       23.113       19.076      385.488      534.214      363.892        0.401        0.064       81.510       15.820        0.038      343.001       18.805      861.522
11/09/2013  15:02:00       19.284       65.410      -13.292       20.086       28.899       13.014      403.464      835.135      169.372        0.312        0.070       68.193       13.219        0.038      343.006       18.814      861.511
11/09/2013  15:03:00       24.168       88.385       -7.507       24.435       37.432       26.261      597.065     1401.119      689.641        0.557        0.134       91.629       27.575        0.091      342.993       18.791      861.494
11/09/2013  15:04:00      -18.227       78.861      -14.723       16.890       15.776       14.765      285.282      248.869      218.013        0.376        0.038       80.940        9.481        0.014      343.059       18.903      861.487
11/09/2013  15:05:00       -4.770       85.628      -14.454       25.693       17.642       14.453      660.153      311.244      208.896        0.437        0.059       85.761       11.330        0.017      343.124       19.015      861.489
11/09/2013  15:06:00      -25.568       65.472      -13.800       29.311       21.963       14.808      859.131      482.370      219.281        0.335        0.078       70.287       11.714        0.028      343.229       19.194      861.484
11/09/2013  15:07:00      -13.821       43.709       -9.399       22.467       20.267       19.135      504.769      410.742      366.150        0.174        0.064       45.842       13.179        0.083      343.331       19.367      861.484
11/09/2013  15:08:00       11.676        0.962       -8.255       16.057       18.700        9.775      257.813      349.696       95.545        0.045        0.035       11.716        5.932        0.256      343.131       19.026      861.479
11/09/2013  15:09:00       -6.788       28.277       -4.898       16.507       27.653       13.801      272.490      764.666      190.479        0.105        0.061       29.080       15.448        0.282      343.247       19.225      861.466
11/09/2013  15:10:00      -10.568       59.375       -5.097       19.276       22.730       14.972      371.582      516.650      224.157        0.239        0.056       60.308       14.754        0.060      343.142       19.046      861.470
11/09/2013  15:11:00      -39.899       31.423       -3.491       31.626       25.901       20.250     1000.192      670.862      410.047        0.234        0.104       50.787       23.756        0.219      343.445       19.561      861.468
11/09/2013  15:12:00      -42.407       85.930       -5.786       18.976       26.300       19.999      360.077      691.682      399.965        0.533        0.073       95.825       11.562        0.015      343.174       19.099      861.473
11/09/2013  15:13:00      -31.848       36.989       -6.704       23.743       43.139       15.401      563.724     1860.980      237.189        0.254        0.133       48.810       17.962        0.135      343.136       19.034      861.474
11/09/2013  15:14:00       -8.097      -13.404      -10.870       14.875       11.207       13.520      221.279      125.606      182.779        0.045        0.026       15.660       10.572        0.456      343.383       19.457      861.472
11/09/2013  15:15:00       23.259      -29.948        9.812       14.524       18.209       11.374      210.939      331.555      129.357        0.110        0.034       37.919        8.702        0.053      343.301       19.316      861.467
11/09/2013  15:16:00       21.126      -47.514       -1.458       20.914       18.443       12.348      437.376      340.160      152.469        0.182        0.047       51.999        7.313        0.020      343.293       19.302      861.459
11/09/2013  15:17:00       10.286       -4.487       10.564       13.919       15.699        9.742      193.744      246.456       94.905        0.039        0.027       11.222        8.622        0.590      343.332       19.369      861.458
11/09/2013  15:18:00       21.665       26.975       12.766       20.464       15.961       10.951      418.765      254.760      119.923        0.108        0.040       34.598        6.223        0.032      343.180       19.111      861.458
11/09/2013  15:19:00       -1.755        5.680       27.522       16.116       18.788       11.397      259.733      353.003      129.884        0.077        0.037        5.945        9.459        2.531      343.520       19.690      861.457
11/09/2013  15:20:00       -7.015       29.572       32.738       19.201       21.064       16.092      368.673      443.713      258.947        0.153        0.054       30.392       13.532        0.198      343.298       19.310      861.460
11/09/2013  15:21:00       24.021      -41.733       12.995       64.436       27.380       19.978     4151.943      749.690      399.131        0.389        0.265       48.152       22.688        0.222      343.260       19.247      861.457
11/09/2013  15:22:00       62.526      -67.100        9.225       37.782       56.624       29.637     1427.474     3206.332      878.334        0.700        0.276       91.717       33.411        0.133      343.140       19.042      861.446
11/09/2013  15:23:00       93.077      -71.913        2.010       35.419       41.266       29.688     1254.541     1702.900      881.363        0.884        0.192      117.622       27.928        0.056      343.022       18.840      861.443
11/09/2013  15:24:00       80.691      -66.597        5.532       38.130       40.478       26.469     1453.934     1638.505      700.607        0.738        0.190      104.624       25.887        0.061      343.100       18.975      861.443
11/09/2013  15:25:00       56.972      -74.421        3.918       29.183       30.429       22.230      851.625      925.954      494.181        0.554        0.114       93.725       18.545        0.039      343.229       19.194      861.444
11/09/2013  15:26:00       83.001     -135.821      -15.326       38.988       30.650       20.539     1520.084      939.440      421.866        1.423        0.144      159.174       19.590        0.015      343.223       19.185      861.447
11/09/2013  15:27:00       45.971      -76.356       14.647       53.389       58.057       35.198     2850.398     3370.604     1238.907        0.781        0.373       89.126       34.859        0.153      343.251       19.233      861.447
11/09/2013  15:28:00       48.054      -52.309        3.233       31.620       45.761       26.525      999.848     2094.093      703.594        0.443        0.190       71.031       18.633        0.069      343.242       19.216      861.453
11/09/2013  15:29:00       38.645       25.795        7.284       24.248       31.513       19.516      587.971      993.041      380.862        0.209        0.098       46.463       14.869        0.102      343.128       19.020      861.458
11/09/2013  15:30:00       12.948       13.722       12.847       19.422       19.892       14.932      377.213      395.688      222.974        0.076        0.050       18.866        9.973        0.279      343.288       19.295      861.457
11/09/2013  15:31:00       38.024      -19.704        0.342       26.065       17.173       15.379      679.385      294.915      236.516        0.152        0.061       42.826        9.599        0.050      343.221       19.181      861.462
11/09/2013  15:32:00       34.123      -35.771        4.309       17.435       19.431       15.513      303.978      377.564      240.645        0.169        0.046       49.436        5.574        0.013      343.208       19.158      861.466
11/09/2013  15:33:00       17.462       -2.810       11.835       15.838       10.464        9.847      250.833      109.499       96.968        0.046        0.023       17.686        5.559        0.099      343.309       19.331      861.468
11/09/2013  15:34:00        3.396      -10.755       -1.297       10.505        9.396        9.568      110.348       88.283       91.555        0.021        0.015       11.278        3.917        0.121      343.366       19.427      861.462
11/09/2013  15:35:00       -1.239      -27.371       -7.871       22.299       25.014       16.861      497.259      625.721      284.299        0.111        0.070       27.399       15.841        0.334      343.425       19.528      861.464
11/09/2013  15:36:00       -3.522       -1.972        2.517       16.793       11.339       16.678      282.007      128.569      278.162        0.036        0.034        4.036       11.348        7.904      343.544       19.731      861.462
11/09/2013  15:37:00        3.628      -26.478       -6.399       23.116       20.122       20.329      534.334      404.900      413.261        0.105        0.068       26.725       14.150        0.280      343.415       19.511      861.460
11/09/2013  15:38:00        3.380      -22.295        6.950       34.574       24.445       20.080     1195.391      597.537      403.209        0.138        0.110       22.550       15.042        0.445      343.406       19.494      861.468
11/09/2013  15:39:00      -21.054       -6.735       -0.782       21.683       21.217       19.365      470.134      450.155      374.995        0.089        0.065       22.105       14.322        0.420      343.296       19.308      861.466
11/09/2013  15:40:00       -9.409       19.281        6.086       39.500       20.511       21.492     1560.287      420.697      461.891        0.147        0.122       21.454       14.373        0.449      343.301       19.317      861.469
11/09/2013  15:41:00       14.898        1.016       -1.742       15.327       13.992       14.651      234.927      195.765      214.646        0.044        0.032       14.933        9.329        0.390      343.332       19.370      861.468
11/09/2013  15:42:00       13.958       10.259        5.718       13.304        6.619        8.328      176.989       43.810       69.352        0.031        0.015       17.323        6.696        0.149      343.184       19.117      861.469
11/09/2013  15:43:00        7.778       17.891       16.188       12.962        8.741        9.167      168.009       76.397       84.032        0.049        0.016       19.508        6.070        0.097      343.171       19.094      861.469
11/09/2013  15:44:00       34.713       26.754        6.320       14.539       11.720       12.899      211.369      137.370      166.378        0.124        0.026       43.826        9.644        0.048      343.123       19.013      861.465
11/09/2013  15:45:00       30.152       29.143       27.392       27.480       27.829       18.319      755.139      774.451      335.584        0.219        0.093       41.934       12.116        0.083      343.132       19.029      861.464
11/09/2013  15:46:00       28.976       -3.650       26.032       28.392       70.527       29.681      806.125     4974.055      880.978        0.409        0.333       29.205       38.591        1.746      343.154       19.065      861.462
11/09/2013  15:47:00        0.691        2.365       12.194       12.423       18.560       14.322      154.326      344.468      205.112        0.043        0.035        2.464       11.331       21.147      343.361       19.419      861.470
11/09/2013  15:48:00       13.834      -30.777       -5.621       10.986       12.785       11.108      120.701      163.465      123.386        0.079        0.020       33.743        5.394        0.026      343.298       19.310      861.471
11/09/2013  15:49:00       30.319      -43.178       -9.462       16.818       26.746       13.936      282.842      715.347      194.208        0.203        0.060       52.759        6.018        0.013      343.206       19.155      861.470
11/09/2013  15:50:00       11.431      -33.246       -6.942       30.424       25.681       19.137      925.607      659.489      366.232        0.162        0.098       35.156       20.931        0.354      343.213       19.166      861.472
11/09/2013  15:51:00      -37.824      -29.535       -0.540       28.785       22.957       16.014      828.560      527.005      256.458        0.196        0.081       47.990        7.854        0.027      343.277       19.275      861.481
11/09/2013  15:52:00        9.053      -18.780        7.418       45.516       20.984       20.047     2071.750      440.322      401.869        0.170        0.146       20.848       20.967        1.012      343.184       19.118      861.484
11/09/2013  15:53:00       63.610      -65.777        3.076       27.670       25.325       20.838      765.654      641.338      434.220        0.511        0.092       91.503       17.055        0.035      343.168       19.090      861.484
11/09/2013  15:54:00       62.772      -42.363        9.452       24.350       31.123       26.470      592.937      968.643      700.646        0.404        0.113       75.729       27.046        0.128      343.099       18.973      861.490
11/09/2013  15:55:00       28.903      -32.291        5.067       14.735       22.792       17.763      217.123      519.492      315.539        0.148        0.053       43.337       18.097        0.174      343.137       19.037      861.490
11/09/2013  15:56:00       14.105      -29.359        0.753       17.913       26.303       12.480      320.876      691.829      155.742        0.111        0.058       32.571       15.210        0.218      343.276       19.274      861.483
11/09/2013  15:57:00       -5.806       -5.558        5.865       14.635       18.275        9.812      214.173      333.986       96.271        0.037        0.032        8.037        7.109        0.782      343.367       19.430      861.484
11/09/2013  15:58:00       44.285      -38.056       -2.843       22.042       18.384       12.441      485.839      337.971      154.787        0.220        0.049       58.391        7.945        0.019      343.134       19.031      861.472
11/09/2013  15:59:00       50.058      -13.556        6.834       19.592       14.427       15.094      383.827      208.145      227.830        0.178        0.041       51.861       12.399        0.057      343.113       18.996      861.469
11/09/2013  16:00:00       20.309      -11.530        4.125       18.902       16.478       14.052      357.281      271.532      197.448        0.069        0.041       23.354        8.835        0.143      343.129       19.024      861.476
11/09/2013  16:01:00       21.754      -16.783        9.736       32.803       14.745       13.210     1076.052      217.416      174.517        0.116        0.073       27.476       13.094        0.227      343.209       19.159      861.473
11/09/2013  16:02:00        9.408      -16.107        3.470       12.629       16.780        9.049      159.486      281.567       81.890        0.044        0.026       18.653        9.034        0.235      343.145       19.051      861.472
11/09/2013  16:03:00       31.954      -25.383       -1.262       18.760       12.125       13.076      351.921      147.007      170.978        0.117        0.033       40.809       10.406        0.065      343.164       19.083      861.474
11/09/2013  16:04:00       21.110      -22.930        5.197       25.340       26.798       14.516      642.099      718.133      210.728        0.128        0.079       31.167       15.082        0.234      343.140       19.044      861.468
11/09/2013  16:05:00       26.100      -33.289       11.089       13.853       18.564       18.528      191.897      344.608      343.272        0.140        0.044       42.301       14.895        0.124      343.218       19.176      861.462
11/09/2013  16:06:00       14.136      -37.900       15.002       14.522       14.237       13.582      210.893      202.684      184.466        0.123        0.030       40.451        7.614        0.035      343.216       19.172      861.461
11/09/2013  16:07:00        8.042       -8.871        2.991        7.306       14.224        8.647       53.375      202.331       74.770        0.024        0.017       11.973        8.311        0.482      343.267       19.258      861.464
11/09/2013  16:08:00      -62.470      -28.371       -0.143       43.756       19.654       11.127     1914.601      386.293      123.805        0.357        0.121       68.611       15.641        0.052      343.167       19.089      861.471
11/09/2013  16:09:00      -49.211      -20.715        0.167       25.663       23.348       15.871      658.576      545.149      251.881        0.215        0.073       53.393       16.223        0.092      343.134       19.031      861.472
11/09/2013  16:10:00      -66.303      -27.235       -2.222       13.817       15.511       13.530      190.914      240.595      183.063        0.288        0.031       71.678        6.667        0.009      343.231       19.196      861.476
11/09/2013  16:11:00      -16.037      -34.576       -0.073       33.521       20.269       11.897     1123.676      410.836      141.544        0.156        0.084       38.114        8.697        0.052      343.214       19.169      861.478
11/09/2013  16:12:00       11.793      -15.945        4.385       13.916       21.617       12.944      193.660      467.310      167.546        0.062        0.041       19.832       12.801        0.417      343.207       19.158      861.484
11/09/2013  16:13:00      -24.886      -12.392       -0.612       28.537       26.502       12.200      814.387      702.374      148.840        0.122        0.083       27.800       12.249        0.194      343.301       19.316      861.485
11/09/2013  16:14:00      -20.702       -6.592        4.272       28.555       13.954       14.307      815.407      194.715      204.676        0.085        0.061       21.726       14.162        0.425      343.288       19.295      861.488
11/09/2013  16:15:00       -2.418       -5.729       15.587       19.754        8.104        9.988      390.204       65.667       99.753        0.042        0.028        6.218       11.875        3.648      343.303       19.320      861.490
11/09/2013  16:16:00      -17.364       -4.592        4.609       20.325       15.909        9.970      413.120      253.110       99.398        0.055        0.038       17.961        6.868        0.146      343.178       19.107      861.493
11/09/2013  16:17:00      -21.870      -11.189        3.121       21.129       15.115       13.896      446.429      228.452      193.103        0.074        0.043       24.566        9.608        0.153      343.085       18.947      861.499
11/09/2013  16:18:00        3.763        4.203        1.116       11.988        9.249       11.286      143.709       85.540      127.367        0.019        0.018        5.641        5.887        1.089      343.047       18.883      861.497
11/09/2013  16:19:00       -3.265       -8.269       -6.414       13.401        8.818        5.195      179.592       77.755       26.993        0.020        0.014        8.890        4.842        0.297      342.997       18.798      861.492
11/09/2013  16:20:00      -36.616       12.293        0.530       11.192       12.427        8.861      125.260      154.442       78.512        0.093        0.018       38.624        4.428        0.013      343.070       18.923      861.481
11/09/2013  16:21:00       -4.810       17.828        0.743       16.998       14.279        9.473      288.931      203.889       89.746        0.046        0.029       18.466        7.054        0.146      343.089       18.957      861.475
11/09/2013  16:22:00        5.544       19.251       21.786       11.026       16.409       11.802      121.569      269.271      139.279        0.070        0.027       20.034        9.595        0.229      342.952       18.721      861.476
11/09/2013  16:23:00        8.080       26.591       21.397       13.840       17.850       12.241      191.533      318.610      149.846        0.094        0.033       27.792       10.424        0.141      342.925       18.676      861.486
11/09/2013  16:24:00       35.498       43.234       -2.759       13.022       14.324       11.749      169.575      205.176      138.046        0.182        0.026       55.940        9.163        0.027      342.786       18.440      861.498
11/09/2013  16:25:00       59.429       40.222        5.230       42.074       26.711       20.898     1770.204      713.456      436.726        0.405        0.146       71.761       13.858        0.037      342.593       18.111      861.509
11/09/2013  16:26:00       41.644      123.612      -16.506       43.596       88.713       36.856     1900.645     7870.008     1358.381        1.421        0.556      130.438       42.914        0.108      342.680       18.257      861.511
11/09/2013  16:27:00      157.485      112.789        8.945       94.477       59.264       46.746     8925.910     3512.167     2185.194        2.611        0.731      193.709       26.352        0.019      342.660       18.221      861.513
11/09/2013  16:28:00       92.026       71.110        4.507       48.754       46.034       31.325     2376.932     2119.138      981.268        0.951        0.274      116.299       14.595        0.016      342.544       18.028      861.530
11/09/2013  16:29:00       42.031       28.492        2.581       31.742       21.799       18.687     1007.538      475.214      349.206        0.221        0.092       50.778       13.572        0.071      342.477       17.915      861.546
11/09/2013  16:30:00       99.070       61.604       21.430       55.717       33.449       24.951     3104.400     1118.825      622.534        0.946        0.242      116.662        8.568        0.005      342.435       17.842      861.562
11/09/2013  16:31:00      149.631       96.047        9.675       54.981       50.086       37.093     3022.911     2508.638     1375.879        1.931        0.345      177.805        9.150        0.003      342.537       18.015      861.568
11/09/2013  16:32:00       69.258       56.511       11.151       47.138       38.008       38.454     2222.012     1444.603     1478.698        0.663        0.257       89.388       26.734        0.089      342.419       17.816      861.579
11/09/2013  16:33:00       96.526       59.990       15.386       40.925       29.591       39.630     1674.872      875.654     1570.539        0.864        0.206      113.649       19.778        0.030      342.380       17.748      861.594
11/09/2013  16:34:00      110.140       63.019        9.413       38.691       25.018       21.393     1496.979      625.893      457.678        0.939        0.129      126.895       13.730        0.012      342.320       17.648      861.616
11/09/2013  16:35:00      108.292       50.976       17.461       45.417       33.530       35.513     2062.696     1124.265     1261.169        0.954        0.222      119.690       23.555        0.039      342.292       17.599      861.619
11/09/2013  16:36:00       84.829       27.064       34.531       48.778       44.492       31.472     2379.319     1979.503      990.473        0.723        0.267       89.042       28.421        0.102      342.261       17.546      861.628
11/09/2013  16:37:00       65.545       45.250       40.374       27.617       21.503       26.009      762.688      462.399      676.470        0.494        0.095       79.647       18.833        0.056      342.189       17.423      861.655
11/09/2013  16:38:00       48.964       25.243       41.712       31.874       22.387       23.594     1015.947      501.184      556.653        0.342        0.104       55.087       11.405        0.043      342.236       17.505      861.658
11/09/2013  16:39:00       68.850       15.995       12.451       39.783       29.792       27.000     1582.704      887.581      729.021        0.417        0.160       70.684       19.063        0.073      342.262       17.549      861.660
11/09/2013  16:40:00       64.811       34.358       34.197       34.798       37.424       30.516     1210.881     1400.579      931.219        0.505        0.177       73.355       23.513        0.103      342.250       17.529      861.682
11/09/2013  16:41:00       12.602       22.198       35.935       29.082       23.860       15.490      845.757      569.276      239.949        0.180        0.083       25.526       10.898        0.182      342.276       17.573      861.699
11/09/2013  16:42:00       26.243       12.222       30.615       33.021       23.267       22.334     1090.354      541.370      498.819        0.195        0.107       28.949       22.156        0.586      342.145       17.350      861.706
11/09/2013  16:43:00       16.607       22.728       52.017       25.472       50.357       22.229      648.826     2535.837      494.145        0.359        0.184       28.149       24.677        0.769      342.367       17.727      861.722
11/09/2013  16:44:00       45.378        4.526       30.648       26.630       38.715       29.545      709.151     1498.816      872.880        0.305        0.154       45.603       31.111        0.465      342.352       17.701      861.739
11/09/2013  16:45:00       54.032       60.993       60.431       58.899       31.830       25.283     3469.129     1013.171      639.241        0.771        0.256       81.484       26.161        0.103      342.345       17.688      861.741
11/09/2013  16:46:00       69.895       55.729       46.579       39.302       28.653       29.119     1544.628      821.013      847.926        0.669        0.161       89.392       23.705        0.070      342.469       17.902      861.750
11/09/2013  16:47:00       13.564       35.704       52.511       30.249       26.311       17.938      915.030      692.263      321.788        0.307        0.096       38.194       20.845        0.298      342.380       17.746      861.755
11/09/2013  16:48:00       26.560       29.965       48.556       31.906       27.405       21.665     1017.996      751.033      469.391        0.310        0.112       40.042       22.367        0.312      342.288       17.593      861.773
11/09/2013  16:49:00       61.462       53.760       15.373       29.580       19.390       21.444      874.964      375.991      459.845        0.431        0.086       81.656       17.658        0.047      342.289       17.595      861.775
11/09/2013  16:50:00       36.693       48.062       50.092       36.836       35.339       25.245     1356.874     1248.827      637.288        0.470        0.162       60.468       20.673        0.117      342.194       17.434      861.796
11/09/2013  16:51:00       75.566       49.555       25.183       38.166       27.735       29.648     1456.664      769.206      878.992        0.595        0.155       90.365       21.784        0.058      342.233       17.500      861.806
11/09/2013  16:52:00       57.531       45.936       37.984       32.815       21.854       27.233     1076.849      477.587      741.640        0.458        0.115       73.620       17.258        0.055      342.117       17.303      861.824
11/09/2013  16:53:00        1.430       42.315       58.200       19.350       28.266       20.603      374.426      798.955      424.502        0.339        0.080       42.340       20.256        0.229      342.109       17.288      861.838
11/09/2013  16:54:00       18.316       56.129       57.904       39.742       25.254       29.093     1579.391      637.761      846.375        0.495        0.153       59.042       29.325        0.247      342.213       17.465      861.853
11/09/2013  16:55:00        1.214       14.044       36.329       16.089       18.063       14.413      258.848      326.272      207.737        0.116        0.040       14.097       11.380        0.652      342.159       17.374      861.851
11/09/2013  16:56:00        1.295       25.914       38.088       17.620       14.294       12.349      310.467      204.314      152.495        0.140        0.033       25.947        8.211        0.100      342.176       17.402      861.867
11/09/2013  16:57:00       10.167       11.405       21.258       18.195       16.175       12.725      331.057      261.626      161.918        0.072        0.038       15.279       10.190        0.445      342.051       17.192      861.869
11/09/2013  16:58:00       63.582        7.020       12.825       27.019       11.626       15.043      730.009      135.158      226.303        0.267        0.055       63.968       13.287        0.043      342.140       17.340      861.885
11/09/2013  16:59:00       62.667       46.156       18.159       16.436       13.371       14.670      270.153      178.784      215.200        0.353        0.033       77.830        8.261        0.011      342.184       17.416      861.897
11/09/2013  17:00:00       64.744       44.513        8.467       15.955       11.707       12.747      254.573      137.060      162.494        0.340        0.028       78.569        8.014        0.010      342.128       17.322      861.908
11/09/2013  17:01:00       67.144       37.031       11.260       14.086       10.756       12.770      198.422      115.702      163.067        0.324        0.024       76.678        5.338        0.005      342.051       17.190      861.925
11/09/2013  17:02:00       30.866       33.201       -2.586       10.962       11.609       11.332      120.165      134.771      128.416        0.122        0.019       45.332        6.699        0.022      341.932       16.988      861.937
11/09/2013  17:03:00       21.486       72.535      -16.538       12.393       21.281       12.606      153.586      452.890      158.923        0.338        0.038       75.650       11.606        0.024      341.919       16.965      861.949
11/09/2013  17:04:00       36.625      133.926      -26.924       20.681       31.551       19.206      427.695      995.465      368.881        1.090        0.090      138.844       15.532        0.013      341.961       17.037      861.955
11/09/2013  17:05:00       26.605       50.460       -2.738       30.358       40.273       24.330      921.616     1621.878      591.944        0.320        0.157       57.044       21.239        0.139      341.674       16.550      861.978
11/09/2013  17:06:00       17.971       55.043       -5.493       27.496       46.474       28.017      756.021     2159.850      784.939        0.354        0.185       57.903       27.381        0.224      341.791       16.749      861.984
11/09/2013  17:07:00       76.925       66.793        0.447       40.846       37.055       30.964     1668.355     1373.093      958.789        0.719        0.200      101.877       19.338        0.036      341.745       16.672      861.983
11/09/2013  17:08:00       39.320       82.597       -8.799       40.085       50.562       30.416     1606.795     2556.506      925.147        0.677        0.254       91.478       27.840        0.093      341.630       16.476      861.997
11/09/2013  17:09:00       35.122      122.892      -13.153       33.728       55.673       34.590     1137.557     3099.449     1196.466        1.097        0.272      127.813       36.145        0.080      341.585       16.400      862.002
11/09/2013  17:10:00       53.279       69.328        2.030       31.575       47.450       37.369      996.954     2251.492     1396.439        0.615        0.232       87.436       35.228        0.162      341.564       16.363      862.008
11/09/2013  17:11:00       32.192      104.603      -11.939       32.588       48.770       28.451     1062.009     2378.480      809.487        0.818        0.212      109.444       26.633        0.059      341.584       16.398      862.018
11/09/2013  17:12:00       75.680       89.603       -2.889       59.815       48.883       46.908     3577.848     2389.545     2200.394        1.096        0.408      117.287       41.198        0.123      341.599       16.422      862.026
11/09/2013  17:13:00       58.419       69.325       -0.135       43.035       42.877       30.324     1852.037     1838.436      919.552        0.641        0.231       90.657       27.006        0.089      341.473       16.209      862.041
11/09/2013  17:14:00       76.986       69.494       11.165       58.334       44.348       45.257     3402.867     1966.771     2048.217        0.915        0.371      103.712       33.444        0.104      341.405       16.094      862.051
11/09/2013  17:15:00      108.677       80.643       10.640       42.098       40.939       37.281     1772.240     1675.973     1389.849        1.163        0.242      135.329       32.606        0.058      341.414       16.110      862.061
11/09/2013  17:16:00      132.635       97.168       26.981       45.756       38.708       39.096     2093.590     1498.324     1528.506        1.644        0.256      164.419       26.423        0.026      341.491       16.239      862.073
11/09/2013  17:17:00      132.379       88.227       18.041       41.151       38.605       26.026     1693.400     1490.367      677.337        1.475        0.193      159.086       18.228        0.013      341.510       16.274      862.085
11/09/2013  17:18:00       59.043       40.431        6.172       31.877       29.056       28.091     1016.162      844.260      789.098        0.390        0.132       71.560       18.241        0.065      341.370       16.036      862.094
11/09/2013  17:19:00       82.882       52.351       14.929       41.758       22.555       22.257     1743.756      508.737      495.360        0.629        0.137       98.031       19.266        0.039      341.410       16.103      862.106
11/09/2013  17:20:00       82.542       66.111       15.435       50.608       27.717       27.502     2561.141      768.231      756.385        0.775        0.204      105.753       20.508        0.038      341.395       16.078      862.112
11/09/2013  17:21:00       77.898       51.029        6.962       47.193       28.732       24.825     2227.204      825.545      616.297        0.619        0.183       93.124       12.271        0.017      341.334       15.975      862.118
11/09/2013  17:22:00      126.108       69.434       19.097       40.343       34.169       31.138     1627.520     1167.520      969.570        1.243        0.188      143.960       23.443        0.027      341.355       16.008      862.131
11/09/2013  17:23:00      125.311       84.143       15.458       50.095       36.465       28.282     2509.540     1329.711      799.849        1.383        0.232      150.940       23.124        0.023      341.358       16.015      862.130
11/09/2013  17:24:00      139.452       89.975       35.340       36.402       24.848       24.213     1325.128      617.414      586.286        1.566        0.126      165.959       18.695        0.013      341.459       16.186      862.136
11/09/2013  17:25:00      130.050       92.286       20.508       30.401       24.986       21.155      924.204      624.300      447.554        1.392        0.100      159.467       11.904        0.006      341.474       16.211      862.151
11/09/2013  17:26:00      101.278       70.550       13.579       37.902       20.848       31.033     1436.597      434.639      963.075        0.913        0.142      123.428       22.787        0.034      341.410       16.102      862.166
11/09/2013  17:27:00       50.405       57.477        6.113       31.120       25.519       21.180      968.469      651.240      448.602        0.397        0.103       76.448       15.997        0.044      341.376       16.046      862.177
11/09/2013  17:28:00       16.712       76.827       -8.282       18.045       30.927       13.873      325.634      956.467      192.471        0.386        0.074       78.624       15.737        0.040      341.321       15.951      862.193
11/09/2013  17:29:00       13.274      109.032      -17.146       13.726       18.562       12.318      188.390      344.552      151.734        0.652        0.034      109.837       10.478        0.009      341.287       15.894      862.211
11/09/2013  17:30:00       25.034      118.038      -19.896       18.129       29.791       20.797      328.655      887.476      432.513        0.830        0.082      120.663       18.841        0.024      341.229       15.797      862.220
11/09/2013  17:31:00       15.397       57.127       -2.194       21.858       41.381       25.059      477.770     1712.374      627.938        0.316        0.141       59.166       21.689        0.134      341.084       15.553      862.233
11/09/2013  17:32:00       33.813       70.578       -8.583       24.804       30.798       18.746      615.220      948.509      351.423        0.406        0.096       78.260       16.917        0.047      341.171       15.700      862.236
11/09/2013  17:33:00       56.779       43.143        4.544       28.730       23.185       22.078      825.393      537.521      487.426        0.348        0.093       71.310       11.475        0.026      341.227       15.794      862.255
11/09/2013  17:34:00       52.854       45.445        1.064       35.129       23.295       20.414     1234.082      542.680      416.737        0.353        0.110       69.705       18.009        0.067      341.212       15.767      862.272
11/09/2013  17:35:00        9.810       45.692        1.508       19.677       28.946       16.639      387.185      837.887      276.844        0.184        0.075       46.733       13.995        0.090      341.176       15.707      862.288
11/09/2013  17:36:00       11.241       38.458       -3.867       18.918       24.800       16.140      357.895      615.058      260.494        0.143        0.062       40.067       12.239        0.093      341.179       15.713      862.297
11/09/2013  17:37:00       24.280      108.680      -17.053       22.667       17.637       11.811      513.807      311.081      139.507        0.683        0.048      111.360        9.328        0.007      341.290       15.900      862.307
11/09/2013  17:38:00       25.320       88.057       -9.196       21.455       23.792       17.585      460.318      566.053      309.224        0.491        0.067       91.625       14.731        0.026      341.278       15.879      862.315
11/09/2013  17:39:00       20.124       95.764      -18.279       21.834       19.207       12.771      476.733      368.905      163.094        0.546        0.050       97.856       10.769        0.012      341.276       15.876      862.321
11/09/2013  17:40:00       18.871       73.280       -7.586       17.307       29.798       14.038      299.539      887.927      197.067        0.358        0.069       75.671        6.772        0.008      341.126       15.622      862.324
11/09/2013  17:41:00       11.927       67.454       -8.154       13.064       26.207       14.038      170.681      686.789      197.052        0.291        0.053       68.500       14.433        0.044      341.158       15.678      862.345
11/09/2013  17:42:00       18.578       86.187      -11.536       21.809       21.498       16.383      475.653      462.153      268.391        0.456        0.060       88.167       12.942        0.022      341.175       15.707      862.361
11/09/2013  17:43:00       11.673       97.474      -20.220       15.304       27.169        9.987      234.201      738.134       99.730        0.556        0.054       98.170       11.045        0.013      341.220       15.782      862.381
11/09/2013  17:44:00      -11.207       86.634      -16.558       32.720       23.053       11.337     1070.567      531.432      128.527        0.482        0.087       87.355       14.679        0.028      341.188       15.727      862.405
11/09/2013  17:45:00      -23.516       77.063       -9.717       27.379       25.566       12.537      749.608      653.632      157.188        0.407        0.078       80.571        7.638        0.009      341.128       15.626      862.416
11/09/2013  17:46:00      -31.382      101.960      -18.614       25.063       44.976       16.748      628.130     2022.841      280.499        0.733        0.147      106.680       14.462        0.018      341.024       15.449      862.428
11/09/2013  17:47:00      -23.131      112.027      -21.991       26.027       35.029       17.366      677.387     1227.022      301.565        0.789        0.110      114.390       13.647        0.014      341.067       15.522      862.445
11/09/2013  17:48:00      -37.986       72.184      -10.941       25.618       25.619       15.229      656.294      656.336      231.916        0.416        0.077       81.569       10.991        0.018      340.895       15.233      862.466
11/09/2013  17:49:00      -20.931       32.660       -4.936       20.307       39.047       14.767      412.373     1524.640      218.054        0.184        0.108       38.792       17.210        0.197      340.797       15.065      862.479
11/09/2013  17:50:00      -64.177       -9.565      -18.788       14.750       11.084       10.613      217.576      122.849      112.633        0.251        0.023       64.885        4.653        0.005      340.353       14.316      862.486
11/09/2013  17:51:00      -90.341        8.760      -18.931       19.068       12.653       13.641      363.593      160.102      186.074        0.465        0.035       90.765        7.844        0.007      340.225       14.098      862.497
11/09/2013  17:52:00      -71.027       -9.239      -15.393       17.329       21.058       10.699      300.300      443.460      114.461        0.311        0.043       71.626        6.147        0.007      340.134       13.944      862.504
11/09/2013  17:53:00      -92.301      -11.418      -12.722       19.190       20.399       14.822      368.238      416.128      219.703        0.491        0.050       93.004       11.746        0.016      340.101       13.888      862.518
11/09/2013  17:54:00      -82.035      -24.597      -16.102       20.454       14.927       11.732      418.353      222.820      137.630        0.419        0.039       85.643        5.825        0.005      339.949       13.633      862.522
11/09/2013  17:55:00      -84.726      -27.337      -25.196       17.620       19.764       13.390      310.471      390.624      179.304        0.472        0.044       89.027        6.289        0.005      339.889       13.532      862.526
11/09/2013  17:56:00     -112.662        4.484      -15.100       36.293       25.667       14.036     1317.201      658.819      197.021        0.756        0.109      112.751        7.998        0.005      339.874       13.507      862.525
11/09/2013  17:57:00     -104.645        1.684      -17.832       33.722       22.881       19.529     1137.196      523.553      381.371        0.666        0.102      104.658       21.178        0.041      339.849       13.462      862.533
11/09/2013  17:58:00      -79.321       -0.284      -15.425       43.136       25.358       19.171     1860.722      643.011      367.520        0.470        0.144       79.322       21.354        0.072      339.769       13.328      862.543
11/09/2013  17:59:00      -74.501        4.126      -11.970       61.831       27.420       22.251     3823.053      751.866      495.100        0.539        0.254       74.615       27.817        0.139      339.665       13.154      862.556
11/09/2013  18:00:00      -69.333      -12.768       -1.922       55.302       46.256       32.310     3058.302     2139.649     1043.962        0.561        0.312       70.499       26.972        0.146      339.633       13.101      862.572
11/09/2013  18:01:00      -77.548        5.195       -7.580       58.956       50.210       30.231     3475.775     2521.053      913.908        0.650        0.346       77.722       28.137        0.131      339.737       13.275      862.592
11/09/2013  18:02:00      -78.276        7.075      -14.590       33.098       25.729       20.814     1095.496      661.997      433.204        0.429        0.110       78.595       14.388        0.034      339.866       13.493      862.593
11/09/2013  18:03:00      -80.908        0.188       -9.606       38.888       35.555       23.328     1512.277     1264.161      544.213        0.498        0.166       80.908       19.461        0.058      339.744       13.288      862.601
11/09/2013  18:04:00      -88.435        1.245      -14.344       43.445       25.493       19.545     1887.498      649.911      382.016        0.547        0.146       88.443       16.366        0.034      339.880       13.515      862.610
11/09/2013  18:05:00      -44.106       12.087        1.824       43.791       29.148       24.323     1917.677      849.585      591.628        0.273        0.168       45.732       21.805        0.227      339.693       13.201      862.616
11/09/2013  18:06:00      -81.311        3.802       -6.128       62.313       29.345       21.741     3882.943      861.124      472.662        0.594        0.261       81.400       26.502        0.106      339.719       13.245      862.621
11/09/2013  18:07:00     -125.306       19.207      -12.431       46.584       34.441       26.008     2170.114     1186.173      676.431        1.013        0.202      126.770       17.740        0.020      339.853       13.470      862.632
11/09/2013  18:08:00     -118.435        5.741      -13.612       50.642       38.686       23.078     2564.578     1496.603      532.604        0.942        0.230      118.574       15.146        0.016      339.826       13.426      862.637
11/09/2013  18:09:00      -79.765       -3.510      -12.272       21.042       25.218       18.845      442.746      635.961      355.138        0.398        0.072       79.843       13.343        0.028      339.903       13.555      862.642
11/09/2013  18:10:00      -94.543       54.785      -22.203       26.062       44.466       17.933      679.246     1977.260      321.602        0.770        0.149      109.269       13.770        0.016      340.397       14.390      862.651
11/09/2013  18:11:00      -62.992       39.721      -10.541       19.902       45.638       19.180      396.108     2082.789      367.858        0.425        0.142       74.470       19.333        0.067      340.269       14.174      862.662
11/09/2013  18:12:00      -70.510       34.279       -1.958       40.236       57.784       26.338     1618.956     3338.948      693.677        0.590        0.283       78.401       24.129        0.095      340.047       13.799      862.668
11/09/2013  18:13:00      -64.982        1.570      -16.208       22.624       23.961       19.366      511.832      574.148      375.051        0.297        0.073       65.001       12.577        0.037      339.937       13.613      862.688
11/09/2013  18:14:00      -52.177       -6.344       -5.962       13.969        9.383        7.246      195.141       88.043       52.505        0.157        0.017       52.562        6.019        0.013      339.685       13.188      862.703
11/09/2013  18:15:00      -55.412       -5.380       -8.894       13.364       13.174        9.812      178.592      173.543       96.266        0.181        0.022       55.673        7.852        0.020      339.791       13.368      862.714
11/09/2013  18:16:00      -56.001       -9.952      -10.727       11.324       13.351        9.465      128.225      178.249       89.596        0.187        0.020       56.878        5.697        0.010      339.665       13.153      862.733
11/09/2013  18:17:00      -75.743      -15.315      -12.761       16.293       10.227        7.165      265.458      104.586       51.332        0.328        0.021       77.276        3.861        0.002      339.702       13.217      862.748
11/09/2013  18:18:00      -83.840      -16.068      -16.411       11.516       10.492        8.571      132.625      110.085       73.467        0.394        0.016       85.365        6.813        0.006      339.649       13.128      862.760
11/09/2013  18:19:00      -85.440      -21.898      -10.653       27.760       17.788       14.853      770.636      316.420      220.608        0.460        0.065       88.202        7.959        0.008      339.562       12.980      862.770
11/09/2013  18:20:00      -98.065       -7.059      -16.232       25.278       21.804       11.488      639.000      475.395      131.970        0.559        0.062       98.319        6.245        0.004      339.618       13.075      862.777
11/09/2013  18:21:00      -92.289       -1.239      -17.328       21.910       19.454       12.287      480.060      378.463      150.980        0.491        0.050       92.298        8.512        0.009      339.505       12.885      862.786
11/09/2013  18:22:00      -70.657       24.256      -15.682       16.954       30.165       14.136      287.443      909.903      199.818        0.361        0.070       74.704       11.653        0.024      339.892       13.537      862.796
11/09/2013  18:23:00      -73.128       -2.873      -15.581       26.508       21.336       14.298      702.696      455.216      204.439        0.348        0.068       73.184        7.709        0.011      339.696       13.206      862.806
11/09/2013  18:24:00      -76.318        2.099      -12.184       23.150       17.168       15.724      535.916      294.732      247.234        0.353        0.054       76.347       10.771        0.020      339.891       13.536      862.816
11/09/2013  18:25:00      -93.779        4.530      -11.806       24.525       18.811       14.313      601.485      353.865      204.860        0.506        0.058       93.888       11.882        0.016      339.780       13.348      862.823
11/09/2013  18:26:00      -94.067       -2.550      -17.328       21.709       20.752       14.593      471.284      430.653      212.943        0.513        0.056       94.101        8.122        0.007      339.667       13.157      862.825
11/09/2013  18:27:00      -89.100       -4.496      -14.519       33.696       20.051       15.261     1135.414      402.052      232.887        0.497        0.089       89.213       11.716        0.017      339.631       13.095      862.827
11/09/2013  18:28:00      -77.399       -7.977      -16.752       20.872       19.772       17.333      435.631      390.950      300.432        0.373        0.056       77.809       12.050        0.024      339.571       12.996      862.831
11/09/2013  18:29:00      -98.263       -5.055      -15.577       30.865       26.710       19.139      952.647      713.420      366.320        0.598        0.102       98.393       15.995        0.026      339.639       13.110      862.827
11/09/2013  18:30:00      -78.587       -9.109      -20.869       30.507       23.276       14.908      930.694      541.769      222.234        0.419        0.085       79.114        4.841        0.004      339.584       13.018      862.830
11/09/2013  18:31:00      -87.169       -6.965      -16.424       28.279       23.587       18.546      799.675      556.356      343.967        0.481        0.085       87.447       16.972        0.038      339.578       13.007      862.838
11/09/2013  18:32:00     -109.925       -2.972      -18.449       44.067       32.642       22.149     1941.863     1065.489      490.580        0.796        0.175      109.965       21.974        0.040      339.489       12.858      862.851
11/09/2013  18:33:00     -106.118       -8.704      -17.979       38.675       29.885       21.506     1495.725      893.128      462.519        0.726        0.143      106.474       19.372        0.033      339.431       12.759      862.867
11/09/2013  18:34:00      -97.591      -19.556      -10.227       21.918       26.233       16.078      480.378      688.182      258.514        0.572        0.071       99.531        9.914        0.010      339.380       12.674      862.875
11/09/2013  18:35:00     -106.863       -7.695      -13.252       40.311       29.111       19.088     1624.982      847.441      364.356        0.725        0.142      107.140       17.785        0.028      339.337       12.601      862.892
11/09/2013  18:36:00     -108.692        6.789      -20.304       30.107       26.259       21.309      906.460      689.534      454.090        0.716        0.103      108.904       18.039        0.027      339.398       12.704      862.908
11/09/2013  18:37:00     -106.994       -9.385      -17.832       34.469       41.494       21.551     1188.128     1721.726      464.449        0.761        0.169      107.405       17.158        0.026      339.389       12.689      862.916
11/09/2013  18:38:00     -101.768       -0.489      -14.263       35.430       32.915       23.811     1255.299     1083.427      566.984        0.673        0.145      101.769       19.527        0.037      339.439       12.773      862.927
11/09/2013  18:39:00      -76.013       -4.875       -7.495       42.728       28.617       20.015     1825.723      818.958      400.601        0.445        0.152       76.169       22.840        0.090      339.372       12.660      862.935
11/09/2013  18:40:00      -84.664       -2.442      -11.939       32.222       31.314       18.413     1038.263      980.583      339.049        0.484        0.118       84.699       14.394        0.029      339.326       12.583      862.940
11/09/2013  18:41:00      -99.827       -7.810      -12.419       31.218       21.463       15.895      974.547      460.657      252.663        0.593        0.084      100.133       12.047        0.014      339.280       12.506      862.935
11/09/2013  18:42:00      -74.886      -13.753      -14.454       31.922       24.122       15.504     1019.002      581.880      240.368        0.392        0.092       76.138       13.755        0.033      339.247       12.450      862.937
11/09/2013  18:43:00      -74.734        8.373      -14.100       28.199       19.257       11.663      795.179      370.837      136.028        0.358        0.065       75.201        9.078        0.015      339.223       12.411      862.949
11/09/2013  18:44:00      -70.921      -14.451      -11.818       14.579       16.246        9.972      212.547      263.935       99.446        0.298        0.029       72.378        5.875        0.007      339.184       12.343      862.954
11/09/2013  18:45:00      -65.767      -33.805       -9.652       23.897       22.867       13.563      571.076      522.920      183.944        0.342        0.064       73.946       10.837        0.021      339.157       12.298      862.968
11/09/2013  18:46:00      -95.363      -28.011      -14.906       25.601       23.906       14.300      655.416      571.483      204.499        0.577        0.072       99.392       10.310        0.011      339.092       12.189      862.976
11/09/2013  18:47:00     -108.540      -21.826      -10.067       28.787       29.059       18.360      828.699      844.415      337.079        0.718        0.101      110.713       17.160        0.024      339.137       12.264      862.991
11/09/2013  18:48:00     -137.830      -14.616      -10.421       34.320       20.947       18.505     1177.842      438.784      342.441        1.064        0.098      138.603       16.384        0.014      339.181       12.337      862.991
11/09/2013  18:49:00     -116.821      -20.234       -9.001       33.596       34.412       17.373     1128.724     1184.157      301.807        0.838        0.131      118.560       10.473        0.008      339.020       12.068      862.998
11/09/2013  18:50:00     -101.373      -17.018       -2.990       42.914       29.175       24.878     1841.603      851.171      618.904        0.694        0.166      102.792       21.158        0.042      338.914       11.889      863.010
11/09/2013  18:51:00     -114.280       -2.637       -4.598       47.722       38.877       22.620     2277.342     1511.405      511.657        0.869        0.215      114.310       22.117        0.037      338.880       11.832      863.027
11/09/2013  18:52:00     -100.342      -11.106       -8.075       54.256       30.171       25.072     2943.753      910.260      628.613        0.737        0.224      100.955       23.507        0.054      338.964       11.973      863.042
11/09/2013  18:53:00     -125.155       -5.651      -16.185       43.245       39.440       24.696     1870.103     1555.485      609.874        1.000        0.202      125.283       16.545        0.017      339.159       12.302      863.056
11/09/2013  18:54:00      -90.474      -34.130      -12.828       23.243       26.956       15.656      540.238      726.647      245.098        0.551        0.076       96.698        6.104        0.004      338.941       11.935      863.083
11/09/2013  18:55:00     -103.299      -12.664       -5.268       49.006       33.658       23.639     2401.625     1132.868      558.786        0.748        0.205      104.072       26.330        0.064      338.941       11.934      863.100
11/09/2013  18:56:00      -51.806       -3.616        4.950       24.766       18.990       16.570      613.331      360.631      274.565        0.198        0.062       51.932       14.854        0.082      338.910       11.883      863.131
11/09/2013  18:57:00      -91.168      -22.134      -13.569       26.182       25.434       20.213      685.486      646.881      408.549        0.536        0.087       93.817       17.246        0.034      338.960       11.966      863.142
11/09/2013  18:58:00     -106.229      -15.083      -10.971       43.071       29.454       17.752     1855.147      867.520      315.142        0.733        0.152      107.294       21.412        0.040      338.973       11.989      863.164
11/09/2013  18:59:00      -91.285      -33.545       -9.566       19.389       19.786       17.594      375.938      391.473      309.557        0.531        0.054       97.254       12.882        0.018      338.927       11.911      863.173
11/09/2013  19:00:00      -93.264      -29.980      -12.977       17.082       18.825       13.441      291.807      354.397      180.661        0.530        0.041       97.965        6.087        0.004      338.974       11.991      863.188
11/09/2013  19:01:00      -97.034      -27.802      -18.529       13.336       15.331        8.595      177.847      235.035       73.871        0.551        0.024      100.939        5.982        0.004      338.914       11.890      863.183
11/09/2013  19:02:00     -105.910      -41.931      -20.521       11.591       10.266        7.875      134.340      105.387       62.014        0.685        0.015      113.909        4.691        0.002      339.038       12.097      863.184
11/09/2013  19:03:00     -116.677      -26.875      -19.218        8.761       14.051        7.242       76.755      197.444       52.449        0.752        0.016      119.732        3.238        0.001      339.036       12.095      863.176
11/09/2013  19:04:00     -111.335      -35.986      -18.044       11.929       12.353        8.673      142.308      152.587       75.228        0.719        0.019      117.006        3.818        0.001      339.118       12.233      863.172
11/09/2013  19:05:00     -107.024      -33.294      -14.504       10.933       10.575        9.222      119.532      111.832       85.054        0.654        0.016      112.083        4.323        0.001      339.159       12.301      863.165
11/09/2013  19:06:00     -104.104      -39.177      -11.969        8.830       15.441        9.460       77.966      238.419       89.500        0.646        0.020      111.232        7.322        0.004      339.167       12.315      863.174
11/09/2013  19:07:00     -100.748      -39.953      -12.104       11.203       12.335        8.792      125.506      152.144       77.297        0.612        0.018      108.381        7.043        0.004      339.155       12.297      863.169
11/09/2013  19:08:00      -97.715      -36.797       -7.917       10.802       11.661        9.579      116.673      135.971       91.755        0.565        0.017      104.414        8.570        0.007      339.116       12.229      863.179
11/09/2013  19:09:00     -102.180      -44.164      -14.954       11.200       10.821        8.164      125.432      117.087       66.653        0.646        0.015      111.316        5.692        0.003      339.161       12.305      863.174
11/09/2013  19:10:00      -85.851      -28.946      -14.517        5.432        8.046        5.611       29.511       64.737       31.479        0.427        0.006       90.599        3.989        0.002      339.087       12.179      863.187
11/09/2013  19:11:00      -84.261      -20.706      -11.145        6.613        9.127        7.120       43.725       83.304       50.699        0.392        0.009       86.768        1.583        0.000      339.061       12.136      863.184
11/09/2013  19:12:00      -85.698      -46.935      -14.312        9.738       14.442        7.547       94.838      208.562       56.953        0.506        0.018       97.709        4.180        0.002      339.049       12.116      863.189
11/09/2013  19:13:00      -98.151      -56.642      -13.812       20.973       11.541        9.365      439.887      133.198       87.704        0.685        0.033      113.322        8.429        0.006      339.008       12.047      863.186
11/09/2013  19:14:00     -119.691      -65.214      -12.816       15.915       13.570        9.768      253.286      184.154       95.418        0.964        0.027      136.304        5.623        0.002      338.920       11.901      863.177
11/09/2013  19:15:00     -105.016      -43.801       -9.424       23.864       13.939       11.369      569.471      194.288      129.259        0.696        0.045      113.784        7.887        0.005      338.844       11.772      863.183
11/09/2013  19:16:00     -115.375      -52.099      -12.733       12.216       15.456       11.942      149.238      238.897      142.617        0.836        0.027      126.593        7.027        0.003      338.753       11.620      863.186
11/09/2013  19:17:00      -97.421      -60.959       -8.229       18.387       16.076       12.021      338.092      258.451      144.499        0.701        0.037      114.921       10.002        0.008      338.773       11.651      863.201
11/09/2013  19:18:00     -109.563      -44.271       -6.338       16.528       16.422       11.806      273.179      269.689      139.392        0.734        0.034      118.170        7.228        0.004      338.756       11.625      863.204
11/09/2013  19:19:00     -124.557      -39.656      -13.854       20.613       11.795       11.050      424.882      139.125      122.101        0.898        0.034      130.717       10.841        0.007      338.719       11.562      863.211
11/09/2013  19:20:00     -127.980      -35.868      -10.182       21.925       14.750       11.386      480.722      217.553      129.634        0.930        0.041      132.911        6.790        0.003      338.709       11.545      863.212
11/09/2013  19:21:00     -144.629      -58.828      -12.189       18.255       14.442       12.489      333.229      208.580      155.985        1.261        0.035      156.136        8.659        0.003      338.708       11.543      863.220
11/09/2013  19:22:00     -152.132      -53.596      -18.187       18.420       16.241       14.272      339.304      263.769      203.683        1.358        0.040      161.297        8.809        0.003      338.660       11.463      863.231
11/09/2013  19:23:00     -143.351      -41.258      -22.011       13.601       13.438        8.828      184.994      180.569       77.926        1.159        0.022      149.170        5.712        0.001      338.585       11.336      863.236
11/09/2013  19:24:00     -147.088      -55.265      -21.197       17.050       10.461       14.019      290.706      109.442      196.533        1.287        0.030      157.128        9.699        0.004      338.567       11.306      863.248
11/09/2013  19:25:00     -133.360      -71.525      -14.260       12.875       12.970       10.359      165.763      168.212      107.311        1.177        0.022      151.330        7.188        0.002      338.563       11.298      863.249
11/09/2013  19:26:00     -128.318      -58.357      -13.991       19.012       14.226       10.393      361.463      202.380      108.014        1.037        0.034      140.965        8.378        0.004      338.562       11.297      863.260
11/09/2013  19:27:00     -135.144      -66.716      -13.274       16.437       16.976       13.765      270.190      288.175      189.483        1.182        0.037      150.715        6.247        0.002      338.521       11.228      863.267
11/09/2013  19:28:00     -147.895      -78.302      -11.076       20.944       19.870       14.016      438.634      394.801      196.436        1.458        0.051      167.345        9.848        0.003      338.478       11.157      863.268
11/09/2013  19:29:00     -131.732      -43.354       -6.638       23.067       37.724       16.446      532.076     1423.128      270.463        1.075        0.111      138.682       16.622        0.014      338.474       11.150      863.284
11/09/2013  19:30:00     -133.105      -52.907       -3.305       27.374       26.464       18.377      749.311      700.363      337.708        1.116        0.089      143.235       18.344        0.016      338.393       11.014      863.289
11/09/2013  19:31:00     -152.759      -73.186      -10.887       19.506       24.317       16.019      380.474      591.336      256.611        1.502        0.061      169.386        9.385        0.003      338.385       11.000      863.292
11/09/2013  19:32:00     -122.967      -56.135       -9.334       17.650       16.067       15.811      311.536      258.164      249.992        0.959        0.041      135.174       11.258        0.007      338.314       10.881      863.296
11/09/2013  19:33:00     -113.144      -66.037       -6.591       29.689       17.137       14.469      881.416      293.680      209.355        0.929        0.069      131.006       12.491        0.009      338.304       10.864      863.300
11/09/2013  19:34:00     -131.033      -60.208      -13.974       14.855       15.829       12.068      220.662      250.564      145.641        1.080        0.031      144.203        6.580        0.002      338.314       10.880      863.313
11/09/2013  19:35:00     -140.460      -65.351      -14.372       22.296       15.079       16.708      497.127      227.365      279.168        1.260        0.050      154.918       14.578        0.009      338.177       10.651      863.309
11/09/2013  19:36:00     -125.651      -81.322      -15.994       29.870       27.419       16.349      892.209      751.820      267.297        1.228        0.096      149.671        3.780        0.001      338.209       10.705      863.313
11/09/2013  19:37:00     -130.655      -51.518      -11.264       41.736       32.745       19.583     1741.867     1072.251      383.486        1.152        0.160      140.445       17.112        0.015      338.101       10.524      863.310
11/09/2013  19:38:00     -133.544      -36.514       -7.817       27.383       27.512       19.905      749.840      756.905      396.227        1.057        0.095      138.446       14.696        0.011      338.162       10.626      863.327
11/09/2013  19:39:00     -146.723      -48.732      -16.005       31.540       34.942       22.118      994.760     1220.936      489.202        1.343        0.135      154.605       19.155        0.015      338.106       10.532      863.329
11/09/2013  19:40:00     -123.745      -24.387        0.730       64.502       44.958       31.671     4160.487     2021.199     1003.062        1.155        0.359      126.125       35.862        0.081      338.080       10.487      863.346
11/09/2013  19:41:00     -185.968       -9.763      -21.292       38.353       41.078       25.041     1470.963     1687.396      627.073        1.946        0.189      186.224       16.376        0.008      338.211       10.708      863.355
11/09/2013  19:42:00     -167.911      -35.368      -14.646       44.794       40.439       23.889     2006.533     1635.297      570.683        1.694        0.211      171.596       17.987        0.011      338.184       10.661      863.364
11/09/2013  19:43:00     -165.682      -40.352      -11.613       59.912       49.735       28.182     3589.425     2473.581      794.217        1.803        0.343      170.525       29.893        0.031      338.132       10.574      863.375
11/09/2013  19:44:00     -104.883      -34.437        2.260       64.964       44.831       30.797     4220.375     2009.787      948.439        0.968        0.359      110.392       29.597        0.072      338.077       10.482      863.378
11/09/2013  19:45:00     -172.690      -12.390      -22.364       62.393       47.897       29.317     3892.855     2294.083      859.471        1.876        0.352      173.134       27.882        0.026      338.097       10.514      863.392
11/09/2013  19:46:00     -143.920      -43.821       -1.341       50.253       40.101       28.213     2525.360     1608.118      795.989        1.378        0.246      150.444       25.421        0.029      338.032       10.407      863.393
11/09/2013  19:47:00     -125.572      -63.895       -7.180       40.073       51.667       28.388     1605.859     2669.442      805.874        1.249        0.254      140.893       13.006        0.009      338.042       10.425      863.404
11/09/2013  19:48:00     -125.468      -50.709       -7.916       49.913       40.987       31.880     2491.307     1679.970     1016.348        1.178        0.259      135.328       27.517        0.041      338.061       10.456      863.411
11/09/2013  19:49:00     -125.531      -62.909       -3.632       66.089       39.583       28.355     4367.804     1566.776      803.982        1.323        0.337      140.413       29.698        0.045      338.065       10.463      863.430
11/09/2013  19:50:00      -67.585       -8.477        0.882       44.894       28.975       24.698     2015.438      839.565      609.988        0.405        0.173       68.114       13.497        0.039      338.046       10.431      863.435
11/09/2013  19:51:00      -52.533      -35.157        1.788       62.172       39.481       27.452     3865.382     1558.744      753.610        0.509        0.309       63.212       30.803        0.237      338.059       10.453      863.448
11/09/2013  19:52:00     -122.295      -28.328      -13.436       72.971       40.264       24.632     5324.782     1621.210      606.718        1.174        0.378      125.533       23.946        0.036      338.056       10.447      863.450
11/09/2013  19:53:00     -140.282      -68.639        2.279       49.147       59.712       31.473     2415.448     3565.499      990.533        1.568        0.349      156.174       27.257        0.030      338.012       10.374      863.445
11/09/2013  19:54:00      -85.842      -52.804       -0.704       67.991       52.794       31.322     4622.779     2787.189      981.082        0.927        0.420      100.782       32.074        0.101      337.998       10.352      863.447
11/09/2013  19:55:00      -56.467      -62.158        4.884       67.703       48.874       30.452     4583.709     2388.670      927.344        0.749        0.395       83.977       39.575        0.222      338.060       10.456      863.444
11/09/2013  19:56:00       -4.357      -30.700        3.225       33.211       22.225       17.759     1102.946      493.942      315.383        0.144        0.096       31.008       14.734        0.226      338.125       10.563      863.454
11/09/2013  19:57:00     -100.045       -3.941       -9.086       55.685       32.919       16.860     3100.869     1083.691      284.247        0.729        0.223      100.122       16.246        0.026      338.026       10.397      863.447
11/09/2013  19:58:00      -83.988      -13.084      -12.792       56.372       40.606       22.849     3177.794     1648.859      522.086        0.637        0.267       85.001       22.150        0.068      338.047       10.433      863.454
11/09/2013  19:59:00     -144.314      -51.183      -19.844       29.931       48.537       22.924      895.852     2355.826      525.496        1.381        0.189      153.121       14.715        0.009      338.132       10.576      863.447
11/09/2013  20:00:00      -88.765      -47.773        0.339       57.993       49.733       29.401     3363.151     2473.386      864.425        0.843        0.335      100.804       26.054        0.067      338.116       10.549      863.454
11/09/2013  20:01:00     -119.906      -28.971      -14.199       32.112       47.072       23.017     1031.174     2215.793      529.766        0.960        0.189      123.356       16.307        0.017      338.107       10.535      863.461
11/09/2013  20:02:00      -92.731      -41.150       -1.919       59.218       52.522       26.010     3506.719     2758.517      676.542        0.862        0.347      101.451       27.486        0.073      338.069       10.471      863.461
11/09/2013  20:03:00     -137.137      -32.910        2.884       44.700       59.834       24.851     1998.047     3580.112      617.572        1.305        0.310      141.031       25.906        0.034      338.048       10.433      863.471
11/09/2013  20:04:00     -105.161      -24.549        2.460       66.948       48.295       28.138     4482.019     2332.362      791.768        0.964        0.380      107.989       26.592        0.061      338.010       10.372      863.472
11/09/2013  20:05:00     -106.265      -18.900       -5.327       48.689       43.426       26.700     2370.606     1885.834      712.894        0.832        0.248      107.933       20.828        0.037      337.989       10.334      863.475
11/09/2013  20:06:00      -82.166      -25.114       -1.565       64.907       47.503       21.880     4212.863     2256.489      478.744        0.717        0.347       85.918       20.544        0.057      337.974       10.310      863.495
11/09/2013  20:07:00     -120.649       -5.947      -11.986       52.427       46.118       26.699     2748.561     2126.864      712.834        1.016        0.279      120.796       27.416        0.052      337.979       10.318      863.492
11/09/2013  20:08:00     -127.996        4.002      -12.270       75.127       44.363       28.872     5644.043     1968.082      833.616        1.250        0.422      128.059       29.820        0.054      337.977       10.315      863.486
11/09/2013  20:09:00     -112.992       -7.017       -6.055       51.020       40.300       29.632     2603.071     1624.120      878.066        0.898        0.255      113.210       27.940        0.061      337.889       10.168      863.486
11/09/2013  20:10:00     -135.044        4.670      -14.417       53.266       35.975       26.914     2837.312     1294.178      724.388        1.166        0.243      135.125       21.866        0.026      337.897       10.181      863.489
11/09/2013  20:11:00     -135.677        7.302      -27.316       45.325       39.038       24.978     2054.337     1523.992      623.880        1.170        0.210      135.874        8.088        0.004      337.884       10.159      863.493
11/09/2013  20:12:00     -118.942       -5.992      -15.700       46.036       37.114       29.123     2119.328     1377.462      848.143        0.939        0.217      119.093       28.333        0.057      337.867       10.131      863.500
11/09/2013  20:13:00     -112.334       -3.148      -18.625       36.141       33.521       22.209     1306.192     1123.633      493.253        0.795        0.146      112.378       17.660        0.025      337.832       10.073      863.507
11/09/2013  20:14:00     -142.770      -12.815      -13.482       44.680       36.350       23.482     1996.278     1321.346      551.381        1.230        0.193      143.344       11.204        0.006      337.821       10.055      863.511
11/09/2013  20:15:00      -85.907      -13.585       -4.280       54.684       29.224       26.588     2990.381      854.017      706.930        0.607        0.228       86.974       23.972        0.076      337.796       10.013      863.530
11/09/2013  20:16:00      -96.464      -25.103       -8.706       44.627       26.316       20.600     1991.530      692.526      424.352        0.656        0.155       99.677       18.773        0.035      337.805       10.027      863.541
11/09/2013  20:17:00     -114.241      -34.798       -0.133       33.099       41.745       19.230     1095.520     1742.660      369.778        0.873        0.160      119.423       15.164        0.016      337.841       10.087      863.559
11/09/2013  20:18:00     -118.304      -20.880       -9.796       30.848       28.883       21.284      951.613      834.202      453.008        0.838        0.112      120.133       13.614        0.013      337.857       10.115      863.574
11/09/2013  20:19:00      -70.899      -23.040      -16.841       31.183       21.668       15.374      972.372      469.493      236.369        0.376        0.084       74.549       15.514        0.043      337.892       10.173      863.579
11/09/2013  20:20:00      -56.210      -43.592       -8.647       32.883       25.505       17.738     1081.314      650.527      314.630        0.359        0.102       71.133        4.103        0.003      337.899       10.185      863.595
11/09/2013  20:21:00      -81.834      -60.768       -6.683       44.306       22.790       18.340     1963.027      519.390      336.342        0.663        0.141      101.929       21.626        0.045      337.865       10.125      863.599
11/09/2013  20:22:00     -121.418      -52.645       -8.940       16.748       20.130       12.346      280.489      405.219      152.423        0.922        0.042      132.340        8.186        0.004      337.894       10.177      863.609
11/09/2013  20:23:00     -126.570      -65.374       -9.701       15.021       15.409        9.596      225.618      237.431       92.082        1.047        0.028      142.456        6.975        0.002      337.978       10.317      863.620
11/09/2013  20:24:00     -127.201      -46.276       -3.323       18.801       18.476       13.804      353.474      341.350      190.555        0.961        0.044      135.357        5.942        0.002      337.943       10.258      863.620
11/09/2013  20:25:00     -131.273      -46.773      -16.031       17.583       19.841       12.437      309.160      393.680      154.672        1.027        0.043      139.357        7.560        0.003      337.895       10.176      863.633
11/09/2013  20:26:00     -140.269      -54.030      -11.929       21.722       18.838       19.428      471.825      354.855      377.462        1.197        0.060      150.315       11.074        0.005      337.812       10.040      863.640
11/09/2013  20:27:00     -130.635      -31.826       -9.583       27.285       27.079       19.346      744.479      733.282      374.265        1.001        0.093      134.456       15.115        0.013      337.679        9.817      863.641
11/09/2013  20:28:00      -80.675      -11.724        1.566       40.343       30.512       19.918     1627.554      930.968      396.736        0.480        0.148       81.523       19.033        0.055      337.682        9.821      863.660
11/09/2013  20:29:00     -137.603       -0.675      -18.717       35.083       32.260       20.522     1230.824     1040.686      421.150        1.099        0.135      137.605       18.237        0.018      337.804       10.026      863.666
11/09/2013  20:30:00     -125.996      -17.917      -11.280       37.208       30.505       19.930     1384.398      930.561      397.210        0.952        0.136      127.263       14.330        0.013      337.803       10.024      863.678
11/09/2013  20:31:00     -134.176       26.826      -11.304       64.058       40.165       25.881     4103.398     1613.214      669.820        1.262        0.319      136.832       27.953        0.042      337.811       10.037      863.706
11/09/2013  20:32:00     -134.463       19.305      -10.223       39.561       39.801       26.985     1565.111     1584.152      728.192        1.122        0.194      135.842       14.639        0.012      337.799       10.018      863.709
11/09/2013  20:33:00     -120.678       17.298       -9.065       63.342       35.431       29.855     4012.161     1255.361      891.309        1.055        0.308      121.912       33.318        0.075      337.749        9.933      863.718
11/09/2013  20:34:00      -83.522       11.601       -5.559       53.620       39.683       23.929     2875.074     1574.739      572.588        0.608        0.251       84.324       18.789        0.050      337.716        9.879      863.735
11/09/2013  20:35:00      -93.354       -6.549      -14.640       31.341       21.790       18.224      982.284      474.803      332.132        0.538        0.089       93.583       11.930        0.016      337.753        9.941      863.733
11/09/2013  20:36:00     -106.404      -22.545       -7.408       26.896       26.035       17.416      723.395      677.807      303.329        0.679        0.085      108.766        6.380        0.003      337.766        9.963      863.725
11/09/2013  20:37:00     -104.826      -15.814       -7.347       32.599       30.370       20.721     1062.706      922.333      429.371        0.685        0.121      106.012        9.415        0.008      337.725        9.893      863.732
11/09/2013  20:38:00      -79.707       -9.978       -3.981       43.103       31.417       16.052     1857.879      987.055      257.676        0.479        0.155       80.330       13.444        0.028      337.707        9.862      863.729
11/09/2013  20:39:00      -77.881      -10.859       -6.936       32.635       22.087       19.883     1065.045      487.829      395.330        0.409        0.097       78.634       17.242        0.048      337.650        9.768      863.729
11/09/2013  20:40:00      -81.014      -20.655       -4.343       27.700       23.918       15.303      767.275      572.077      234.181        0.429        0.079       83.606       13.893        0.028      337.629        9.731      863.742
11/09/2013  20:41:00     -107.318      -15.460      -10.915       28.011       20.903       17.100      784.597      436.949      292.405        0.669        0.076      108.426       13.495        0.015      337.650        9.768      863.742
11/09/2013  20:42:00      -97.963      -19.906      -13.509       22.198       23.006       14.471      492.769      529.276      209.405        0.570        0.062       99.965       10.352        0.011      337.604        9.691      863.742
11/09/2013  20:43:00      -75.834      -31.673      -10.897       17.790       18.005       11.735      316.493      324.162      137.702        0.383        0.039       82.182        7.958        0.009      337.647        9.761      863.758
11/09/2013  20:44:00      -89.377      -33.146      -14.994       17.585       15.893       10.922      309.216      252.577      119.299        0.500        0.034       95.325        9.387        0.010      337.602        9.686      863.766
11/09/2013  20:45:00     -104.857      -27.912       -9.539       25.798       24.588       15.849      665.519      604.564      251.182        0.669        0.076      108.508        8.181        0.006      337.599        9.682      863.767
11/09/2013  20:46:00     -113.843      -17.779      -11.163       42.338       29.045       18.150     1792.489      843.592      329.436        0.818        0.148      115.223       17.159        0.022      337.550        9.600      863.783
11/09/2013  20:47:00      -65.667       -6.999       -4.749       37.953       27.540       20.641     1440.400      758.432      426.044        0.350        0.131       66.039       17.101        0.067      337.603        9.687      863.786
11/09/2013  20:48:00     -103.092      -16.723      -13.447       41.750       30.715       22.068     1743.066      943.431      486.998        0.713        0.159      104.439       20.833        0.040      337.613        9.706      863.783
11/09/2013  20:49:00      -88.255      -14.954       -9.697       42.209       32.836       24.911     1781.573     1078.174      620.578        0.579        0.174       89.513       18.606        0.043      337.577        9.646      863.792
11/09/2013  20:50:00     -101.481       -6.314      -11.284       50.614       31.620       23.116     2561.767      999.803      534.334        0.728        0.205      101.677       27.453        0.073      337.568        9.629      863.797
11/09/2013  20:51:00      -90.971      -19.307       -2.341       34.565       37.369       19.891     1194.727     1396.445      395.662        0.582        0.149       92.997       17.543        0.036      337.597        9.679      863.790
11/09/2013  20:52:00      -65.021      -12.890       -0.099       36.439       25.457       20.939     1327.804      648.059      438.456        0.340        0.121       66.286       19.311        0.085      337.476        9.477      863.793
11/09/2013  20:53:00      -76.784      -10.498       -1.056       45.991       36.871       26.850     2115.160     1359.474      720.920        0.510        0.210       77.498       27.223        0.123      337.451        9.433      863.796
11/09/2013  20:54:00      -82.195      -11.501       -3.787       43.169       35.826       25.049     1863.532     1283.507      627.441        0.534        0.189       82.996       21.677        0.068      337.467        9.459      863.788
11/09/2013  20:55:00      -82.669      -17.260       -8.919       32.962       28.234       19.299     1086.470      797.174      372.452        0.473        0.113       84.452       17.032        0.041      337.464        9.456      863.784
11/09/2013  20:56:00      -77.849      -18.018       -4.105       29.286       24.904       19.036      857.698      620.209      362.382        0.412        0.092       79.907       18.368        0.053      337.465        9.457      863.798
11/09/2013  20:57:00      -79.080      -47.186      -12.646       20.529       17.029       11.181      421.443      289.980      125.009        0.474        0.042       92.088        3.747        0.002      337.513        9.539      863.796
11/09/2013  20:58:00     -108.854      -64.839       -5.631       32.800       24.652       16.076     1075.811      607.710      258.425        0.901        0.097      126.701       10.250        0.007      337.462        9.451      863.798
11/09/2013  20:59:00     -101.713      -52.017       -2.052       32.153       20.105       16.917     1033.789      404.206      286.169        0.739        0.086      114.243       17.375        0.023      337.475        9.474      863.813
11/09/2013  21:00:00      -75.287      -51.762        0.215       28.505       22.389       16.139      812.541      501.250      260.466        0.496        0.079       91.364       11.386        0.016      337.576        9.643      863.821
11/09/2013  21:01:00      -92.297      -51.904       -3.832       18.713       14.437        9.384      350.178      208.437       88.065        0.594        0.032      105.890        8.561        0.007      337.594        9.672      863.825
11/09/2013  21:02:00      -90.793      -63.053       -5.411       25.842       23.592       13.236      667.793      556.575      175.189        0.682        0.070      110.540        9.401        0.007      337.578        9.647      863.844
11/09/2013  21:03:00      -73.219      -72.097        5.107       37.706       27.864       21.111     1421.768      776.393      445.660        0.661        0.132      102.756       18.965        0.034      337.514        9.539      863.847
11/09/2013  21:04:00     -100.666      -62.645        0.149       36.107       25.386       20.860     1303.745      644.456      435.127        0.822        0.119      118.567       12.587        0.011      337.461        9.451      863.852
11/09/2013  21:05:00     -121.210      -69.339       -4.893       27.157       22.478       19.002      737.478      505.248      361.064        1.056        0.080      139.642       14.259        0.010      337.389        9.330      863.868
11/09/2013  21:06:00      -45.692      -49.532        6.344       44.560       40.652       26.555     1985.611     1652.584      705.149        0.446        0.217       67.388       26.554        0.155      337.287        9.160      863.886
11/09/2013  21:07:00      -84.298      -58.160        6.398       65.028       36.099       29.132     4228.646     1303.131      848.695        0.845        0.319      102.415       32.611        0.101      337.262        9.119      863.904
11/09/2013  21:08:00      -96.882      -79.099        6.799       58.555       42.772       27.034     3428.723     1829.467      730.834        1.084        0.299      125.071       23.443        0.035      337.246        9.091      863.915
11/09/2013  21:09:00      -69.565      -61.948        2.744       47.574       36.192       26.619     2263.320     1309.867      708.563        0.648        0.214       93.150       26.559        0.081      337.326        9.225      863.929
11/09/2013  21:10:00      -19.251      -45.453        8.378       43.904       38.494       23.639     1927.565     1481.756      558.816        0.324        0.198       49.361       25.499        0.267      337.361        9.283      863.955
11/09/2013  21:11:00      -42.596      -66.127        3.753       35.669       25.286       18.344     1272.303      639.372      336.500        0.422        0.112       78.658       18.183        0.053      337.333        9.236      863.968
11/09/2013  21:12:00      -55.340      -60.594       -2.862       34.903       20.033       17.941     1218.220      401.308      321.877        0.434        0.097       82.062       18.625        0.052      337.320        9.214      863.971
11/09/2013  21:13:00      -61.549      -55.911        3.900       45.379       25.807       17.990     2059.287      665.986      323.633        0.499        0.152       83.153       21.853        0.069      337.358        9.279      863.984
11/09/2013  21:14:00      -57.704      -50.128        2.621       46.209       28.617       19.704     2135.263      818.944      388.256        0.460        0.167       76.436       19.981        0.068      337.312        9.202      863.991
11/09/2013  21:15:00      -34.024      -28.652        5.769       39.512       19.587       19.574     1561.173      383.656      383.158        0.217        0.116       44.481       20.781        0.218      337.282        9.151      864.007
11/09/2013  21:16:00      -15.538      -35.461       17.072       35.571       34.911       19.834     1265.329     1218.756      393.390        0.233        0.144       38.715       22.697        0.344      337.242        9.085      864.030
11/09/2013  21:17:00      -76.556      -55.037        4.107       42.755       26.872       19.727     1827.964      722.088      389.156        0.592        0.147       94.286       22.838        0.059      337.265        9.122      864.043
11/09/2013  21:18:00     -107.446      -75.254        0.069       33.011       25.456       16.521     1089.700      648.015      272.959        0.961        0.101      131.179       12.099        0.009      337.275        9.138      864.048
11/09/2013  21:19:00     -105.192      -59.391       -0.084       42.670       30.360       27.486     1820.701      921.756      755.473        0.904        0.175      120.800       16.976        0.020      337.238        9.078      864.059
11/09/2013  21:20:00     -102.060      -68.134        6.398       57.559       32.174       25.620     3313.055     1035.173      656.398        1.005        0.250      122.713       21.679        0.031      337.161        8.949      864.078
11/09/2013  21:21:00      -63.053      -52.380        4.336       56.920       41.350       29.065     3239.919     1709.860      844.772        0.627        0.290       81.972       29.137        0.126      337.176        8.973      864.084
11/09/2013  21:22:00      -58.887      -54.629        5.265       57.673       44.185       28.404     3326.170     1952.308      806.775        0.628        0.304       80.324       30.760        0.147      337.177        8.975      864.093
11/09/2013  21:23:00     -120.765      -55.870       -6.706       25.947       28.314       14.334      673.249      801.683      205.464        0.972        0.084      133.063       11.577        0.008      337.230        9.065      864.117
11/09/2013  21:24:00     -149.990      -51.864      -12.548       27.328       23.702       18.054      746.834      561.775      325.932        1.349        0.082      158.703       11.655        0.005      337.248        9.095      864.116
11/09/2013  21:25:00     -144.302      -63.258       -5.273       29.082       30.685       18.843      845.772      941.581      355.059        1.350        0.107      157.558       15.384        0.010      337.279        9.144      864.115
11/09/2013  21:26:00     -107.794      -44.778       -2.389       36.098       26.075       16.157     1303.062      679.888      261.046        0.794        0.112      116.725       16.983        0.021      337.222        9.051      864.129
11/09/2013  21:27:00      -95.592      -30.940       -2.701       25.448       32.567       21.460      647.608     1060.584      460.544        0.614        0.108      100.474       16.324        0.026      337.171        8.964      864.135
11/09/2013  21:28:00     -124.563      -10.363       -4.097       38.163       37.278       23.172     1456.427     1389.678      536.950        0.951        0.169      124.993       19.080        0.023      337.235        9.071      864.138
11/09/2013  21:29:00      -85.463      -62.988        2.715       45.218       31.452       21.715     2044.710      989.197      471.524        0.739        0.175      106.167       22.471        0.045      337.124        8.885      864.137
11/09/2013  21:30:00     -133.221      -48.312      -11.903       26.256       23.726       15.437      689.361      562.908      238.298        1.086        0.075      141.710       13.398        0.009      337.155        8.939      864.141
11/09/2013  21:31:00     -130.997      -53.164      -10.390       15.485       18.299       10.678      239.790      334.858      114.015        1.039        0.034      141.374        7.734        0.003      337.138        8.909      864.150
11/09/2013  21:32:00     -110.602      -45.967       -1.020       24.382       15.767       12.874      594.497      248.600      165.732        0.768        0.050      119.774       12.126        0.010      337.010        8.695      864.160
11/09/2013  21:33:00     -100.801      -37.228       -1.136       22.749       17.853       12.482      517.509      318.720      155.802        0.627        0.050      107.456        6.636        0.004      337.076        8.805      864.172
11/09/2013  21:34:00      -92.866      -47.980       -3.519       10.952       11.214        9.271      119.952      125.764       85.957        0.564        0.017      104.528        5.741        0.003      337.169        8.961      864.178
11/09/2013  21:35:00      -72.769      -40.208        2.893       27.128       19.057       13.298      735.915      363.166      176.830        0.410        0.064       83.138       11.604        0.019      337.158        8.944      864.174
11/09/2013  21:36:00      -71.623      -36.649        0.659       24.971       16.396       14.624      623.574      268.827      213.849        0.379        0.055       80.455       10.840        0.018      337.238        9.078      864.171
11/09/2013  21:37:00      -85.652      -24.199       -4.767       14.269       11.932       11.427      203.591      142.377      130.582        0.421        0.024       89.004        9.866        0.012      337.197        9.010      864.168
11/09/2013  21:38:00     -104.098      -14.742       -8.069       19.676       13.036       10.277      387.143      169.925      105.610        0.589        0.033      105.137        9.077        0.007      337.150        8.928      864.158
11/09/2013  21:39:00     -122.524      -34.275      -10.547       19.894       12.963       10.698      395.779      168.047      114.442        0.849        0.034      127.228       10.065        0.006      337.173        8.969      864.162
11/09/2013  21:40:00     -134.912      -43.861      -10.503       16.154       12.454        9.619      260.938      155.113       92.530        1.037        0.025      141.863        8.112        0.003      337.211        9.032      864.171
11/09/2013  21:41:00     -132.610      -49.631      -12.503       16.565       12.981       13.233      274.385      168.498      175.124        1.041        0.031      141.594       11.250        0.006      337.130        8.896      864.181
11/09/2013  21:42:00     -124.822      -41.032      -12.576       28.181       16.548       15.449      794.177      273.849      238.673        0.936        0.065      131.393       16.841        0.016      337.029        8.725      864.182
11/09/2013  21:43:00     -133.456      -32.636       -8.693       20.517       15.024       10.510      420.945      225.722      110.450        0.985        0.038      137.389       10.844        0.006      337.061        8.779      864.191
11/09/2013  21:44:00     -126.107      -36.369       -5.960       25.943       19.845       13.339      673.052      393.805      177.918        0.925        0.062      131.247       11.190        0.007      337.077        8.807      864.192
11/09/2013  21:45:00     -132.892      -32.510       -9.708       20.650       19.365       14.579      426.432      375.018      212.551        0.991        0.051      136.811        9.866        0.005      337.007        8.690      864.177
11/09/2013  21:46:00     -131.628      -28.339      -18.450       23.225       18.416       12.622      539.398      339.136      159.326        0.975        0.052      134.645       12.341        0.008      336.969        8.626      864.169
11/09/2013  21:47:00      -91.316       -2.559      -17.532       30.115       15.824       14.444      906.885      250.409      208.639        0.501        0.068       91.351       14.207        0.024      336.887        8.490      864.170
11/09/2013  21:48:00      -84.528      -15.851      -18.160       16.543       16.457       13.143      273.673      270.842      172.736        0.422        0.036       86.002        8.052        0.009      336.938        8.576      864.164
11/09/2013  21:49:00      -80.975      -43.258      -19.503       19.193       20.245       11.370      368.390      409.858      129.283        0.486        0.045       91.805        7.300        0.006      336.843        8.418      864.166
11/09/2013  21:50:00      -98.145      -40.218      -16.269       15.491       20.069       14.512      239.957      402.755      210.596        0.618        0.043      106.066       10.402        0.010      336.743        8.251      864.176
11/09/2013  21:51:00     -117.775      -31.004      -11.175       26.883       19.789       16.023      722.722      391.596      256.723        0.816        0.069      121.788       14.969        0.015      336.666        8.122      864.201
11/09/2013  21:52:00     -131.611      -28.825      -20.199       22.475       24.433       15.350      505.104      596.950      235.622        0.995        0.067      134.731       13.406        0.010      336.679        8.143      864.217
11/09/2013  21:53:00     -121.021      -23.231      -20.292       27.878       18.096       16.748      777.156      327.447      280.505        0.849        0.069      123.230       12.893        0.011      336.609        8.028      864.227
11/09/2013  21:54:00     -104.310      -57.217      -17.029       27.722       25.635       16.703      768.488      657.176      279.004        0.807        0.085      118.972       11.196        0.009      336.642        8.083      864.225
11/09/2013  21:55:00      -93.672      -65.760      -11.945       31.724       18.501       17.701     1006.399      342.294      313.336        0.745        0.083      114.450       14.028        0.015      336.588        7.992      864.226
11/09/2013  21:56:00     -117.684      -60.257      -15.059       21.862       21.515       17.012      477.936      462.888      289.401        0.947        0.062      132.214       12.591        0.009      336.598        8.008      864.231
11/09/2013  21:57:00     -117.404      -58.225      -14.111       19.905       17.489       14.352      396.201      305.857      205.983        0.914        0.045      131.049        9.096        0.005      336.651        8.097      864.229
11/09/2013  21:58:00      -86.670      -45.237      -12.425       20.783       19.761       11.726      431.938      390.502      137.499        0.534        0.048       97.766        7.523        0.006      336.665        8.119      864.227
11/09/2013  21:59:00      -69.657      -47.182      -22.427       16.258       26.286       14.261      264.321      690.963      203.367        0.437        0.058       84.132       11.740        0.019      336.677        8.141      864.229
11/09/2013  22:00:00      -76.722       -6.846       -8.888       13.455       18.481       12.797      181.047      341.539      163.759        0.335        0.034       77.027        8.626        0.013      336.827        8.391      864.236
11/09/2013  22:01:00      -87.880       -1.676      -16.386       13.276        9.295       10.957      176.258       86.391      120.066        0.419        0.019       87.896        8.657        0.010      336.792        8.332      864.246
11/09/2013  22:02:00      -92.887      -26.855      -17.371       17.117       23.796       12.269      293.006      566.232      150.524        0.533        0.050       96.691       10.045        0.011      336.702        8.184      864.252
11/09/2013  22:03:00     -106.506      -44.913      -14.865       36.054       18.103       13.621     1299.885      327.715      185.540        0.770        0.091      115.589       15.447        0.018      336.645        8.087      864.254
11/09/2013  22:04:00     -126.686      -49.680      -14.033       14.798       16.651       11.416      218.977      277.255      130.328        0.967        0.031      136.079        3.925        0.001      336.589        7.994      864.253
11/09/2013  22:05:00     -123.767      -39.002      -12.864       23.299       25.269       16.005      542.831      638.507      256.150        0.922        0.072      129.767       14.638        0.013      336.564        7.950      864.265
11/09/2013  22:06:00      -84.081      -43.614       -6.100       31.637       21.858       21.110     1000.912      477.761      445.631        0.547        0.096       94.720       19.032        0.040      336.584        7.983      864.278
11/09/2013  22:07:00      -90.925      -34.827       -8.909       13.788       21.793       11.395      190.101      474.915      129.838        0.518        0.040       97.367        6.391        0.004      336.562        7.947      864.278
11/09/2013  22:08:00      -61.921      -57.527       -6.182       35.025       19.879       23.563     1226.741      395.182      555.221        0.468        0.109       84.520       22.723        0.072      336.573        7.966      864.267
11/09/2013  22:09:00      -69.690      -48.549       -3.080       25.502       20.818       16.525      650.338      433.398      273.066        0.429        0.068       84.934       14.177        0.028      336.523        7.883      864.253
11/09/2013  22:10:00      -91.547      -41.870      -10.691       13.967       14.994       13.015      195.075      224.807      169.399        0.542        0.029      100.668        6.392        0.004      336.521        7.880      864.243
11/09/2013  22:11:00      -95.747      -21.560      -17.887       24.801       23.203       17.436      615.096      538.369      304.030        0.570        0.073       98.145        6.827        0.005      336.464        7.784      864.231
11/09/2013  22:12:00      -89.805      -12.455      -14.017       29.110       25.432       19.622      847.384      646.778      385.014        0.515        0.094       90.664       18.640        0.042      336.380        7.641      864.215
11/09/2013  22:13:00     -111.006      -26.311      -17.528       30.344       17.713       18.071      920.731      313.761      326.569        0.744        0.078      114.082        9.541        0.007      336.382        7.647      864.209
11/09/2013  22:14:00      -80.470      -39.495      -11.430       22.368       17.724       15.929      500.317      314.135      253.744        0.462        0.053       89.640        9.830        0.012      336.376        7.637      864.218
11/09/2013  22:15:00      -65.757      -49.670      -11.635       30.715       21.645       17.671      943.421      468.495      312.279        0.433        0.086       82.408       15.534        0.036      336.439        7.742      864.223
11/09/2013  22:16:00      -59.579      -65.917       -7.438       23.358       30.440       24.646      545.620      926.616      607.408        0.501        0.104       88.853       15.159        0.029      336.373        7.631      864.216
11/09/2013  22:17:00      -65.260      -27.930       -8.032       31.100       18.957       18.621      967.232      359.355      346.732        0.339        0.084       70.985       10.073        0.020      336.357        7.605      864.216
11/09/2013  22:18:00      -54.239      -47.555      -15.982       43.627       25.533       27.261     1903.288      651.941      743.165        0.438        0.165       72.134       21.131        0.086      336.399        7.675      864.230
11/09/2013  22:19:00      -47.329      -17.299       -1.096       40.259       21.816       25.568     1620.748      475.923      653.737        0.264        0.138       50.391       25.886        0.264      336.336        7.569      864.231
11/09/2013  22:20:00      -99.283      -35.291      -10.384       17.224       22.763       16.173      296.673      518.168      261.552        0.614        0.054      105.369       10.730        0.010      336.354        7.600      864.231
11/09/2013  22:21:00      -83.936      -28.771      -12.253       17.979       14.746       12.611      323.261      217.456      159.049        0.436        0.035       88.730        2.995        0.001      336.338        7.573      864.233
11/09/2013  22:22:00      -63.963      -32.974      -13.041       36.103       25.035       17.669     1303.461      626.740      312.185        0.380        0.112       71.962       15.280        0.045      336.399        7.675      864.246
11/09/2013  22:23:00      -71.189      -35.170      -17.625       18.032       15.956       12.239      325.147      254.603      149.795        0.367        0.036       79.403       10.317        0.017      336.395        7.668      864.250
11/09/2013  22:24:00      -92.139      -42.139       -5.703       18.584       14.578       14.581      345.378      212.518      212.596        0.553        0.039      101.318        8.984        0.008      336.359        7.609      864.243
11/09/2013  22:25:00      -89.685      -30.944       -6.689       15.444       16.239        9.422      238.513      263.706       88.767        0.482        0.030       94.873        8.964        0.009      336.411        7.695      864.238
11/09/2013  22:26:00      -72.211      -18.852       -2.242       14.908       18.827       10.738      222.243      354.465      115.311        0.313        0.035       74.631        8.705        0.014      336.440        7.743      864.246
11/09/2013  22:27:00      -54.776      -40.272       -1.007       22.009       17.988       14.185      484.376      323.578      201.214        0.282        0.050       67.987       10.443        0.024      336.451        7.761      864.251
11/09/2013  22:28:00      -47.384      -36.854       -0.467       24.885       16.023       18.536      619.253      256.750      343.594        0.241        0.061       60.029       16.290        0.074      336.408        7.689      864.250
11/09/2013  22:29:00      -48.796      -49.860        4.545       36.923       28.582       18.237     1363.285      816.947      332.604        0.370        0.126       69.764       11.710        0.028      336.301        7.512      864.256
11/09/2013  22:30:00      -86.875      -52.574       -3.291       18.749       22.948       11.894      351.538      526.605      141.457        0.567        0.051      101.544        8.544        0.007      336.416        7.703      864.262
11/09/2013  22:31:00      -73.969      -25.742        0.072       23.191       17.259       14.809      537.804      297.880      219.303        0.359        0.053       78.320        8.682        0.012      336.415        7.701      864.252
11/09/2013  22:32:00      -67.959      -30.494       -3.987       11.363       10.961        8.917      129.127      120.137       79.509        0.295        0.016       74.487        4.855        0.004      336.484        7.817      864.250
11/09/2013  22:33:00      -69.946      -39.580       -5.874        7.874        8.779        7.285       62.006       77.070       53.077        0.334        0.010       80.368        3.559        0.002      336.414        7.699      864.247
11/09/2013  22:34:00      -59.054      -41.171      -12.498       18.734       11.790        9.254      350.948      139.014       85.635        0.296        0.029       71.989        8.147        0.013      336.501        7.845      864.262
11/09/2013  22:35:00      -51.313      -34.541       -1.956       23.252       15.194       14.352      540.641      230.870      205.973        0.240        0.049       61.855       16.561        0.072      336.310        7.525      864.277
11/09/2013  22:36:00      -37.901      -30.446        0.781       17.740       12.738       13.521      314.716      162.255      182.816        0.151        0.033       48.616       10.558        0.047      336.338        7.573      864.294
11/09/2013  22:37:00       -4.285      -19.252        8.670       20.399       15.528       16.251      416.119      241.127      264.109        0.069        0.046       19.723       12.731        0.417      336.233        7.396      864.316
11/09/2013  22:38:00      -18.078      -30.507       12.346       26.165       21.440       17.570      684.588      459.659      308.704        0.143        0.073       35.461       16.124        0.207      336.393        7.664      864.332
11/09/2013  22:39:00      -10.532      -13.768        4.559       18.812       17.393        8.089      353.889      302.524       65.440        0.052        0.036       17.335        7.155        0.170      336.483        7.816      864.334
11/09/2013  22:40:00      -23.184        3.167        8.401       23.096       14.787       11.095      533.439      218.670      123.096        0.075        0.044       23.400        7.194        0.095      336.398        7.672      864.335
11/09/2013  22:41:00      -51.617      -14.615       -1.451       23.589       18.985        8.885      556.424      360.429       78.949        0.194        0.050       53.646        6.856        0.016      336.384        7.650      864.335
11/09/2013  22:42:00      -43.644      -38.168       10.038       33.869       21.233       17.765     1147.138      450.832      315.607        0.269        0.096       57.979       20.222        0.122      336.373        7.630      864.337
11/09/2013  22:43:00      -54.787      -35.810        5.559       29.430       23.449       17.153      866.136      549.864      294.208        0.301        0.086       65.452       15.201        0.054      336.265        7.450      864.337
11/09/2013  22:44:00      -24.157      -31.825       11.329       41.933       24.118       21.548     1758.341      581.668      464.304        0.226        0.140       39.955       22.387        0.314      336.216        7.368      864.339
11/09/2013  22:45:00      -58.005      -38.508       -0.350       39.658       22.057       17.009     1572.793      486.503      289.309        0.360        0.117       69.623       19.044        0.075      336.215        7.368      864.330
11/09/2013  22:46:00      -41.619      -55.306        5.562       27.773       19.085       15.724      771.338      364.224      247.229        0.310        0.069       69.217       12.500        0.033      336.258        7.439      864.323
11/09/2013  22:47:00      -43.906      -41.497        2.346       33.404       19.392       18.280     1115.860      376.040      334.171        0.274        0.091       60.413       15.295        0.064      336.244        7.416      864.327
11/09/2013  22:48:00      -52.862      -41.634        6.034       43.688       30.585       25.480     1908.606      935.455      649.220        0.403        0.175       67.289       23.771        0.125      336.305        7.517      864.337
11/09/2013  22:49:00      -41.460      -67.474        3.803       54.976       38.772       25.751     3022.396     1503.261      663.117        0.574        0.259       79.194       23.464        0.088      336.318        7.540      864.351
11/09/2013  22:50:00      -49.253      -49.690       10.239       36.981       30.009       20.821     1367.575      900.558      433.510        0.385        0.135       69.963       22.463        0.103      336.283        7.481      864.356
11/09/2013  22:51:00      -68.727      -59.402        2.756       38.125       31.527       25.930     1453.532      993.980      672.360        0.569        0.156       90.841       19.248        0.045      336.329        7.559      864.360
11/09/2013  22:52:00     -120.983     -117.223       -3.885       59.225       42.919       25.682     3507.612     1842.030      659.582        1.720        0.300      168.458       30.418        0.033      336.323        7.548      864.352
11/09/2013  22:53:00     -109.052      -85.903       -2.417       51.112       39.343       23.268     2612.450     1547.896      541.409        1.199        0.235      138.822       16.808        0.015      336.247        7.420      864.347
11/09/2013  22:54:00      -52.902      -39.881       10.503       46.326       25.096       24.777     2146.120      629.820      613.920        0.394        0.169       66.250       20.339        0.094      336.138        7.238      864.348
11/09/2013  22:55:00      -81.763      -44.429        4.266       34.486       22.796       21.098     1189.294      519.664      445.140        0.542        0.108       93.054       20.778        0.050      336.028        7.055      864.345
11/09/2013  22:56:00      -73.538      -49.002        3.005       33.990       24.347       17.389     1155.304      592.784      302.388        0.493        0.103       88.368       18.387        0.043      336.079        7.140      864.342
11/09/2013  22:57:00      -72.891      -71.490        1.127       31.427       29.304       17.164      987.660      858.737      294.613        0.628        0.107      102.097       18.532        0.033      336.183        7.314      864.344
11/09/2013  22:58:00      -84.615      -58.444       -5.944       24.957       28.504       15.493      622.827      812.488      240.042        0.614        0.084      102.836       11.730        0.013      336.124        7.216      864.343
11/09/2013  22:59:00      -95.913      -62.456       -5.364       36.827       36.981       18.238     1356.207     1367.559      332.607        0.809        0.153      114.456       13.525        0.014      336.067        7.120      864.332
11/09/2013  23:00:00     -110.402      -81.016       -3.818       44.805       35.620       21.005     2007.465     1268.799      441.205        1.124        0.186      136.939       12.565        0.008      336.123        7.212      864.315
11/09/2013  23:01:00     -117.756      -66.038       -6.860       31.662       33.104       19.080     1002.475     1095.848      364.029        1.037        0.123      135.009       14.672        0.012      336.110        7.190      864.298
11/09/2013  23:02:00     -105.330      -58.883       -4.395       37.154       20.867       14.134     1380.390      435.417      199.759        0.830        0.101      120.671       13.255        0.012      336.121        7.209      864.300
11/09/2013  23:03:00      -80.607      -35.115        5.574       47.221       20.608       16.179     2229.779      424.678      261.771        0.534        0.146       87.924       20.129        0.052      336.100        7.176      864.303
11/09/2013  23:04:00      -68.523      -34.077        0.898       31.369       25.293       17.871      984.035      639.712      319.360        0.390        0.097       76.529       17.761        0.054      336.017        7.036      864.299
11/09/2013  23:05:00      -51.615      -65.894       -0.512       37.467       43.080       22.712     1403.796     1855.906      515.840        0.539        0.189       83.703       18.192        0.047      336.006        7.019      864.296
11/09/2013  23:06:00      -91.606      -53.810        3.007       34.705       21.405       17.695     1204.438      458.176      313.105        0.664        0.099      106.241       12.380        0.014      335.996        7.000      864.285
11/09/2013  23:07:00     -103.066      -32.821        0.196       28.991       24.502       17.206      840.483      600.336      296.050        0.672        0.087      108.166       14.615        0.018      335.902        6.845      864.281
11/09/2013  23:08:00     -126.199      -34.098        3.203       34.375       24.890       18.087     1181.641      619.503      327.139        0.961        0.106      130.724       18.984        0.021      335.837        6.737      864.274
11/09/2013  23:09:00     -129.566      -43.726        0.212       41.294       23.849       21.765     1705.162      568.775      473.696        1.072        0.137      136.745       23.611        0.030      335.862        6.778      864.266
11/09/2013  23:10:00     -109.845      -28.445       -0.823       35.760       28.438       19.000     1278.789      808.721      361.003        0.766        0.122      113.468       18.098        0.025      335.764        6.616      864.271
11/09/2013  23:11:00      -98.637      -33.754        4.720       40.606       27.190       21.133     1648.875      739.283      446.595        0.686        0.142      104.253       20.835        0.040      335.710        6.527      864.272
11/09/2013  23:12:00     -103.149      -35.334        0.718       39.757       26.835       19.639     1580.584      720.117      385.686        0.729        0.134      109.033       19.688        0.033      335.718        6.538      864.261
11/09/2013  23:13:00     -103.085      -44.313        9.085       46.626       32.578       20.426     2173.986     1061.336      417.222        0.816        0.183      112.206       21.312        0.036      335.701        6.511      864.265
11/09/2013  23:14:00     -120.050      -62.477        2.509       34.510       25.972       21.913     1190.933      674.564      480.183        1.033        0.117      135.334       21.274        0.025      335.780        6.643      864.267
11/09/2013  23:15:00     -120.668      -58.605       -6.317       36.448       29.634       18.678     1328.475      878.158      348.865        1.029        0.128      134.147       18.427        0.019      335.789        6.657      864.257
11/09/2013  23:16:00     -134.752      -56.254       -0.836       25.658       21.428       15.766      658.355      459.165      248.556        1.134        0.068      146.022        9.318        0.004      335.802        6.679      864.259
11/09/2013  23:17:00     -132.775      -55.292       -5.677       18.157       21.525       14.460      329.681      463.315      209.087        1.086        0.050      143.827       11.646        0.007      335.653        6.430      864.261
11/09/2013  23:18:00     -101.284      -46.032       -2.126       26.074       17.104       16.263      679.834      292.530      264.480        0.681        0.062      111.254       14.538        0.017      335.625        6.384      864.252
11/09/2013  23:19:00      -95.360      -42.825       -6.777       20.520       17.144       12.545      421.060      293.900      157.383        0.592        0.044      104.534        9.094        0.008      335.636        6.402      864.254
11/09/2013  23:20:00     -108.880      -23.987      -13.845       16.868       14.977       12.054      284.515      224.313      145.303        0.664        0.033      111.491        5.797        0.003      335.523        6.213      864.262
11/09/2013  23:21:00     -107.314      -28.220      -10.408       23.589       17.825       18.468      556.422      317.747      341.053        0.682        0.061      110.962       14.944        0.018      335.500        6.176      864.254
11/09/2013  23:22:00      -86.912      -29.744      -10.576       16.365       22.965       17.300      267.810      527.405      299.276        0.482        0.055       91.861       12.473        0.018      335.432        6.062      864.252
11/09/2013  23:23:00     -106.301      -36.127      -17.333       23.408       23.286       17.450      547.949      542.247      304.516        0.715        0.070      112.273       13.518        0.014      335.404        6.015      864.257
11/09/2013  23:24:00     -112.112      -32.099      -13.374       32.675       27.271       19.118     1067.645      743.715      365.480        0.798        0.109      116.617       13.043        0.013      335.385        5.982      864.253
11/09/2013  23:25:00     -111.918      -59.263       -8.577       23.868       25.435       18.064      569.659      646.922      326.296        0.883        0.077      126.640       11.299        0.008      335.355        5.933      864.260
11/09/2013  23:26:00     -110.734      -59.735       -2.647       29.159       31.482       22.788      850.242      991.088      519.291        0.910        0.118      125.818       16.636        0.017      335.379        5.972      864.274
11/09/2013  23:27:00      -94.664      -63.390        1.159       31.676       37.235       23.182     1003.374     1386.447      537.408        0.795        0.146      113.927       15.666        0.019      335.367        5.953      864.281
11/09/2013  23:28:00     -109.193      -24.764       -1.257       50.445       45.453       28.151     2544.690     2065.969      792.497        0.897        0.270      111.966       29.558        0.070      335.346        5.917      864.286
11/09/2013  23:29:00     -124.937      -36.978      -11.285       68.846       44.602       25.073     4739.794     1989.305      628.636        1.223        0.368      130.295       33.080        0.064      335.346        5.917      864.291
11/09/2013  23:30:00      -82.838       -1.768       -1.381       59.995       42.311       32.461     3599.391     1790.180     1053.721        0.665        0.322       82.857       34.552        0.174      335.315        5.866      864.289
11/09/2013  23:31:00      -51.194      -32.982        5.631       56.253       44.770       29.963     3164.415     2004.322      897.774        0.490        0.303       60.899       26.977        0.196      335.334        5.898      864.289
11/09/2013  23:32:00      -89.946      -35.578       -1.179       46.748       50.271       24.745     2185.405     2527.197      612.312        0.734        0.266       96.727       24.562        0.064      335.369        5.957      864.289
11/09/2013  23:33:00     -102.931      -10.117       -8.293       46.786       40.631       23.387     2188.955     1650.862      546.971        0.758        0.219      103.427       19.448        0.035      335.409        6.023      864.276
11/09/2013  23:34:00     -115.590       -1.024      -17.615       34.454       34.180       25.333     1187.105     1168.279      641.758        0.833        0.150      115.595       15.501        0.018      335.426        6.051      864.269
11/09/2013  23:35:00     -117.800        3.751      -19.425       33.064       33.148       24.150     1093.252     1098.772      583.210        0.852        0.139      117.860        6.884        0.003      335.425        6.049      864.271
11/09/2013  23:36:00     -108.374      -52.397       -5.820       50.311       43.859       24.722     2531.149     1923.575      611.186        0.979        0.253      120.376       17.846        0.022      335.360        5.941      864.270
11/09/2013  23:37:00     -105.231      -24.853       -5.054       68.761       41.323       23.017     4728.055     1707.611      529.786        0.934        0.348      108.127       23.380        0.047      335.331        5.892      864.280
11/09/2013  23:38:00     -125.420      -58.060       -7.195       48.110       42.370       28.908     2314.589     1795.225      835.647        1.205        0.247      138.207       29.593        0.046      335.276        5.804      864.287
11/09/2013  23:39:00     -118.312      -44.920       -8.820       31.591       34.327       21.393      997.960     1178.334      457.649        0.936        0.132      126.553       15.724        0.015      335.325        5.882      864.281
11/09/2013  23:40:00      -71.401      -52.487       -3.620       61.395       34.959       27.219     3769.363     1222.128      740.877        0.680        0.287       88.617       15.827        0.032      335.355        5.931      864.282
11/09/2013  23:41:00     -161.624     -101.945      -14.313       44.795       37.867       23.818     2006.558     1433.931      567.274        2.036        0.200      191.089        9.836        0.003      335.399        6.005      864.288
11/09/2013  23:42:00     -187.007      -46.197      -11.892       31.292       45.466       20.377      979.169     2067.181      415.222        2.035        0.173      192.629       13.026        0.005      335.280        5.808      864.294
11/09/2013  23:43:00     -110.182      -44.786       -3.281       34.541       31.544       16.279     1193.055      995.028      265.011        0.830        0.123      118.936        5.305        0.002      335.329        5.889      864.300
11/09/2013  23:44:00      -83.006      -41.376        3.745       51.136       35.740       23.071     2614.872     1277.333      532.272        0.652        0.221       92.747       25.951        0.078      335.399        6.007      864.301
11/09/2013  23:45:00     -112.961      -61.019       -5.048       27.745       26.135       18.739      769.762      683.055      351.146        0.916        0.090      128.388       10.849        0.007      335.445        6.084      864.295
11/09/2013  23:46:00     -128.604      -47.344       -4.040       33.571       26.947       19.660     1126.999      726.133      386.498        1.052        0.112      137.042       19.091        0.019      335.405        6.017      864.305
11/09/2013  23:47:00     -128.091      -60.846       -6.427       32.387       19.567       16.697     1048.898      382.871      278.798        1.093        0.086      141.808       12.677        0.008      335.422        6.046      864.298
11/09/2013  23:48:00      -92.354      -56.053        2.554       46.859       32.126       22.097     2195.788     1032.099      488.265        0.770        0.186      108.034       13.730        0.016      335.409        6.023      864.310
11/09/2013  23:49:00      -67.417      -56.608       -4.113       52.370       38.580       25.776     2742.646     1488.427      664.414        0.633        0.245       88.032       20.500        0.054      335.397        6.004      864.315
11/09/2013  23:50:00      -65.052      -58.198        4.092       45.804       34.144       20.365     2098.035     1165.816      414.713        0.566        0.184       87.286       22.674        0.067      335.377        5.969      864.318
11/09/2013  23:51:00      -75.797      -44.925        6.235       45.241       26.456       23.704     2046.705      699.919      561.865        0.555        0.165       88.110       20.524        0.054      335.390        5.991      864.327
11/09/2013  23:52:00      -83.430      -44.875        5.459       55.309       35.303       22.228     3059.049     1246.284      494.096        0.690        0.240       94.733       26.317        0.077      335.397        6.002      864.328
11/09/2013  23:53:00      -80.582      -47.556       15.320       49.295       38.410       25.986     2430.038     1475.308      675.295        0.678        0.229       93.568       26.042        0.077      335.398        6.004      864.339
11/09/2013  23:54:00     -116.340      -62.541        4.394       51.888       37.108       23.775     2692.359     1376.981      565.246        1.105        0.232      132.085       19.750        0.022      335.406        6.017      864.353
11/09/2013  23:55:00     -136.078      -73.105       -1.038       63.663       36.668       27.474     4052.923     1344.561      754.838        1.501        0.308      154.472       32.031        0.043      335.446        6.084      864.355
11/09/2013  23:56:00     -150.377      -32.100       -6.101       38.250       33.349       20.831     1463.066     1112.150      433.945        1.334        0.150      153.765       20.789        0.018      335.489        6.156      864.343
11/09/2013  23:57:00     -135.052      -22.384       -4.526       32.879       24.556       20.841     1081.021      602.982      434.327        1.044        0.106      136.895       18.920        0.019      335.374        5.965      864.333
11/09/2013  23:58:00     -144.798      -53.773       -7.056       38.456       34.551       19.680     1478.872     1193.769      387.297        1.348        0.153      154.461       19.890        0.017      335.320        5.875      864.312
11/09/2013  23:59:00     -115.159      -49.171       -6.828       27.817       31.884       15.245      773.800     1016.568      232.400        0.887        0.101      125.217        9.057        0.005      335.262        5.778      864.304
